Time,TemperatureF,DewpointF,PressureIn,WindDirection,WindDirectionDegrees,WindSpeedMPH,WindSpeedGustMPH,Humidity,HourlyPrecipIn,Conditions,Clouds,dailyrainin,SoftwareType,DateUTC
2013-05-18 00:00:00,50.5,45.2,30.23,WSW,238,0.0,0.0,82,0.00,,---,0.00,VWS V14.01,2013-05-18 04:00:00,
2013-05-18 00:01:00,50.5,45.2,30.23,WSW,238,0.0,0.0,82,0.00,,---,0.00,VWS V14.01,2013-05-18 04:01:00,
2013-05-18 00:02:00,50.5,45.5,30.23,WSW,238,0.0,0.0,83,0.00,,---,0.00,VWS V14.01,2013-05-18 04:02:00,
2013-05-18 00:03:00,50.5,45.2,30.23,WSW,238,0.0,0.0,82,0.00,,---,0.00,VWS V14.01,2013-05-18 04:03:00,
2013-05-18 00:04:00,50.5,45.5,30.23,WSW,238,0.0,0.0,83,0.00,,---,0.00,VWS V14.01,2013-05-18 04:04:00,
2013-05-18 00:05:00,50.5,45.5,30.23,WSW,238,0.0,0.0,83,0.00,,---,0.00,VWS V14.01,2013-05-18 04:05:00,
2013-05-18 00:06:00,50.5,45.5,30.23,WSW,238,0.0,0.0,83,0.00,,---,0.00,VWS V14.01,2013-05-18 04:06:00,
2013-05-18 00:07:00,50.4,45.4,30.23,WSW,238,0.0,0.0,83,0.00,,---,0.00,VWS V14.01,2013-05-18 04:07:00,
2013-05-18 00:08:00,50.4,45.4,30.23,WSW,238,0.0,0.0,83,0.00,,---,0.00,VWS V14.01,2013-05-18 04:08:00,
2013-05-18 00:09:00,50.4,45.4,30.23,WSW,238,0.0,0.0,83,0.00,,---,0.00,VWS V14.01,2013-05-18 04:09:00,
2013-05-18 00:10:00,50.4,45.4,30.23,WSW,238,0.0,0.0,83,0.00,,---,0.00,VWS V14.01,2013-05-18 04:10:00,
2013-05-18 00:11:00,50.4,45.4,30.23,WSW,238,0.0,0.0,83,0.00,,---,0.00,VWS V14.01,2013-05-18 04:11:00,
2013-05-18 00:12:00,50.4,45.4,30.23,WSW,238,0.0,0.0,83,0.00,,---,0.00,VWS V14.01,2013-05-18 04:12:00,
2013-05-18 00:13:00,50.4,45.4,30.23,WSW,238,0.0,0.0,83,0.00,,---,0.00,VWS V14.01,2013-05-18 04:13:00,
2013-05-18 00:14:00,50.4,45.4,30.23,WSW,238,0.0,0.0,83,0.00,,---,0.00,VWS V14.01,2013-05-18 04:14:00,
2013-05-18 00:15:00,50.4,45.4,30.23,WSW,238,0.0,0.0,83,0.00,,---,0.00,VWS V14.01,2013-05-18 04:15:00,
2013-05-18 00:16:00,50.2,45.2,30.23,WSW,238,0.0,0.0,83,0.00,,---,0.00,VWS V14.01,2013-05-18 04:16:00,
2013-05-18 00:17:00,50.2,45.2,30.23,WSW,238,0.0,0.0,83,0.00,,---,0.00,VWS V14.01,2013-05-18 04:17:00,
2013-05-18 00:18:00,50.2,45.2,30.23,WSW,238,0.0,0.0,83,0.00,,---,0.00,VWS V14.01,2013-05-18 04:18:00,
2013-05-18 00:19:00,50.2,45.2,30.23,WSW,238,0.0,0.0,83,0.00,,---,0.00,VWS V14.01,2013-05-18 04:19:00,
2013-05-18 00:20:00,50.2,45.6,30.23,WSW,238,0.0,0.0,84,0.00,,---,0.00,VWS V14.01,2013-05-18 04:20:00,
2013-05-18 00:21:00,50.2,45.6,30.23,WSW,238,0.0,0.0,84,0.00,,---,0.00,VWS V14.01,2013-05-18 04:21:00,
2013-05-18 00:22:00,50.1,45.5,30.23,WSW,238,0.0,1.0,84,0.00,,---,0.00,VWS V14.01,2013-05-18 04:22:00,
2013-05-18 00:23:00,50.1,45.5,30.23,WSW,238,0.0,1.0,84,0.00,,---,0.00,VWS V14.01,2013-05-18 04:23:00,
2013-05-18 00:24:00,50.1,45.5,30.23,WSW,238,0.0,1.0,84,0.00,,---,0.00,VWS V14.01,2013-05-18 04:24:00,
2013-05-18 00:25:00,50.1,45.5,30.23,WSW,238,0.0,1.0,84,0.00,,---,0.00,VWS V14.01,2013-05-18 04:25:00,
2013-05-18 00:26:00,49.9,45.3,30.23,WSW,238,0.0,0.0,84,0.00,,---,0.00,VWS V14.01,2013-05-18 04:26:00,
2013-05-18 00:27:00,49.9,45.3,30.23,WSW,238,0.0,0.0,84,0.00,,---,0.00,VWS V14.01,2013-05-18 04:27:00,
2013-05-18 00:28:00,49.8,45.5,30.23,WSW,238,0.0,0.0,85,0.00,,---,0.00,VWS V14.01,2013-05-18 04:28:00,
2013-05-18 00:29:00,49.8,45.5,30.23,WSW,238,0.0,0.0,85,0.00,,---,0.00,VWS V14.01,2013-05-18 04:29:00,
2013-05-18 00:30:00,49.8,45.5,30.23,WSW,238,0.0,2.0,85,0.00,,---,0.00,VWS V14.01,2013-05-18 04:30:00,
2013-05-18 00:31:00,49.6,45.3,30.23,WSW,238,0.0,0.0,85,0.00,,---,0.00,VWS V14.01,2013-05-18 04:31:00,
2013-05-18 00:32:00,49.6,45.3,30.23,WSW,238,1.0,2.0,85,0.00,,---,0.00,VWS V14.01,2013-05-18 04:32:00,
2013-05-18 00:33:00,49.5,45.2,30.23,WSW,238,0.0,2.0,85,0.00,,---,0.00,VWS V14.01,2013-05-18 04:33:00,
2013-05-18 00:34:00,49.5,45.2,30.23,WSW,238,0.0,2.0,85,0.00,,---,0.00,VWS V14.01,2013-05-18 04:34:00,
2013-05-18 00:35:00,49.4,45.4,30.23,WSW,238,0.0,2.0,86,0.00,,---,0.00,VWS V14.01,2013-05-18 04:35:00,
2013-05-18 00:36:00,49.4,45.4,30.23,WSW,238,0.0,0.0,86,0.00,,---,0.00,VWS V14.01,2013-05-18 04:36:00,
2013-05-18 00:37:00,49.4,45.4,30.23,WSW,238,0.0,0.0,86,0.00,,---,0.00,VWS V14.01,2013-05-18 04:37:00,
2013-05-18 00:38:00,49.2,45.2,30.23,WSW,238,0.0,0.0,86,0.00,,---,0.00,VWS V14.01,2013-05-18 04:38:00,
2013-05-18 00:39:00,49.2,45.2,30.23,WSW,238,0.0,0.0,86,0.00,,---,0.00,VWS V14.01,2013-05-18 04:39:00,
2013-05-18 00:40:00,49.2,45.2,30.23,WSW,238,0.0,0.0,86,0.00,,---,0.00,VWS V14.01,2013-05-18 04:40:00,
2013-05-18 00:41:00,49.2,45.2,30.23,WSW,238,0.0,0.0,86,0.00,,---,0.00,VWS V14.01,2013-05-18 04:41:00,
2013-05-18 00:42:00,49.1,45.1,30.23,WSW,238,0.0,0.0,86,0.00,,---,0.00,VWS V14.01,2013-05-18 04:42:00,
2013-05-18 00:43:00,49.1,45.1,30.23,WSW,238,0.0,0.0,86,0.00,,---,0.00,VWS V14.01,2013-05-18 04:43:00,
2013-05-18 00:44:00,49.1,45.1,30.23,WSW,238,0.0,0.0,86,0.00,,---,0.00,VWS V14.01,2013-05-18 04:44:00,
2013-05-18 00:45:00,49.1,45.1,30.23,WSW,238,0.0,0.0,86,0.00,,---,0.00,VWS V14.01,2013-05-18 04:45:00,
2013-05-18 00:46:00,49.1,45.1,30.23,WSW,238,0.0,0.0,86,0.00,,---,0.00,VWS V14.01,2013-05-18 04:46:00,
2013-05-18 00:47:00,49.1,45.1,30.23,WSW,238,0.0,0.0,86,0.00,,---,0.00,VWS V14.01,2013-05-18 04:47:00,
2013-05-18 00:48:00,48.9,44.9,30.23,WSW,238,0.0,0.0,86,0.00,,---,0.00,VWS V14.01,2013-05-18 04:48:00,
2013-05-18 00:49:00,48.9,45.2,30.23,WSW,238,0.0,0.0,87,0.00,,---,0.00,VWS V14.01,2013-05-18 04:49:00,
2013-05-18 00:50:00,48.9,45.2,30.23,WSW,238,0.0,2.0,87,0.00,,---,0.00,VWS V14.01,2013-05-18 04:50:00,
2013-05-18 00:51:00,48.9,45.2,30.23,WSW,238,2.0,3.0,87,0.00,,---,0.00,VWS V14.01,2013-05-18 04:51:00,
2013-05-18 00:52:00,48.9,45.2,30.23,WSW,238,0.0,3.0,87,0.00,,---,0.00,VWS V14.01,2013-05-18 04:52:00,
2013-05-18 00:53:00,48.9,45.2,30.23,WSW,238,0.0,3.0,87,0.00,,---,0.00,VWS V14.01,2013-05-18 04:53:00,
2013-05-18 00:54:00,48.9,45.2,30.23,WSW,238,0.0,3.0,87,0.00,,---,0.00,VWS V14.01,2013-05-18 04:54:00,
2013-05-18 00:55:00,48.8,45.1,30.23,WSW,238,0.0,3.0,87,0.00,,---,0.00,VWS V14.01,2013-05-18 04:55:00,
2013-05-18 00:56:00,48.8,45.1,30.23,WSW,238,0.0,0.0,87,0.00,,---,0.00,VWS V14.01,2013-05-18 04:56:00,
2013-05-18 00:57:00,48.8,45.1,30.23,WSW,238,0.0,0.0,87,0.00,,---,0.00,VWS V14.01,2013-05-18 04:57:00,
2013-05-18 00:58:00,48.8,45.1,30.23,WSW,238,0.0,0.0,87,0.00,,---,0.00,VWS V14.01,2013-05-18 04:58:00,
2013-05-18 00:59:00,48.8,45.1,30.23,WSW,238,0.0,0.0,87,0.00,,---,0.00,VWS V14.01,2013-05-18 04:59:00,
2013-05-18 01:00:00,48.8,45.1,30.23,WSW,238,0.0,0.0,87,0.00,,---,0.00,VWS V14.01,2013-05-18 05:00:00,
2013-05-18 01:01:00,48.8,45.1,30.23,WSW,238,0.0,0.0,87,0.00,,---,0.00,VWS V14.01,2013-05-18 05:01:00,
2013-05-18 01:02:00,48.8,45.1,30.23,WSW,238,0.0,0.0,87,0.00,,---,0.00,VWS V14.01,2013-05-18 05:02:00,
2013-05-18 01:03:00,48.8,45.1,30.23,WSW,238,0.0,0.0,87,0.00,,---,0.00,VWS V14.01,2013-05-18 05:03:00,
2013-05-18 01:04:00,48.8,45.1,30.23,WSW,238,0.0,0.0,87,0.00,,---,0.00,VWS V14.01,2013-05-18 05:04:00,
2013-05-18 01:05:00,48.8,45.1,30.23,WSW,238,0.0,0.0,87,0.00,,---,0.00,VWS V14.01,2013-05-18 05:05:00,
2013-05-18 01:06:00,48.8,45.1,30.23,WSW,238,0.0,0.0,87,0.00,,---,0.00,VWS V14.01,2013-05-18 05:06:00,
2013-05-18 01:07:00,48.8,45.1,30.23,WSW,238,0.0,0.0,87,0.00,,---,0.00,VWS V14.01,2013-05-18 05:07:00,
2013-05-18 01:08:00,48.8,45.1,30.23,WSW,238,0.0,0.0,87,0.00,,---,0.00,VWS V14.01,2013-05-18 05:08:00,
2013-05-18 01:09:00,48.8,45.1,30.23,WSW,238,0.0,0.0,87,0.00,,---,0.00,VWS V14.01,2013-05-18 05:09:00,
2013-05-18 01:10:00,48.8,45.1,30.23,WSW,238,0.0,0.0,87,0.00,,---,0.00,VWS V14.01,2013-05-18 05:10:00,
2013-05-18 01:11:00,48.8,45.1,30.23,WSW,238,0.0,0.0,87,0.00,,---,0.00,VWS V14.01,2013-05-18 05:11:00,
2013-05-18 01:12:00,48.8,45.1,30.23,WSW,238,0.0,0.0,87,0.00,,---,0.00,VWS V14.01,2013-05-18 05:12:00,
2013-05-18 01:13:00,48.8,45.1,30.23,WSW,238,0.0,0.0,87,0.00,,---,0.00,VWS V14.01,2013-05-18 05:13:00,
2013-05-18 01:14:00,48.8,45.1,30.23,WSW,238,0.0,0.0,87,0.00,,---,0.00,VWS V14.01,2013-05-18 05:14:00,
2013-05-18 01:15:00,48.8,45.1,30.23,WSW,238,0.0,0.0,87,0.00,,---,0.00,VWS V14.01,2013-05-18 05:15:00,
2013-05-18 01:16:00,48.8,45.1,30.23,WSW,238,0.0,0.0,87,0.00,,---,0.00,VWS V14.01,2013-05-18 05:16:00,
2013-05-18 01:17:00,48.6,44.9,30.23,WSW,238,0.0,0.0,87,0.00,,---,0.00,VWS V14.01,2013-05-18 05:17:00,
2013-05-18 01:18:00,48.6,44.9,30.23,WSW,238,0.0,0.0,87,0.00,,---,0.00,VWS V14.01,2013-05-18 05:18:00,
2013-05-18 01:19:00,48.6,44.9,30.23,WSW,238,0.0,0.0,87,0.00,,---,0.00,VWS V14.01,2013-05-18 05:19:00,
2013-05-18 01:20:00,48.6,45.2,30.23,WSW,238,0.0,0.0,88,0.00,,---,0.00,VWS V14.01,2013-05-18 05:20:00,
2013-05-18 01:21:00,48.6,45.2,30.23,WSW,238,0.0,0.0,88,0.00,,---,0.00,VWS V14.01,2013-05-18 05:21:00,
2013-05-18 01:22:00,48.6,45.2,30.23,WSW,238,0.0,0.0,88,0.00,,---,0.00,VWS V14.01,2013-05-18 05:22:00,
2013-05-18 01:23:00,48.6,45.2,30.23,WSW,238,0.0,0.0,88,0.00,,---,0.00,VWS V14.01,2013-05-18 05:23:00,
2013-05-18 01:24:00,48.6,45.2,30.23,WSW,238,0.0,0.0,88,0.00,,---,0.00,VWS V14.01,2013-05-18 05:24:00,
2013-05-18 01:25:00,48.6,45.2,30.23,WSW,238,0.0,0.0,88,0.00,,---,0.00,VWS V14.01,2013-05-18 05:25:00,
2013-05-18 01:26:00,48.6,45.2,30.23,WSW,238,0.0,0.0,88,0.00,,---,0.00,VWS V14.01,2013-05-18 05:26:00,
2013-05-18 01:27:00,48.6,45.2,30.23,WSW,238,0.0,0.0,88,0.00,,---,0.00,VWS V14.01,2013-05-18 05:27:00,
2013-05-18 01:28:00,48.6,45.2,30.23,WSW,238,0.0,0.0,88,0.00,,---,0.00,VWS V14.01,2013-05-18 05:28:00,
2013-05-18 01:29:00,48.6,45.2,30.23,WSW,238,0.0,0.0,88,0.00,,---,0.00,VWS V14.01,2013-05-18 05:29:00,
2013-05-18 01:30:00,48.6,45.2,30.22,WSW,238,0.0,1.0,88,0.00,,---,0.00,VWS V14.01,2013-05-18 05:30:00,
2013-05-18 01:31:00,48.6,45.2,30.22,WSW,238,0.0,1.0,88,0.00,,---,0.00,VWS V14.01,2013-05-18 05:31:00,
2013-05-18 01:32:00,48.6,45.2,30.22,WSW,238,0.0,1.0,88,0.00,,---,0.00,VWS V14.01,2013-05-18 05:32:00,
2013-05-18 01:33:00,48.6,45.2,30.22,WSW,238,0.0,1.0,88,0.00,,---,0.00,VWS V14.01,2013-05-18 05:33:00,
2013-05-18 01:34:00,48.6,45.2,30.22,WSW,238,0.0,1.0,88,0.00,,---,0.00,VWS V14.01,2013-05-18 05:34:00,
2013-05-18 01:35:00,48.6,45.2,30.22,WSW,238,0.0,1.0,88,0.00,,---,0.00,VWS V14.01,2013-05-18 05:35:00,
2013-05-18 01:36:00,48.6,45.2,30.22,WSW,238,0.0,0.0,88,0.00,,---,0.00,VWS V14.01,2013-05-18 05:36:00,
2013-05-18 01:37:00,48.6,45.2,30.22,WSW,238,0.0,0.0,88,0.00,,---,0.00,VWS V14.01,2013-05-18 05:37:00,
2013-05-18 01:38:00,48.6,45.2,30.22,WSW,238,0.0,0.0,88,0.00,,---,0.00,VWS V14.01,2013-05-18 05:38:00,
2013-05-18 01:39:00,48.6,45.2,30.22,WSW,238,0.0,0.0,88,0.00,,---,0.00,VWS V14.01,2013-05-18 05:39:00,
2013-05-18 01:40:00,48.8,45.4,30.22,WSW,238,1.0,1.0,88,0.00,,---,0.00,VWS V14.01,2013-05-18 05:40:00,
2013-05-18 01:41:00,48.8,45.4,30.22,WSW,238,0.0,1.0,88,0.00,,---,0.00,VWS V14.01,2013-05-18 05:41:00,
2013-05-18 01:42:00,48.8,45.4,30.22,WSW,238,0.0,1.0,88,0.00,,---,0.00,VWS V14.01,2013-05-18 05:42:00,
2013-05-18 01:43:00,48.8,45.4,30.22,WSW,238,0.0,1.0,88,0.00,,---,0.00,VWS V14.01,2013-05-18 05:43:00,
2013-05-18 01:44:00,48.8,45.4,30.22,WSW,238,0.0,1.0,88,0.00,,---,0.00,VWS V14.01,2013-05-18 05:44:00,
2013-05-18 01:45:00,48.8,45.4,30.22,WSW,238,0.0,1.0,88,0.00,,---,0.00,VWS V14.01,2013-05-18 05:45:00,
2013-05-18 01:46:00,48.8,45.4,30.22,WSW,238,0.0,1.0,88,0.00,,---,0.00,VWS V14.01,2013-05-18 05:46:00,
2013-05-18 01:47:00,48.8,45.4,30.22,WSW,238,0.0,1.0,88,0.00,,---,0.00,VWS V14.01,2013-05-18 05:47:00,
2013-05-18 01:48:00,48.8,45.4,30.22,WSW,238,0.0,1.0,88,0.00,,---,0.00,VWS V14.01,2013-05-18 05:48:00,
2013-05-18 01:49:00,48.8,45.4,30.22,WSW,238,0.0,1.0,88,0.00,,---,0.00,VWS V14.01,2013-05-18 05:49:00,
2013-05-18 01:50:00,48.8,45.4,30.22,WSW,238,0.0,1.0,88,0.00,,---,0.00,VWS V14.01,2013-05-18 05:50:00,
2013-05-18 01:51:00,48.8,45.4,30.22,WSW,238,0.0,0.0,88,0.00,,---,0.00,VWS V14.01,2013-05-18 05:51:00,
2013-05-18 01:52:00,48.8,45.4,30.22,WSW,238,0.0,0.0,88,0.00,,---,0.00,VWS V14.01,2013-05-18 05:52:00,
2013-05-18 01:53:00,48.8,45.4,30.22,WSW,238,0.0,0.0,88,0.00,,---,0.00,VWS V14.01,2013-05-18 05:53:00,
2013-05-18 01:54:00,48.8,45.4,30.22,WSW,238,0.0,0.0,88,0.00,,---,0.00,VWS V14.01,2013-05-18 05:54:00,
2013-05-18 01:55:00,48.8,45.4,30.22,WSW,238,0.0,0.0,88,0.00,,---,0.00,VWS V14.01,2013-05-18 05:55:00,
2013-05-18 01:56:00,48.8,45.1,30.22,WSW,238,0.0,0.0,87,0.00,,---,0.00,VWS V14.01,2013-05-18 05:56:00,
2013-05-18 01:57:00,48.8,45.4,30.22,WSW,238,0.0,0.0,88,0.00,,---,0.00,VWS V14.01,2013-05-18 05:57:00,
2013-05-18 01:58:00,48.8,45.4,30.22,WSW,238,0.0,0.0,88,0.00,,---,0.00,VWS V14.01,2013-05-18 05:58:00,
2013-05-18 01:59:00,48.8,45.1,30.22,WSW,238,0.0,0.0,87,0.00,,---,0.00,VWS V14.01,2013-05-18 05:59:00,
2013-05-18 02:00:00,48.8,45.1,30.22,WSW,238,0.0,0.0,87,0.00,,---,0.00,VWS V14.01,2013-05-18 06:00:00,
2013-05-18 02:01:00,48.6,44.9,30.22,WSW,238,0.0,0.0,87,0.00,,---,0.00,VWS V14.01,2013-05-18 06:01:00,
2013-05-18 02:02:00,48.6,44.9,30.22,WSW,238,0.0,0.0,87,0.00,,---,0.00,VWS V14.01,2013-05-18 06:02:00,
2013-05-18 02:03:00,48.6,44.9,30.22,WSW,238,0.0,0.0,87,0.00,,---,0.00,VWS V14.01,2013-05-18 06:03:00,
2013-05-18 02:04:00,48.6,44.9,30.22,WSW,238,0.0,0.0,87,0.00,,---,0.00,VWS V14.01,2013-05-18 06:04:00,
2013-05-18 02:05:00,48.6,44.9,30.22,WSW,238,0.0,0.0,87,0.00,,---,0.00,VWS V14.01,2013-05-18 06:05:00,
2013-05-18 02:06:00,48.6,44.9,30.22,WSW,238,0.0,0.0,87,0.00,,---,0.00,VWS V14.01,2013-05-18 06:06:00,
2013-05-18 02:07:00,48.6,44.9,30.22,WSW,238,0.0,0.0,87,0.00,,---,0.00,VWS V14.01,2013-05-18 06:07:00,
2013-05-18 02:08:00,48.6,44.9,30.22,WSW,238,0.0,0.0,87,0.00,,---,0.00,VWS V14.01,2013-05-18 06:08:00,
2013-05-18 02:09:00,48.5,44.8,30.22,WSW,238,0.0,0.0,87,0.00,,---,0.00,VWS V14.01,2013-05-18 06:09:00,
2013-05-18 02:10:00,48.5,44.8,30.22,WSW,238,0.0,0.0,87,0.00,,---,0.00,VWS V14.01,2013-05-18 06:10:00,
2013-05-18 02:11:00,48.5,44.8,30.22,WSW,238,0.0,0.0,87,0.00,,---,0.00,VWS V14.01,2013-05-18 06:11:00,
2013-05-18 02:12:00,48.5,44.8,30.22,WSW,238,0.0,0.0,87,0.00,,---,0.00,VWS V14.01,2013-05-18 06:12:00,
2013-05-18 02:13:00,48.5,44.8,30.22,WSW,238,0.0,0.0,87,0.00,,---,0.00,VWS V14.01,2013-05-18 06:13:00,
2013-05-18 02:14:00,48.5,44.8,30.22,WSW,238,0.0,0.0,87,0.00,,---,0.00,VWS V14.01,2013-05-18 06:14:00,
2013-05-18 02:15:00,48.5,44.8,30.22,WSW,238,0.0,0.0,87,0.00,,---,0.00,VWS V14.01,2013-05-18 06:15:00,
2013-05-18 02:16:00,48.5,44.8,30.22,WSW,238,0.0,0.0,87,0.00,,---,0.00,VWS V14.01,2013-05-18 06:16:00,
2013-05-18 02:17:00,48.5,44.8,30.22,WSW,238,0.0,0.0,87,0.00,,---,0.00,VWS V14.01,2013-05-18 06:17:00,
2013-05-18 02:18:00,48.3,44.6,30.22,WSW,238,0.0,0.0,87,0.00,,---,0.00,VWS V14.01,2013-05-18 06:18:00,
2013-05-18 02:19:00,48.3,44.6,30.22,WSW,238,0.0,0.0,87,0.00,,---,0.00,VWS V14.01,2013-05-18 06:19:00,
2013-05-18 02:20:00,48.3,44.6,30.22,WSW,238,0.0,0.0,87,0.00,,---,0.00,VWS V14.01,2013-05-18 06:20:00,
2013-05-18 02:21:00,48.3,44.6,30.22,WSW,238,0.0,0.0,87,0.00,,---,0.00,VWS V14.01,2013-05-18 06:21:00,
2013-05-18 02:22:00,48.3,44.6,30.22,WSW,238,0.0,0.0,87,0.00,,---,0.00,VWS V14.01,2013-05-18 06:22:00,
2013-05-18 02:23:00,48.3,44.9,30.22,WSW,238,0.0,0.0,88,0.00,,---,0.00,VWS V14.01,2013-05-18 06:23:00,
2013-05-18 02:24:00,48.3,44.9,30.22,WSW,238,0.0,0.0,88,0.00,,---,0.00,VWS V14.01,2013-05-18 06:24:00,
2013-05-18 02:25:00,48.3,44.9,30.22,WSW,238,0.0,0.0,88,0.00,,---,0.00,VWS V14.01,2013-05-18 06:25:00,
2013-05-18 02:26:00,48.3,44.9,30.22,WSW,238,0.0,0.0,88,0.00,,---,0.00,VWS V14.01,2013-05-18 06:26:00,
2013-05-18 02:27:00,48.3,44.9,30.22,WSW,238,0.0,0.0,88,0.00,,---,0.00,VWS V14.01,2013-05-18 06:27:00,
2013-05-18 02:28:00,48.2,44.8,30.22,WSW,238,0.0,0.0,88,0.00,,---,0.00,VWS V14.01,2013-05-18 06:28:00,
2013-05-18 02:29:00,48.2,44.8,30.22,WSW,238,0.0,0.0,88,0.00,,---,0.00,VWS V14.01,2013-05-18 06:29:00,
2013-05-18 02:30:00,48.2,44.8,30.22,WSW,238,0.0,0.0,88,0.00,,---,0.00,VWS V14.01,2013-05-18 06:30:00,
2013-05-18 02:31:00,48.2,44.8,30.22,WSW,238,0.0,0.0,88,0.00,,---,0.00,VWS V14.01,2013-05-18 06:31:00,
2013-05-18 02:32:00,48.2,44.8,30.22,WSW,238,0.0,0.0,88,0.00,,---,0.00,VWS V14.01,2013-05-18 06:32:00,
2013-05-18 02:33:00,48.2,44.8,30.22,WSW,238,0.0,0.0,88,0.00,,---,0.00,VWS V14.01,2013-05-18 06:33:00,
2013-05-18 02:34:00,48.2,44.8,30.22,WSW,238,0.0,0.0,88,0.00,,---,0.00,VWS V14.01,2013-05-18 06:34:00,
2013-05-18 02:35:00,48.0,44.6,30.22,WSW,238,0.0,0.0,88,0.00,,---,0.00,VWS V14.01,2013-05-18 06:35:00,
2013-05-18 02:36:00,48.0,44.6,30.22,WSW,238,0.0,0.0,88,0.00,,---,0.00,VWS V14.01,2013-05-18 06:36:00,
2013-05-18 02:37:00,48.0,44.6,30.22,WSW,238,0.0,0.0,88,0.00,,---,0.00,VWS V14.01,2013-05-18 06:37:00,
2013-05-18 02:38:00,48.0,44.6,30.22,WSW,238,0.0,0.0,88,0.00,,---,0.00,VWS V14.01,2013-05-18 06:38:00,
2013-05-18 02:39:00,48.0,44.6,30.22,WSW,238,0.0,0.0,88,0.00,,---,0.00,VWS V14.01,2013-05-18 06:39:00,
2013-05-18 02:40:00,48.0,44.6,30.22,WSW,238,0.0,0.0,88,0.00,,---,0.00,VWS V14.01,2013-05-18 06:40:00,
2013-05-18 02:41:00,47.9,44.5,30.22,WSW,238,0.0,0.0,88,0.00,,---,0.00,VWS V14.01,2013-05-18 06:41:00,
2013-05-18 02:42:00,47.9,44.5,30.22,WSW,238,0.0,0.0,88,0.00,,---,0.00,VWS V14.01,2013-05-18 06:42:00,
2013-05-18 02:43:00,47.9,44.8,30.22,WSW,238,0.0,0.0,89,0.00,,---,0.00,VWS V14.01,2013-05-18 06:43:00,
2013-05-18 02:44:00,47.9,44.5,30.22,WSW,238,0.0,0.0,88,0.00,,---,0.00,VWS V14.01,2013-05-18 06:44:00,
2013-05-18 02:45:00,47.9,44.8,30.23,WSW,238,0.0,0.0,89,0.00,,---,0.00,VWS V14.01,2013-05-18 06:45:00,
2013-05-18 02:46:00,47.9,44.8,30.23,WSW,238,0.0,0.0,89,0.00,,---,0.00,VWS V14.01,2013-05-18 06:46:00,
2013-05-18 02:47:00,47.7,44.6,30.23,WSW,238,0.0,0.0,89,0.00,,---,0.00,VWS V14.01,2013-05-18 06:47:00,
2013-05-18 02:48:00,47.7,44.6,30.23,WSW,238,0.0,0.0,89,0.00,,---,0.00,VWS V14.01,2013-05-18 06:48:00,
2013-05-18 02:49:00,47.7,44.6,30.23,WSW,238,0.0,0.0,89,0.00,,---,0.00,VWS V14.01,2013-05-18 06:49:00,
2013-05-18 02:50:00,47.7,44.6,30.23,WSW,238,0.0,0.0,89,0.00,,---,0.00,VWS V14.01,2013-05-18 06:50:00,
2013-05-18 02:51:00,47.7,44.6,30.23,WSW,238,0.0,0.0,89,0.00,,---,0.00,VWS V14.01,2013-05-18 06:51:00,
2013-05-18 02:52:00,47.7,44.6,30.23,WSW,238,0.0,0.0,89,0.00,,---,0.00,VWS V14.01,2013-05-18 06:52:00,
2013-05-18 02:53:00,47.6,44.5,30.23,WSW,238,0.0,0.0,89,0.00,,---,0.00,VWS V14.01,2013-05-18 06:53:00,
2013-05-18 02:54:00,47.6,44.5,30.23,WSW,238,0.0,0.0,89,0.00,,---,0.00,VWS V14.01,2013-05-18 06:54:00,
2013-05-18 02:55:00,47.6,44.5,30.23,WSW,238,0.0,0.0,89,0.00,,---,0.00,VWS V14.01,2013-05-18 06:55:00,
2013-05-18 02:56:00,47.6,44.5,30.23,WSW,238,0.0,0.0,89,0.00,,---,0.00,VWS V14.01,2013-05-18 06:56:00,
2013-05-18 02:57:00,47.6,44.5,30.23,WSW,238,0.0,0.0,89,0.00,,---,0.00,VWS V14.01,2013-05-18 06:57:00,
2013-05-18 02:58:00,47.6,44.5,30.23,WSW,238,0.0,0.0,89,0.00,,---,0.00,VWS V14.01,2013-05-18 06:58:00,
2013-05-18 02:59:00,47.6,44.5,30.23,WSW,238,0.0,0.0,89,0.00,,---,0.00,VWS V14.01,2013-05-18 06:59:00,
2013-05-18 03:00:00,47.6,44.5,30.23,WSW,238,0.0,0.0,89,0.00,,---,0.00,VWS V14.01,2013-05-18 07:00:00,
2013-05-18 03:01:00,47.6,44.5,30.23,WSW,238,0.0,0.0,89,0.00,,---,0.00,VWS V14.01,2013-05-18 07:01:00,
2013-05-18 03:02:00,47.4,44.3,30.23,WSW,238,0.0,0.0,89,0.00,,---,0.00,VWS V14.01,2013-05-18 07:02:00,
2013-05-18 03:03:00,47.4,44.6,30.23,WSW,238,0.0,0.0,90,0.00,,---,0.00,VWS V14.01,2013-05-18 07:03:00,
2013-05-18 03:04:00,47.4,44.6,30.23,WSW,238,0.0,0.0,90,0.00,,---,0.00,VWS V14.01,2013-05-18 07:04:00,
2013-05-18 03:05:00,47.4,44.6,30.23,WSW,238,0.0,0.0,90,0.00,,---,0.00,VWS V14.01,2013-05-18 07:05:00,
2013-05-18 03:06:00,47.4,44.6,30.23,WSW,238,0.0,0.0,90,0.00,,---,0.00,VWS V14.01,2013-05-18 07:06:00,
2013-05-18 03:07:00,47.4,44.6,30.23,WSW,238,0.0,0.0,90,0.00,,---,0.00,VWS V14.01,2013-05-18 07:07:00,
2013-05-18 03:08:00,47.4,44.6,30.23,WSW,238,0.0,0.0,90,0.00,,---,0.00,VWS V14.01,2013-05-18 07:08:00,
2013-05-18 03:09:00,47.4,44.6,30.23,WSW,238,0.0,0.0,90,0.00,,---,0.00,VWS V14.01,2013-05-18 07:09:00,
2013-05-18 03:10:00,47.4,44.6,30.23,WSW,238,0.0,0.0,90,0.00,,---,0.00,VWS V14.01,2013-05-18 07:10:00,
2013-05-18 03:11:00,47.4,44.6,30.23,WSW,238,0.0,0.0,90,0.00,,---,0.00,VWS V14.01,2013-05-18 07:11:00,
2013-05-18 03:12:00,47.4,44.6,30.23,WSW,238,0.0,0.0,90,0.00,,---,0.00,VWS V14.01,2013-05-18 07:12:00,
2013-05-18 03:13:00,47.3,44.5,30.23,WSW,238,0.0,0.0,90,0.00,,---,0.00,VWS V14.01,2013-05-18 07:13:00,
2013-05-18 03:14:00,47.3,44.5,30.23,WSW,238,0.0,0.0,90,0.00,,---,0.00,VWS V14.01,2013-05-18 07:14:00,
2013-05-18 03:15:00,47.3,44.5,30.23,WSW,238,0.0,0.0,90,0.00,,---,0.00,VWS V14.01,2013-05-18 07:15:00,
2013-05-18 03:16:00,47.3,44.5,30.23,WSW,238,0.0,0.0,90,0.00,,---,0.00,VWS V14.01,2013-05-18 07:16:00,
2013-05-18 03:17:00,47.3,44.5,30.23,WSW,238,0.0,0.0,90,0.00,,---,0.00,VWS V14.01,2013-05-18 07:17:00,
2013-05-18 03:18:00,47.3,44.5,30.23,WSW,238,0.0,0.0,90,0.00,,---,0.00,VWS V14.01,2013-05-18 07:18:00,
2013-05-18 03:19:00,47.3,44.5,30.23,WSW,238,0.0,0.0,90,0.00,,---,0.00,VWS V14.01,2013-05-18 07:19:00,
2013-05-18 03:20:00,47.3,44.5,30.23,WSW,238,0.0,0.0,90,0.00,,---,0.00,VWS V14.01,2013-05-18 07:20:00,
2013-05-18 03:21:00,47.3,44.5,30.23,WSW,238,0.0,0.0,90,0.00,,---,0.00,VWS V14.01,2013-05-18 07:21:00,
2013-05-18 03:22:00,47.3,44.5,30.23,WSW,238,0.0,0.0,90,0.00,,---,0.00,VWS V14.01,2013-05-18 07:22:00,
2013-05-18 03:23:00,47.3,44.5,30.23,WSW,238,0.0,0.0,90,0.00,,---,0.00,VWS V14.01,2013-05-18 07:23:00,
2013-05-18 03:24:00,47.1,44.3,30.23,WSW,238,0.0,0.0,90,0.00,,---,0.00,VWS V14.01,2013-05-18 07:24:00,
2013-05-18 03:25:00,47.1,44.3,30.23,WSW,238,0.0,0.0,90,0.00,,---,0.00,VWS V14.01,2013-05-18 07:25:00,
2013-05-18 03:26:00,47.1,44.3,30.23,WSW,238,0.0,0.0,90,0.00,,---,0.00,VWS V14.01,2013-05-18 07:26:00,
2013-05-18 03:27:00,47.1,44.3,30.23,WSW,238,0.0,0.0,90,0.00,,---,0.00,VWS V14.01,2013-05-18 07:27:00,
2013-05-18 03:28:00,47.1,44.3,30.23,WSW,238,0.0,0.0,90,0.00,,---,0.00,VWS V14.01,2013-05-18 07:28:00,
2013-05-18 03:29:00,47.1,44.3,30.23,WSW,238,0.0,0.0,90,0.00,,---,0.00,VWS V14.01,2013-05-18 07:29:00,
2013-05-18 03:30:00,47.1,44.3,30.24,WSW,238,0.0,0.0,90,0.00,,---,0.00,VWS V14.01,2013-05-18 07:30:00,
2013-05-18 03:31:00,47.1,44.6,30.24,WSW,238,0.0,0.0,91,0.00,,---,0.00,VWS V14.01,2013-05-18 07:31:00,
2013-05-18 03:32:00,47.1,44.6,30.24,WSW,238,0.0,0.0,91,0.00,,---,0.00,VWS V14.01,2013-05-18 07:32:00,
2013-05-18 03:33:00,47.1,44.6,30.24,WSW,238,0.0,0.0,91,0.00,,---,0.00,VWS V14.01,2013-05-18 07:33:00,
2013-05-18 03:34:00,47.0,44.5,30.24,WSW,238,0.0,0.0,91,0.00,,---,0.00,VWS V14.01,2013-05-18 07:34:00,
2013-05-18 03:35:00,47.0,44.5,30.24,WSW,238,0.0,0.0,91,0.00,,---,0.00,VWS V14.01,2013-05-18 07:35:00,
2013-05-18 03:36:00,47.0,44.5,30.24,WSW,238,0.0,0.0,91,0.00,,---,0.00,VWS V14.01,2013-05-18 07:36:00,
2013-05-18 03:37:00,47.0,44.5,30.24,WSW,238,0.0,0.0,91,0.00,,---,0.00,VWS V14.01,2013-05-18 07:37:00,
2013-05-18 03:38:00,47.0,44.5,30.24,WSW,238,0.0,0.0,91,0.00,,---,0.00,VWS V14.01,2013-05-18 07:38:00,
2013-05-18 03:39:00,47.0,44.5,30.24,WSW,238,0.0,0.0,91,0.00,,---,0.00,VWS V14.01,2013-05-18 07:39:00,
2013-05-18 03:40:00,47.0,44.5,30.24,WSW,238,0.0,0.0,91,0.00,,---,0.00,VWS V14.01,2013-05-18 07:40:00,
2013-05-18 03:41:00,47.0,44.5,30.24,WSW,238,0.0,0.0,91,0.00,,---,0.00,VWS V14.01,2013-05-18 07:41:00,
2013-05-18 03:42:00,47.0,44.5,30.24,WSW,238,0.0,0.0,91,0.00,,---,0.00,VWS V14.01,2013-05-18 07:42:00,
2013-05-18 03:43:00,47.0,44.5,30.24,WSW,238,0.0,0.0,91,0.00,,---,0.00,VWS V14.01,2013-05-18 07:43:00,
2013-05-18 03:44:00,47.0,44.5,30.24,WSW,238,0.0,0.0,91,0.00,,---,0.00,VWS V14.01,2013-05-18 07:44:00,
2013-05-18 03:45:00,47.0,44.5,30.24,WSW,238,0.0,0.0,91,0.00,,---,0.00,VWS V14.01,2013-05-18 07:45:00,
2013-05-18 03:46:00,47.0,44.5,30.24,WSW,238,0.0,0.0,91,0.00,,---,0.00,VWS V14.01,2013-05-18 07:46:00,
2013-05-18 03:47:00,47.0,44.5,30.24,WSW,238,0.0,0.0,91,0.00,,---,0.00,VWS V14.01,2013-05-18 07:47:00,
2013-05-18 03:48:00,46.8,44.3,30.24,WSW,238,0.0,0.0,91,0.00,,---,0.00,VWS V14.01,2013-05-18 07:48:00,
2013-05-18 03:49:00,46.8,44.3,30.24,WSW,238,0.0,0.0,91,0.00,,---,0.00,VWS V14.01,2013-05-18 07:49:00,
2013-05-18 03:50:00,46.8,44.3,30.24,WSW,238,0.0,0.0,91,0.00,,---,0.00,VWS V14.01,2013-05-18 07:50:00,
2013-05-18 03:51:00,46.8,44.3,30.24,WSW,238,0.0,0.0,91,0.00,,---,0.00,VWS V14.01,2013-05-18 07:51:00,
2013-05-18 03:52:00,46.8,44.3,30.24,WSW,238,0.0,0.0,91,0.00,,---,0.00,VWS V14.01,2013-05-18 07:52:00,
2013-05-18 03:53:00,46.8,44.3,30.24,WSW,238,0.0,0.0,91,0.00,,---,0.00,VWS V14.01,2013-05-18 07:53:00,
2013-05-18 03:54:00,46.8,44.3,30.24,WSW,238,0.0,0.0,91,0.00,,---,0.00,VWS V14.01,2013-05-18 07:54:00,
2013-05-18 03:55:00,46.8,44.3,30.24,WSW,238,0.0,0.0,91,0.00,,---,0.00,VWS V14.01,2013-05-18 07:55:00,
2013-05-18 03:56:00,46.8,44.3,30.24,WSW,238,0.0,0.0,91,0.00,,---,0.00,VWS V14.01,2013-05-18 07:56:00,
2013-05-18 03:57:00,46.8,44.3,30.24,WSW,238,0.0,0.0,91,0.00,,---,0.00,VWS V14.01,2013-05-18 07:57:00,
2013-05-18 03:58:00,46.8,44.3,30.24,WSW,238,0.0,0.0,91,0.00,,---,0.00,VWS V14.01,2013-05-18 07:58:00,
2013-05-18 03:59:00,46.8,44.3,30.24,WSW,238,0.0,0.0,91,0.00,,---,0.00,VWS V14.01,2013-05-18 07:59:00,
2013-05-18 04:00:00,46.7,44.2,30.24,WSW,238,0.0,0.0,91,0.00,,---,0.00,VWS V14.01,2013-05-18 08:00:00,
2013-05-18 04:01:00,46.7,44.2,30.24,WSW,238,0.0,0.0,91,0.00,,---,0.00,VWS V14.01,2013-05-18 08:01:00,
2013-05-18 04:02:00,46.7,44.2,30.24,WSW,238,0.0,0.0,91,0.00,,---,0.00,VWS V14.01,2013-05-18 08:02:00,
2013-05-18 04:03:00,46.7,44.5,30.24,WSW,238,0.0,0.0,92,0.00,,---,0.00,VWS V14.01,2013-05-18 08:03:00,
2013-05-18 04:04:00,46.7,44.5,30.24,WSW,238,0.0,0.0,92,0.00,,---,0.00,VWS V14.01,2013-05-18 08:04:00,
2013-05-18 04:05:00,46.7,44.5,30.24,WSW,238,0.0,0.0,92,0.00,,---,0.00,VWS V14.01,2013-05-18 08:05:00,
2013-05-18 04:06:00,46.5,44.3,30.24,WSW,238,0.0,0.0,92,0.00,,---,0.00,VWS V14.01,2013-05-18 08:06:00,
2013-05-18 04:07:00,46.5,44.3,30.24,WSW,238,0.0,0.0,92,0.00,,---,0.00,VWS V14.01,2013-05-18 08:07:00,
2013-05-18 04:08:00,46.5,44.3,30.24,WSW,238,0.0,0.0,92,0.00,,---,0.00,VWS V14.01,2013-05-18 08:08:00,
2013-05-18 04:09:00,46.5,44.3,30.24,WSW,238,0.0,0.0,92,0.00,,---,0.00,VWS V14.01,2013-05-18 08:09:00,
2013-05-18 04:10:00,46.5,44.3,30.24,WSW,238,0.0,0.0,92,0.00,,---,0.00,VWS V14.01,2013-05-18 08:10:00,
2013-05-18 04:11:00,46.5,44.3,30.24,WSW,238,0.0,0.0,92,0.00,,---,0.00,VWS V14.01,2013-05-18 08:11:00,
2013-05-18 04:12:00,46.4,44.2,30.24,WSW,238,0.0,0.0,92,0.00,,---,0.00,VWS V14.01,2013-05-18 08:12:00,
2013-05-18 04:13:00,46.4,44.2,30.24,WSW,238,0.0,0.0,92,0.00,,---,0.00,VWS V14.01,2013-05-18 08:13:00,
2013-05-18 04:14:00,46.4,44.2,30.24,WSW,238,0.0,0.0,92,0.00,,---,0.00,VWS V14.01,2013-05-18 08:14:00,
2013-05-18 04:15:00,46.4,44.2,30.24,WSW,238,0.0,0.0,92,0.00,,---,0.00,VWS V14.01,2013-05-18 08:15:00,
2013-05-18 04:16:00,46.4,44.2,30.24,WSW,238,0.0,0.0,92,0.00,,---,0.00,VWS V14.01,2013-05-18 08:16:00,
2013-05-18 04:17:00,46.4,44.2,30.24,WSW,238,0.0,0.0,92,0.00,,---,0.00,VWS V14.01,2013-05-18 08:17:00,
2013-05-18 04:18:00,46.4,44.2,30.24,WSW,238,0.0,0.0,92,0.00,,---,0.00,VWS V14.01,2013-05-18 08:18:00,
2013-05-18 04:19:00,46.4,44.2,30.24,WSW,238,0.0,0.0,92,0.00,,---,0.00,VWS V14.01,2013-05-18 08:19:00,
2013-05-18 04:20:00,46.2,44.0,30.24,WSW,238,0.0,0.0,92,0.00,,---,0.00,VWS V14.01,2013-05-18 08:20:00,
2013-05-18 04:21:00,46.2,44.0,30.24,WSW,238,0.0,0.0,92,0.00,,---,0.00,VWS V14.01,2013-05-18 08:21:00,
2013-05-18 04:22:00,46.2,44.0,30.24,WSW,238,0.0,0.0,92,0.00,,---,0.00,VWS V14.01,2013-05-18 08:22:00,
2013-05-18 04:23:00,46.2,44.0,30.24,WSW,238,0.0,0.0,92,0.00,,---,0.00,VWS V14.01,2013-05-18 08:23:00,
2013-05-18 04:24:00,46.2,44.0,30.24,WSW,238,0.0,0.0,92,0.00,,---,0.00,VWS V14.01,2013-05-18 08:24:00,
2013-05-18 04:25:00,46.2,44.0,30.24,WSW,238,0.0,0.0,92,0.00,,---,0.00,VWS V14.01,2013-05-18 08:25:00,
2013-05-18 04:26:00,46.2,44.0,30.24,WSW,238,0.0,0.0,92,0.00,,---,0.00,VWS V14.01,2013-05-18 08:26:00,
2013-05-18 04:27:00,46.2,44.0,30.24,WSW,238,0.0,0.0,92,0.00,,---,0.00,VWS V14.01,2013-05-18 08:27:00,
2013-05-18 04:28:00,46.2,44.0,30.24,WSW,238,0.0,0.0,92,0.00,,---,0.00,VWS V14.01,2013-05-18 08:28:00,
2013-05-18 04:29:00,46.2,44.0,30.24,WSW,238,0.0,0.0,92,0.00,,---,0.00,VWS V14.01,2013-05-18 08:29:00,
2013-05-18 04:30:00,46.2,44.0,30.25,WSW,238,0.0,0.0,92,0.00,,---,0.00,VWS V14.01,2013-05-18 08:30:00,
2013-05-18 04:31:00,46.2,44.0,30.25,WSW,238,0.0,0.0,92,0.00,,---,0.00,VWS V14.01,2013-05-18 08:31:00,
2013-05-18 04:32:00,46.2,44.0,30.25,WSW,238,0.0,0.0,92,0.00,,---,0.00,VWS V14.01,2013-05-18 08:32:00,
2013-05-18 04:33:00,46.1,43.9,30.25,WSW,238,0.0,0.0,92,0.00,,---,0.00,VWS V14.01,2013-05-18 08:33:00,
2013-05-18 04:34:00,46.1,43.9,30.25,WSW,238,0.0,0.0,92,0.00,,---,0.00,VWS V14.01,2013-05-18 08:34:00,
2013-05-18 04:35:00,46.1,44.2,30.25,WSW,238,0.0,0.0,93,0.00,,---,0.00,VWS V14.01,2013-05-18 08:35:00,
2013-05-18 04:36:00,46.1,44.2,30.25,WSW,238,0.0,0.0,93,0.00,,---,0.00,VWS V14.01,2013-05-18 08:36:00,
2013-05-18 04:37:00,46.1,44.2,30.25,WSW,238,0.0,0.0,93,0.00,,---,0.00,VWS V14.01,2013-05-18 08:37:00,
2013-05-18 04:38:00,46.1,44.2,30.25,WSW,238,0.0,1.0,93,0.00,,---,0.00,VWS V14.01,2013-05-18 08:38:00,
2013-05-18 04:39:00,46.1,44.2,30.25,WSW,238,0.0,1.0,93,0.00,,---,0.00,VWS V14.01,2013-05-18 08:39:00,
2013-05-18 04:40:00,46.1,44.2,30.25,WSW,238,0.0,1.0,93,0.00,,---,0.00,VWS V14.01,2013-05-18 08:40:00,
2013-05-18 04:41:00,46.1,44.2,30.25,WSW,238,0.0,0.0,93,0.00,,---,0.00,VWS V14.01,2013-05-18 08:41:00,
2013-05-18 04:42:00,46.1,44.2,30.25,WSW,238,0.0,0.0,93,0.00,,---,0.00,VWS V14.01,2013-05-18 08:42:00,
2013-05-18 04:43:00,46.1,44.2,30.25,WSW,238,0.0,0.0,93,0.00,,---,0.00,VWS V14.01,2013-05-18 08:43:00,
2013-05-18 04:44:00,46.0,44.1,30.25,WSW,238,0.0,0.0,93,0.00,,---,0.00,VWS V14.01,2013-05-18 08:44:00,
2013-05-18 04:45:00,46.0,44.1,30.26,WSW,238,0.0,0.0,93,0.00,,---,0.00,VWS V14.01,2013-05-18 08:45:00,
2013-05-18 04:46:00,46.0,44.1,30.26,WSW,238,0.0,0.0,93,0.00,,---,0.00,VWS V14.01,2013-05-18 08:46:00,
2013-05-18 04:47:00,46.0,44.1,30.26,WSW,238,0.0,0.0,93,0.00,,---,0.00,VWS V14.01,2013-05-18 08:47:00,
2013-05-18 04:48:00,46.0,44.1,30.26,WSW,238,0.0,0.0,93,0.00,,---,0.00,VWS V14.01,2013-05-18 08:48:00,
2013-05-18 04:49:00,46.0,44.1,30.26,WSW,238,0.0,0.0,93,0.00,,---,0.00,VWS V14.01,2013-05-18 08:49:00,
2013-05-18 04:50:00,46.0,44.1,30.26,WSW,238,0.0,0.0,93,0.00,,---,0.00,VWS V14.01,2013-05-18 08:50:00,
2013-05-18 04:51:00,46.0,44.1,30.26,WSW,238,0.0,0.0,93,0.00,,---,0.00,VWS V14.01,2013-05-18 08:51:00,
2013-05-18 04:52:00,46.0,44.1,30.26,WSW,238,0.0,0.0,93,0.00,,---,0.00,VWS V14.01,2013-05-18 08:52:00,
2013-05-18 04:53:00,45.8,43.9,30.26,WSW,238,0.0,0.0,93,0.00,,---,0.00,VWS V14.01,2013-05-18 08:53:00,
2013-05-18 04:54:00,45.8,43.9,30.26,WSW,238,0.0,0.0,93,0.00,,---,0.00,VWS V14.01,2013-05-18 08:54:00,
2013-05-18 04:55:00,45.8,43.9,30.26,WSW,238,0.0,0.0,93,0.00,,---,0.00,VWS V14.01,2013-05-18 08:55:00,
2013-05-18 04:56:00,45.8,43.9,30.26,WSW,238,0.0,0.0,93,0.00,,---,0.00,VWS V14.01,2013-05-18 08:56:00,
2013-05-18 04:57:00,45.8,43.9,30.26,WSW,238,0.0,0.0,93,0.00,,---,0.00,VWS V14.01,2013-05-18 08:57:00,
2013-05-18 04:58:00,45.8,43.9,30.26,WSW,238,0.0,0.0,93,0.00,,---,0.00,VWS V14.01,2013-05-18 08:58:00,
2013-05-18 04:59:00,45.8,43.9,30.26,WSW,238,0.0,0.0,93,0.00,,---,0.00,VWS V14.01,2013-05-18 08:59:00,
2013-05-18 05:00:00,45.8,43.9,30.26,WSW,238,0.0,0.0,93,0.00,,---,0.00,VWS V14.01,2013-05-18 09:00:00,
2013-05-18 05:01:00,45.8,43.9,30.26,WSW,238,0.0,0.0,93,0.00,,---,0.00,VWS V14.01,2013-05-18 09:01:00,
2013-05-18 05:02:00,45.8,43.9,30.26,WSW,238,0.0,0.0,93,0.00,,---,0.00,VWS V14.01,2013-05-18 09:02:00,
2013-05-18 05:03:00,45.8,43.9,30.26,WSW,238,0.0,0.0,93,0.00,,---,0.00,VWS V14.01,2013-05-18 09:03:00,
2013-05-18 05:04:00,45.8,43.9,30.26,WSW,238,0.0,0.0,93,0.00,,---,0.00,VWS V14.01,2013-05-18 09:04:00,
2013-05-18 05:05:00,45.8,43.9,30.26,WSW,238,0.0,0.0,93,0.00,,---,0.00,VWS V14.01,2013-05-18 09:05:00,
2013-05-18 05:06:00,45.8,43.9,30.26,WSW,238,0.0,0.0,93,0.00,,---,0.00,VWS V14.01,2013-05-18 09:06:00,
2013-05-18 05:07:00,45.8,44.2,30.26,WSW,238,0.0,0.0,94,0.00,,---,0.00,VWS V14.01,2013-05-18 09:07:00,
2013-05-18 05:08:00,45.8,44.2,30.26,WSW,238,0.0,0.0,94,0.00,,---,0.00,VWS V14.01,2013-05-18 09:08:00,
2013-05-18 05:09:00,45.8,44.2,30.26,WSW,238,0.0,0.0,94,0.00,,---,0.00,VWS V14.01,2013-05-18 09:09:00,
2013-05-18 05:10:00,45.8,44.2,30.26,WSW,238,0.0,0.0,94,0.00,,---,0.00,VWS V14.01,2013-05-18 09:10:00,
2013-05-18 05:11:00,45.8,44.2,30.26,WSW,238,0.0,0.0,94,0.00,,---,0.00,VWS V14.01,2013-05-18 09:11:00,
2013-05-18 05:12:00,45.8,44.2,30.26,WSW,238,0.0,0.0,94,0.00,,---,0.00,VWS V14.01,2013-05-18 09:12:00,
2013-05-18 05:13:00,45.8,44.2,30.26,WSW,238,0.0,0.0,94,0.00,,---,0.00,VWS V14.01,2013-05-18 09:13:00,
2013-05-18 05:14:00,45.8,44.2,30.26,WSW,238,0.0,0.0,94,0.00,,---,0.00,VWS V14.01,2013-05-18 09:14:00,
2013-05-18 05:15:00,45.8,44.2,30.26,WSW,238,0.0,0.0,94,0.00,,---,0.00,VWS V14.01,2013-05-18 09:15:00,
2013-05-18 05:16:00,45.8,44.2,30.26,WSW,238,0.0,0.0,94,0.00,,---,0.00,VWS V14.01,2013-05-18 09:16:00,
2013-05-18 05:17:00,45.8,44.2,30.26,WSW,238,0.0,0.0,94,0.00,,---,0.00,VWS V14.01,2013-05-18 09:17:00,
2013-05-18 05:18:00,45.8,44.2,30.26,WSW,238,0.0,0.0,94,0.00,,---,0.00,VWS V14.01,2013-05-18 09:18:00,
2013-05-18 05:19:00,45.8,44.2,30.26,WSW,238,0.0,0.0,94,0.00,,---,0.00,VWS V14.01,2013-05-18 09:19:00,
2013-05-18 05:20:00,45.8,44.2,30.26,WSW,238,0.0,0.0,94,0.00,,---,0.00,VWS V14.01,2013-05-18 09:20:00,
2013-05-18 05:21:00,45.8,44.2,30.26,WSW,238,0.0,0.0,94,0.00,,---,0.00,VWS V14.01,2013-05-18 09:21:00,
2013-05-18 05:22:00,46.0,44.4,30.26,WSW,238,0.0,0.0,94,0.00,,---,0.00,VWS V14.01,2013-05-18 09:22:00,
2013-05-18 05:23:00,46.0,44.4,30.26,WSW,238,0.0,0.0,94,0.00,,---,0.00,VWS V14.01,2013-05-18 09:23:00,
2013-05-18 05:24:00,46.0,44.4,30.26,WSW,238,0.0,0.0,94,0.00,,---,0.00,VWS V14.01,2013-05-18 09:24:00,
2013-05-18 05:25:00,46.0,44.4,30.26,WSW,238,0.0,0.0,94,0.00,,---,0.00,VWS V14.01,2013-05-18 09:25:00,
2013-05-18 05:26:00,46.1,44.5,30.26,WSW,238,0.0,0.0,94,0.00,,---,0.00,VWS V14.01,2013-05-18 09:26:00,
2013-05-18 05:27:00,46.1,44.5,30.26,WSW,238,0.0,0.0,94,0.00,,---,0.00,VWS V14.01,2013-05-18 09:27:00,
2013-05-18 05:28:00,46.1,44.5,30.26,WSW,238,0.0,0.0,94,0.00,,---,0.00,VWS V14.01,2013-05-18 09:28:00,
2013-05-18 05:29:00,46.2,44.6,30.26,WSW,238,0.0,0.0,94,0.00,,---,0.00,VWS V14.01,2013-05-18 09:29:00,
2013-05-18 05:30:00,46.2,44.6,30.27,WSW,238,0.0,0.0,94,0.00,,---,0.00,VWS V14.01,2013-05-18 09:30:00,
2013-05-18 05:31:00,46.2,44.6,30.27,WSW,238,0.0,0.0,94,0.00,,---,0.00,VWS V14.01,2013-05-18 09:31:00,
2013-05-18 05:32:00,46.2,44.6,30.27,WSW,238,0.0,0.0,94,0.00,,---,0.00,VWS V14.01,2013-05-18 09:32:00,
2013-05-18 05:33:00,46.4,44.8,30.27,WSW,238,0.0,0.0,94,0.00,,---,0.00,VWS V14.01,2013-05-18 09:33:00,
2013-05-18 05:34:00,46.4,44.8,30.27,WSW,238,0.0,0.0,94,0.00,,---,0.00,VWS V14.01,2013-05-18 09:34:00,
2013-05-18 05:35:00,46.5,44.9,30.27,WSW,238,0.0,0.0,94,0.00,,---,0.00,VWS V14.01,2013-05-18 09:35:00,
2013-05-18 05:36:00,46.5,44.9,30.27,WSW,238,0.0,0.0,94,0.00,,---,0.00,VWS V14.01,2013-05-18 09:36:00,
2013-05-18 05:37:00,46.5,44.9,30.27,WSW,238,0.0,0.0,94,0.00,,---,0.00,VWS V14.01,2013-05-18 09:37:00,
2013-05-18 05:38:00,46.7,45.1,30.27,WSW,238,0.0,1.0,94,0.00,,---,0.00,VWS V14.01,2013-05-18 09:38:00,
2013-05-18 05:39:00,46.7,45.1,30.27,WSW,238,0.0,1.0,94,0.00,,---,0.00,VWS V14.01,2013-05-18 09:39:00,
2013-05-18 05:40:00,46.8,45.2,30.27,WSW,238,0.0,1.0,94,0.00,,---,0.00,VWS V14.01,2013-05-18 09:40:00,
2013-05-18 05:41:00,46.8,45.2,30.27,WSW,238,0.0,0.0,94,0.00,,---,0.00,VWS V14.01,2013-05-18 09:41:00,
2013-05-18 05:42:00,47.0,45.4,30.27,WSW,238,0.0,0.0,94,0.00,,---,0.00,VWS V14.01,2013-05-18 09:42:00,
2013-05-18 05:43:00,47.0,45.4,30.27,WSW,238,0.0,1.0,94,0.00,,---,0.00,VWS V14.01,2013-05-18 09:43:00,
2013-05-18 05:44:00,47.1,45.7,30.27,WSW,238,0.0,1.0,95,0.00,,---,0.00,VWS V14.01,2013-05-18 09:44:00,
2013-05-18 05:45:00,47.1,45.7,30.27,WSW,238,0.0,1.0,95,0.00,,---,0.00,VWS V14.01,2013-05-18 09:45:00,
2013-05-18 05:46:00,47.3,45.9,30.27,WSW,238,0.0,0.0,95,0.00,,---,0.00,VWS V14.01,2013-05-18 09:46:00,
2013-05-18 05:47:00,47.4,46.0,30.27,WSW,238,0.0,1.0,95,0.00,,---,0.00,VWS V14.01,2013-05-18 09:47:00,
2013-05-18 05:48:00,47.4,46.0,30.27,WSW,238,0.0,1.0,95,0.00,,---,0.00,VWS V14.01,2013-05-18 09:48:00,
2013-05-18 05:49:00,47.6,46.2,30.27,WSW,238,0.0,1.0,95,0.00,,---,0.00,VWS V14.01,2013-05-18 09:49:00,
2013-05-18 05:50:00,47.6,46.2,30.27,WSW,238,0.0,1.0,95,0.00,,---,0.00,VWS V14.01,2013-05-18 09:50:00,
2013-05-18 05:51:00,47.7,46.3,30.27,WSW,238,0.0,0.0,95,0.00,,---,0.00,VWS V14.01,2013-05-18 09:51:00,
2013-05-18 05:52:00,47.9,46.5,30.27,WSW,238,0.0,0.0,95,0.00,,---,0.00,VWS V14.01,2013-05-18 09:52:00,
2013-05-18 05:53:00,48.0,46.6,30.27,WSW,238,0.0,1.0,95,0.00,,---,0.00,VWS V14.01,2013-05-18 09:53:00,
2013-05-18 05:54:00,48.0,46.6,30.27,WSW,238,0.0,2.0,95,0.00,,---,0.00,VWS V14.01,2013-05-18 09:54:00,
2013-05-18 05:55:00,48.2,46.8,30.27,WSW,238,0.0,2.0,95,0.00,,---,0.00,VWS V14.01,2013-05-18 09:55:00,
2013-05-18 05:56:00,48.3,46.9,30.27,West,271,2.0,2.0,95,0.00,,---,0.00,VWS V14.01,2013-05-18 09:56:00,
2013-05-18 05:57:00,48.5,47.1,30.27,WNW,284,0.0,4.0,95,0.00,,---,0.00,VWS V14.01,2013-05-18 09:57:00,
2013-05-18 05:58:00,48.6,47.2,30.27,WNW,284,1.0,4.0,95,0.00,,---,0.00,VWS V14.01,2013-05-18 09:58:00,
2013-05-18 05:59:00,48.8,47.4,30.27,West,281,2.0,4.0,95,0.00,,---,0.00,VWS V14.01,2013-05-18 09:59:00,
2013-05-18 06:00:00,48.9,47.5,30.27,West,281,0.0,4.0,95,0.00,,---,0.00,VWS V14.01,2013-05-18 10:00:00,
2013-05-18 06:01:00,49.1,47.7,30.27,WNW,288,2.0,7.0,95,0.00,,---,0.00,VWS V14.01,2013-05-18 10:01:00,
2013-05-18 06:02:00,49.4,48.0,30.27,WNW,286,3.0,7.0,95,0.00,,---,0.00,VWS V14.01,2013-05-18 10:02:00,
2013-05-18 06:03:00,49.5,47.8,30.27,West,275,0.0,7.0,94,0.00,,---,0.00,VWS V14.01,2013-05-18 10:03:00,
2013-05-18 06:04:00,49.6,48.0,30.27,West,276,0.0,7.0,94,0.00,,---,0.00,VWS V14.01,2013-05-18 10:04:00,
2013-05-18 06:05:00,49.6,48.0,30.27,West,276,1.0,7.0,94,0.00,,---,0.00,VWS V14.01,2013-05-18 10:05:00,
2013-05-18 06:06:00,49.8,48.2,30.27,WNW,298,1.0,3.0,94,0.00,,---,0.00,VWS V14.01,2013-05-18 10:06:00,
2013-05-18 06:07:00,49.9,48.2,30.27,West,281,3.0,6.0,94,0.00,,---,0.00,VWS V14.01,2013-05-18 10:07:00,
2013-05-18 06:08:00,50.1,48.4,30.27,WNW,284,1.0,6.0,94,0.00,,---,0.00,VWS V14.01,2013-05-18 10:08:00,
2013-05-18 06:09:00,50.2,48.5,30.27,West,276,3.0,6.0,94,0.00,,---,0.00,VWS V14.01,2013-05-18 10:09:00,
2013-05-18 06:10:00,50.4,48.7,30.27,West,277,1.0,6.0,94,0.00,,---,0.00,VWS V14.01,2013-05-18 10:10:00,
2013-05-18 06:11:00,50.5,48.6,30.27,West,277,1.0,1.0,93,0.00,,---,0.00,VWS V14.01,2013-05-18 10:11:00,
2013-05-18 06:12:00,50.7,48.8,30.27,West,278,4.0,5.0,93,0.00,,---,0.00,VWS V14.01,2013-05-18 10:12:00,
2013-05-18 06:13:00,50.8,48.8,30.27,West,277,4.0,5.0,93,0.00,,---,0.00,VWS V14.01,2013-05-18 10:13:00,
2013-05-18 06:14:00,51.0,49.0,30.27,WNW,288,4.0,5.0,93,0.00,,---,0.00,VWS V14.01,2013-05-18 10:14:00,
2013-05-18 06:15:00,51.0,48.8,30.27,West,280,2.0,5.0,92,0.00,,---,0.00,VWS V14.01,2013-05-18 10:15:00,
2013-05-18 06:16:00,51.1,48.9,30.27,West,280,0.0,1.0,92,0.00,,---,0.00,VWS V14.01,2013-05-18 10:16:00,
2013-05-18 06:17:00,51.3,49.1,30.27,West,275,2.0,6.0,92,0.00,,---,0.00,VWS V14.01,2013-05-18 10:17:00,
2013-05-18 06:18:00,51.4,49.2,30.27,West,275,0.0,6.0,92,0.00,,---,0.00,VWS V14.01,2013-05-18 10:18:00,
2013-05-18 06:19:00,51.6,49.1,30.27,West,277,3.0,6.0,91,0.00,,---,0.00,VWS V14.01,2013-05-18 10:19:00,
2013-05-18 06:20:00,51.7,49.2,30.27,West,277,4.0,6.0,91,0.00,,---,0.00,VWS V14.01,2013-05-18 10:20:00,
2013-05-18 06:21:00,51.7,49.2,30.27,West,277,0.0,4.0,91,0.00,,---,0.00,VWS V14.01,2013-05-18 10:21:00,
2013-05-18 06:22:00,51.9,49.1,30.27,West,279,4.0,5.0,90,0.00,,---,0.00,VWS V14.01,2013-05-18 10:22:00,
2013-05-18 06:23:00,52.0,49.2,30.27,West,279,0.0,5.0,90,0.00,,---,0.00,VWS V14.01,2013-05-18 10:23:00,
2013-05-18 06:24:00,52.0,49.2,30.27,West,278,0.0,5.0,90,0.00,,---,0.00,VWS V14.01,2013-05-18 10:24:00,
2013-05-18 06:25:00,52.2,49.4,30.27,West,281,0.0,5.0,90,0.00,,---,0.00,VWS V14.01,2013-05-18 10:25:00,
2013-05-18 06:26:00,52.3,49.5,30.27,West,281,0.0,1.0,90,0.00,,---,0.00,VWS V14.01,2013-05-18 10:26:00,
2013-05-18 06:27:00,52.5,49.7,30.27,West,281,0.0,1.0,90,0.00,,---,0.00,VWS V14.01,2013-05-18 10:27:00,
2013-05-18 06:28:00,52.5,49.7,30.27,West,281,0.0,3.0,90,0.00,,---,0.00,VWS V14.01,2013-05-18 10:28:00,
2013-05-18 06:29:00,52.6,49.8,30.27,West,281,0.0,3.0,90,0.00,,---,0.00,VWS V14.01,2013-05-18 10:29:00,
2013-05-18 06:30:00,52.6,49.5,30.28,West,281,0.0,3.0,89,0.00,,---,0.00,VWS V14.01,2013-05-18 10:30:00,
2013-05-18 06:31:00,52.8,49.7,30.28,West,281,0.0,1.0,89,0.00,,---,0.00,VWS V14.01,2013-05-18 10:31:00,
2013-05-18 06:32:00,52.8,49.7,30.28,West,281,3.0,3.0,89,0.00,,---,0.00,VWS V14.01,2013-05-18 10:32:00,
2013-05-18 06:33:00,52.9,49.5,30.28,West,275,1.0,7.0,88,0.00,,---,0.00,VWS V14.01,2013-05-18 10:33:00,
2013-05-18 06:34:00,52.9,49.5,30.28,West,275,0.0,7.0,88,0.00,,---,0.00,VWS V14.01,2013-05-18 10:34:00,
2013-05-18 06:35:00,53.1,49.7,30.28,West,275,1.0,7.0,88,0.00,,---,0.00,VWS V14.01,2013-05-18 10:35:00,
2013-05-18 06:36:00,53.1,49.3,30.28,West,275,0.0,2.0,87,0.00,,---,0.00,VWS V14.01,2013-05-18 10:36:00,
2013-05-18 06:37:00,53.2,49.4,30.28,West,275,0.0,3.0,87,0.00,,---,0.00,VWS V14.01,2013-05-18 10:37:00,
2013-05-18 06:38:00,53.3,49.5,30.28,West,275,4.0,4.0,87,0.00,,---,0.00,VWS V14.01,2013-05-18 10:38:00,
2013-05-18 06:39:00,53.3,49.5,30.28,West,275,0.0,4.0,87,0.00,,---,0.00,VWS V14.01,2013-05-18 10:39:00,
2013-05-18 06:40:00,53.5,49.7,30.28,West,275,0.0,4.0,87,0.00,,---,0.00,VWS V14.01,2013-05-18 10:40:00,
2013-05-18 06:41:00,53.5,49.4,30.28,West,275,0.0,2.0,86,0.00,,---,0.00,VWS V14.01,2013-05-18 10:41:00,
2013-05-18 06:42:00,53.6,49.5,30.28,West,275,0.0,2.0,86,0.00,,---,0.00,VWS V14.01,2013-05-18 10:42:00,
2013-05-18 06:43:00,53.8,49.7,30.28,West,275,0.0,2.0,86,0.00,,---,0.00,VWS V14.01,2013-05-18 10:43:00,
2013-05-18 06:44:00,53.8,49.7,30.28,West,275,0.0,2.0,86,0.00,,---,0.00,VWS V14.01,2013-05-18 10:44:00,
2013-05-18 06:45:00,53.9,49.8,30.29,West,275,1.0,3.0,86,0.00,,---,0.00,VWS V14.01,2013-05-18 10:45:00,
2013-05-18 06:46:00,53.9,49.8,30.29,West,275,0.0,2.0,86,0.00,,---,0.00,VWS V14.01,2013-05-18 10:46:00,
2013-05-18 06:47:00,54.1,50.0,30.29,West,275,0.0,2.0,86,0.00,,---,0.00,VWS V14.01,2013-05-18 10:47:00,
2013-05-18 06:48:00,54.1,49.7,30.29,West,275,0.0,2.0,85,0.00,,---,0.00,VWS V14.01,2013-05-18 10:48:00,
2013-05-18 06:49:00,54.2,49.8,30.29,WNW,284,1.0,5.0,85,0.00,,---,0.00,VWS V14.01,2013-05-18 10:49:00,
2013-05-18 06:50:00,54.2,49.8,30.29,West,274,0.0,5.0,85,0.00,,---,0.00,VWS V14.01,2013-05-18 10:50:00,
2013-05-18 06:51:00,54.4,49.7,30.29,West,274,0.0,2.0,84,0.00,,---,0.00,VWS V14.01,2013-05-18 10:51:00,
2013-05-18 06:52:00,54.4,49.7,30.29,West,274,0.0,2.0,84,0.00,,---,0.00,VWS V14.01,2013-05-18 10:52:00,
2013-05-18 06:53:00,54.5,49.8,30.29,West,274,0.0,4.0,84,0.00,,---,0.00,VWS V14.01,2013-05-18 10:53:00,
2013-05-18 06:54:00,54.5,49.8,30.29,West,274,2.0,4.0,84,0.00,,---,0.00,VWS V14.01,2013-05-18 10:54:00,
2013-05-18 06:55:00,54.7,49.7,30.29,WNW,291,6.0,7.0,83,0.00,,---,0.00,VWS V14.01,2013-05-18 10:55:00,
2013-05-18 06:56:00,54.7,49.7,30.29,WNW,291,0.0,5.0,83,0.00,,---,0.00,VWS V14.01,2013-05-18 10:56:00,
2013-05-18 06:57:00,54.8,49.7,30.29,West,277,3.0,6.0,83,0.00,,---,0.00,VWS V14.01,2013-05-18 10:57:00,
2013-05-18 06:58:00,54.8,49.4,30.29,West,275,1.0,6.0,82,0.00,,---,0.00,VWS V14.01,2013-05-18 10:58:00,
2013-05-18 06:59:00,55.0,49.6,30.29,West,275,0.0,6.0,82,0.00,,---,0.00,VWS V14.01,2013-05-18 10:59:00,
2013-05-18 07:00:00,55.1,49.7,30.29,West,275,0.0,6.0,82,0.00,,---,0.00,VWS V14.01,2013-05-18 11:00:00,
2013-05-18 07:01:00,55.1,49.7,30.29,West,275,0.0,0.0,82,0.00,,---,0.00,VWS V14.01,2013-05-18 11:01:00,
2013-05-18 07:02:00,55.3,49.9,30.29,West,275,0.0,0.0,82,0.00,,---,0.00,VWS V14.01,2013-05-18 11:02:00,
2013-05-18 07:03:00,55.4,50.0,30.29,West,275,0.0,1.0,82,0.00,,---,0.00,VWS V14.01,2013-05-18 11:03:00,
2013-05-18 07:04:00,55.4,49.7,30.29,West,275,0.0,1.0,81,0.00,,---,0.00,VWS V14.01,2013-05-18 11:04:00,
2013-05-18 07:05:00,55.6,49.9,30.29,West,275,2.0,2.0,81,0.00,,---,0.00,VWS V14.01,2013-05-18 11:05:00,
2013-05-18 07:06:00,55.6,49.9,30.29,West,275,4.0,4.0,81,0.00,,---,0.00,VWS V14.01,2013-05-18 11:06:00,
2013-05-18 07:07:00,55.7,49.6,30.29,West,274,0.0,6.0,80,0.00,,---,0.00,VWS V14.01,2013-05-18 11:07:00,
2013-05-18 07:08:00,55.7,49.6,30.29,West,274,5.0,6.0,80,0.00,,---,0.00,VWS V14.01,2013-05-18 11:08:00,
2013-05-18 07:09:00,55.7,49.6,30.29,West,274,1.0,6.0,80,0.00,,---,0.00,VWS V14.01,2013-05-18 11:09:00,
2013-05-18 07:10:00,55.9,49.8,30.29,West,274,3.0,6.0,80,0.00,,---,0.00,VWS V14.01,2013-05-18 11:10:00,
2013-05-18 07:11:00,55.9,49.5,30.29,West,274,4.0,5.0,79,0.00,,---,0.00,VWS V14.01,2013-05-18 11:11:00,
2013-05-18 07:12:00,56.0,49.6,30.29,West,274,4.0,5.0,79,0.00,,---,0.00,VWS V14.01,2013-05-18 11:12:00,
2013-05-18 07:13:00,56.2,49.4,30.29,West,278,2.0,5.0,78,0.00,,---,0.00,VWS V14.01,2013-05-18 11:13:00,
2013-05-18 07:14:00,56.2,49.4,30.29,West,278,0.0,5.0,78,0.00,,---,0.00,VWS V14.01,2013-05-18 11:14:00,
2013-05-18 07:15:00,56.3,49.5,30.29,West,278,0.0,5.0,78,0.00,,---,0.00,VWS V14.01,2013-05-18 11:15:00,
2013-05-18 07:16:00,56.3,49.5,30.29,West,278,0.0,1.0,78,0.00,,---,0.00,VWS V14.01,2013-05-18 11:16:00,
2013-05-18 07:17:00,56.5,49.7,30.29,West,278,0.0,1.0,78,0.00,,---,0.00,VWS V14.01,2013-05-18 11:17:00,
2013-05-18 07:18:00,56.5,49.7,30.29,West,278,1.0,1.0,78,0.00,,---,0.00,VWS V14.01,2013-05-18 11:18:00,
2013-05-18 07:19:00,56.6,49.8,30.29,West,278,0.0,1.0,78,0.00,,---,0.00,VWS V14.01,2013-05-18 11:19:00,
2013-05-18 07:20:00,56.7,49.6,30.29,West,278,0.0,1.0,77,0.00,,---,0.00,VWS V14.01,2013-05-18 11:20:00,
2013-05-18 07:21:00,56.9,49.8,30.29,West,278,0.0,0.0,77,0.00,,---,0.00,VWS V14.01,2013-05-18 11:21:00,
2013-05-18 07:22:00,56.9,49.8,30.29,West,278,0.0,1.0,77,0.00,,---,0.00,VWS V14.01,2013-05-18 11:22:00,
2013-05-18 07:23:00,57.0,49.9,30.29,West,278,0.0,1.0,77,0.00,,---,0.00,VWS V14.01,2013-05-18 11:23:00,
2013-05-18 07:24:00,57.2,50.1,30.29,West,278,0.0,1.0,77,0.00,,---,0.00,VWS V14.01,2013-05-18 11:24:00,
2013-05-18 07:25:00,57.3,50.2,30.29,West,278,0.0,1.0,77,0.00,,---,0.00,VWS V14.01,2013-05-18 11:25:00,
2013-05-18 07:26:00,57.3,50.2,30.29,West,278,0.0,0.0,77,0.00,,---,0.00,VWS V14.01,2013-05-18 11:26:00,
2013-05-18 07:27:00,57.5,50.0,30.29,West,278,0.0,0.0,76,0.00,,---,0.00,VWS V14.01,2013-05-18 11:27:00,
2013-05-18 07:28:00,57.6,50.1,30.29,West,278,0.0,1.0,76,0.00,,---,0.00,VWS V14.01,2013-05-18 11:28:00,
2013-05-18 07:29:00,57.8,50.3,30.29,West,278,0.0,1.0,76,0.00,,---,0.00,VWS V14.01,2013-05-18 11:29:00,
2013-05-18 07:30:00,58.0,50.5,30.29,West,278,0.0,1.0,76,0.00,,---,0.00,VWS V14.01,2013-05-18 11:30:00,
2013-05-18 07:31:00,58.1,50.2,30.29,West,278,0.0,0.0,75,0.00,,---,0.00,VWS V14.01,2013-05-18 11:31:00,
2013-05-18 07:32:00,58.1,50.2,30.29,West,278,0.0,0.0,75,0.00,,---,0.00,VWS V14.01,2013-05-18 11:32:00,
2013-05-18 07:33:00,58.3,50.4,30.29,West,278,2.0,4.0,75,0.00,,---,0.00,VWS V14.01,2013-05-18 11:33:00,
2013-05-18 07:34:00,58.3,50.1,30.29,West,278,1.0,4.0,74,0.00,,---,0.00,VWS V14.01,2013-05-18 11:34:00,
2013-05-18 07:35:00,58.4,49.8,30.29,West,278,0.0,4.0,73,0.00,,---,0.00,VWS V14.01,2013-05-18 11:35:00,
2013-05-18 07:36:00,58.6,50.0,30.29,West,278,0.0,0.0,73,0.00,,---,0.00,VWS V14.01,2013-05-18 11:36:00,
2013-05-18 07:37:00,58.7,50.1,30.29,West,278,0.0,0.0,73,0.00,,---,0.00,VWS V14.01,2013-05-18 11:37:00,
2013-05-18 07:38:00,58.9,50.3,30.29,West,278,0.0,1.0,73,0.00,,---,0.00,VWS V14.01,2013-05-18 11:38:00,
2013-05-18 07:39:00,58.9,50.3,30.29,West,278,0.0,1.0,73,0.00,,---,0.00,VWS V14.01,2013-05-18 11:39:00,
2013-05-18 07:40:00,59.0,50.0,30.29,West,278,0.0,1.0,72,0.00,,---,0.00,VWS V14.01,2013-05-18 11:40:00,
2013-05-18 07:41:00,59.2,50.2,30.29,West,278,1.0,1.0,72,0.00,,---,0.00,VWS V14.01,2013-05-18 11:41:00,
2013-05-18 07:42:00,59.3,49.9,30.29,West,278,0.0,1.0,71,0.00,,---,0.00,VWS V14.01,2013-05-18 11:42:00,
2013-05-18 07:43:00,59.3,49.9,30.29,West,278,0.0,1.0,71,0.00,,---,0.00,VWS V14.01,2013-05-18 11:43:00,
2013-05-18 07:44:00,59.5,50.1,30.29,West,278,0.0,1.0,71,0.00,,---,0.00,VWS V14.01,2013-05-18 11:44:00,
2013-05-18 07:45:00,59.6,50.2,30.29,West,278,0.0,1.0,71,0.00,,---,0.00,VWS V14.01,2013-05-18 11:45:00,
2013-05-18 07:46:00,59.8,50.4,30.29,West,278,0.0,1.0,71,0.00,,---,0.00,VWS V14.01,2013-05-18 11:46:00,
2013-05-18 07:47:00,59.9,50.5,30.29,West,278,0.0,1.0,71,0.00,,---,0.00,VWS V14.01,2013-05-18 11:47:00,
2013-05-18 07:48:00,59.9,50.1,30.29,West,278,0.0,1.0,70,0.00,,---,0.00,VWS V14.01,2013-05-18 11:48:00,
2013-05-18 07:49:00,60.1,50.3,30.29,West,278,0.0,1.0,70,0.00,,---,0.00,VWS V14.01,2013-05-18 11:49:00,
2013-05-18 07:50:00,60.2,50.0,30.29,West,278,0.0,1.0,69,0.00,,---,0.00,VWS V14.01,2013-05-18 11:50:00,
2013-05-18 07:51:00,60.2,50.0,30.29,West,278,0.0,2.0,69,0.00,,---,0.00,VWS V14.01,2013-05-18 11:51:00,
2013-05-18 07:52:00,60.2,49.6,30.29,West,278,0.0,2.0,68,0.00,,---,0.00,VWS V14.01,2013-05-18 11:52:00,
2013-05-18 07:53:00,60.4,49.8,30.29,West,278,0.0,2.0,68,0.00,,---,0.00,VWS V14.01,2013-05-18 11:53:00,
2013-05-18 07:54:00,60.5,49.9,30.29,West,278,3.0,3.0,68,0.00,,---,0.00,VWS V14.01,2013-05-18 11:54:00,
2013-05-18 07:55:00,60.5,49.9,30.29,West,278,2.0,4.0,68,0.00,,---,0.00,VWS V14.01,2013-05-18 11:55:00,
2013-05-18 07:56:00,60.5,49.5,30.29,West,278,0.0,3.0,67,0.00,,---,0.00,VWS V14.01,2013-05-18 11:56:00,
2013-05-18 07:57:00,60.7,49.7,30.29,West,278,1.0,3.0,67,0.00,,---,0.00,VWS V14.01,2013-05-18 11:57:00,
2013-05-18 07:58:00,60.9,49.9,30.29,West,278,0.0,3.0,67,0.00,,---,0.00,VWS V14.01,2013-05-18 11:58:00,
2013-05-18 07:59:00,60.9,49.9,30.29,West,278,0.0,3.0,67,0.00,,---,0.00,VWS V14.01,2013-05-18 11:59:00,
2013-05-18 08:00:00,61.0,50.0,30.29,West,278,0.0,3.0,67,0.00,,---,0.00,VWS V14.01,2013-05-18 12:00:00,
2013-05-18 08:01:00,61.2,50.2,30.29,West,278,0.0,0.0,67,0.00,,---,0.00,VWS V14.01,2013-05-18 12:01:00,
2013-05-18 08:02:00,61.3,50.3,30.29,West,278,1.0,1.0,67,0.00,,---,0.00,VWS V14.01,2013-05-18 12:02:00,
2013-05-18 08:03:00,61.3,49.9,30.29,West,278,0.0,1.0,66,0.00,,---,0.00,VWS V14.01,2013-05-18 12:03:00,
2013-05-18 08:04:00,61.5,49.6,30.29,West,278,0.0,1.0,65,0.00,,---,0.00,VWS V14.01,2013-05-18 12:04:00,
2013-05-18 08:05:00,61.6,49.7,30.29,West,278,1.0,1.0,65,0.00,,---,0.00,VWS V14.01,2013-05-18 12:05:00,
2013-05-18 08:06:00,61.8,49.9,30.29,West,278,0.0,3.0,65,0.00,,---,0.00,VWS V14.01,2013-05-18 12:06:00,
2013-05-18 08:07:00,61.8,49.5,30.29,West,278,0.0,3.0,64,0.00,,---,0.00,VWS V14.01,2013-05-18 12:07:00,
2013-05-18 08:08:00,62.0,50.1,30.29,West,278,0.0,3.0,65,0.00,,---,0.00,VWS V14.01,2013-05-18 12:08:00,
2013-05-18 08:09:00,62.1,50.2,30.29,West,278,0.0,3.0,65,0.00,,---,0.00,VWS V14.01,2013-05-18 12:09:00,
2013-05-18 08:10:00,62.3,50.0,30.29,West,278,0.0,3.0,64,0.00,,---,0.00,VWS V14.01,2013-05-18 12:10:00,
2013-05-18 08:11:00,62.4,49.7,30.29,West,278,1.0,1.0,63,0.00,,---,0.00,VWS V14.01,2013-05-18 12:11:00,
2013-05-18 08:12:00,62.6,49.8,30.29,West,278,0.0,2.0,63,0.00,,---,0.00,VWS V14.01,2013-05-18 12:12:00,
2013-05-18 08:13:00,62.6,49.8,30.29,West,278,0.0,2.0,63,0.00,,---,0.00,VWS V14.01,2013-05-18 12:13:00,
2013-05-18 08:14:00,62.7,49.9,30.29,West,278,0.0,2.0,63,0.00,,---,0.00,VWS V14.01,2013-05-18 12:14:00,
2013-05-18 08:15:00,62.9,49.7,30.30,West,278,0.0,3.0,62,0.00,,---,0.00,VWS V14.01,2013-05-18 12:15:00,
2013-05-18 08:16:00,62.9,49.3,30.30,West,277,3.0,6.0,61,0.00,,---,0.00,VWS V14.01,2013-05-18 12:16:00,
2013-05-18 08:17:00,62.9,48.8,30.30,West,280,2.0,6.0,60,0.00,,---,0.00,VWS V14.01,2013-05-18 12:17:00,
2013-05-18 08:18:00,62.9,48.8,30.30,West,277,3.0,6.0,60,0.00,,---,0.00,VWS V14.01,2013-05-18 12:18:00,
2013-05-18 08:19:00,62.9,48.8,30.30,West,277,2.0,6.0,60,0.00,,---,0.00,VWS V14.01,2013-05-18 12:19:00,
2013-05-18 08:20:00,62.9,48.4,30.30,West,277,4.0,6.0,59,0.00,,---,0.00,VWS V14.01,2013-05-18 12:20:00,
2013-05-18 08:21:00,62.9,48.8,30.30,West,277,0.0,5.0,60,0.00,,---,0.00,VWS V14.01,2013-05-18 12:21:00,
2013-05-18 08:22:00,62.9,48.8,30.30,West,275,4.0,6.0,60,0.00,,---,0.00,VWS V14.01,2013-05-18 12:22:00,
2013-05-18 08:23:00,62.9,48.4,30.30,West,275,1.0,6.0,59,0.00,,---,0.00,VWS V14.01,2013-05-18 12:23:00,
2013-05-18 08:24:00,62.9,48.4,30.30,West,275,3.0,6.0,59,0.00,,---,0.00,VWS V14.01,2013-05-18 12:24:00,
2013-05-18 08:25:00,62.9,48.8,30.30,West,275,2.0,6.0,60,0.00,,---,0.00,VWS V14.01,2013-05-18 12:25:00,
2013-05-18 08:26:00,62.9,48.8,30.30,West,275,0.0,4.0,60,0.00,,---,0.00,VWS V14.01,2013-05-18 12:26:00,
2013-05-18 08:27:00,62.9,48.8,30.30,West,275,0.0,4.0,60,0.00,,---,0.00,VWS V14.01,2013-05-18 12:27:00,
2013-05-18 08:28:00,63.1,49.0,30.30,West,275,0.0,4.0,60,0.00,,---,0.00,VWS V14.01,2013-05-18 12:28:00,
2013-05-18 08:29:00,63.1,49.0,30.30,West,275,0.0,4.0,60,0.00,,---,0.00,VWS V14.01,2013-05-18 12:29:00,
2013-05-18 08:30:00,63.1,49.0,30.30,West,275,0.0,4.0,60,0.00,,---,0.00,VWS V14.01,2013-05-18 12:30:00,
2013-05-18 08:31:00,63.2,49.5,30.30,West,275,0.0,2.0,61,0.00,,---,0.00,VWS V14.01,2013-05-18 12:31:00,
2013-05-18 08:32:00,63.2,49.1,30.30,West,275,2.0,2.0,60,0.00,,---,0.00,VWS V14.01,2013-05-18 12:32:00,
2013-05-18 08:33:00,63.4,49.3,30.30,West,275,0.0,3.0,60,0.00,,---,0.00,VWS V14.01,2013-05-18 12:33:00,
2013-05-18 08:34:00,63.5,49.4,30.30,West,275,0.0,3.0,60,0.00,,---,0.00,VWS V14.01,2013-05-18 12:34:00,
2013-05-18 08:35:00,63.5,49.4,30.30,West,275,0.0,3.0,60,0.00,,---,0.00,VWS V14.01,2013-05-18 12:35:00,
2013-05-18 08:36:00,63.7,49.1,30.30,West,275,0.0,2.0,59,0.00,,---,0.00,VWS V14.01,2013-05-18 12:36:00,
2013-05-18 08:37:00,63.9,49.3,30.30,West,275,1.0,3.0,59,0.00,,---,0.00,VWS V14.01,2013-05-18 12:37:00,
2013-05-18 08:38:00,63.9,48.8,30.30,West,277,4.0,4.0,58,0.00,,---,0.00,VWS V14.01,2013-05-18 12:38:00,
2013-05-18 08:39:00,63.9,48.4,30.30,West,278,1.0,5.0,57,0.00,,---,0.00,VWS V14.01,2013-05-18 12:39:00,
2013-05-18 08:40:00,63.9,47.9,30.30,West,277,0.0,5.0,56,0.00,,---,0.00,VWS V14.01,2013-05-18 12:40:00,
2013-05-18 08:41:00,64.0,48.5,30.30,SSW,207,0.0,2.0,57,0.00,,---,0.00,VWS V14.01,2013-05-18 12:41:00,
2013-05-18 08:42:00,64.2,48.7,30.30,WSW,258,0.0,2.0,57,0.00,,---,0.00,VWS V14.01,2013-05-18 12:42:00,
2013-05-18 08:43:00,64.3,48.3,30.30,West,259,0.0,2.0,56,0.00,,---,0.00,VWS V14.01,2013-05-18 12:43:00,
2013-05-18 08:44:00,64.5,48.5,30.30,West,259,0.0,2.0,56,0.00,,---,0.00,VWS V14.01,2013-05-18 12:44:00,
2013-05-18 08:45:00,64.7,49.1,30.30,WSW,258,0.0,2.0,57,0.00,,---,0.00,VWS V14.01,2013-05-18 12:45:00,
2013-05-18 08:46:00,64.8,48.8,30.30,West,259,0.0,1.0,56,0.00,,---,0.00,VWS V14.01,2013-05-18 12:46:00,
2013-05-18 08:47:00,64.8,48.3,30.30,West,259,0.0,1.0,55,0.00,,---,0.00,VWS V14.01,2013-05-18 12:47:00,
2013-05-18 08:48:00,65.0,48.5,30.30,West,259,2.0,2.0,55,0.00,,---,0.00,VWS V14.01,2013-05-18 12:48:00,
2013-05-18 08:49:00,65.2,48.2,30.30,WSW,258,0.0,3.0,54,0.00,,---,0.00,VWS V14.01,2013-05-18 12:49:00,
2013-05-18 08:50:00,65.3,47.8,30.30,SSE,167,0.0,3.0,53,0.00,,---,0.00,VWS V14.01,2013-05-18 12:50:00,
2013-05-18 08:51:00,65.5,48.4,30.30,SSE,167,0.0,1.0,54,0.00,,---,0.00,VWS V14.01,2013-05-18 12:51:00,
2013-05-18 08:52:00,65.8,48.7,30.30,SSE,167,0.0,1.0,54,0.00,,---,0.00,VWS V14.01,2013-05-18 12:52:00,
2013-05-18 08:53:00,66.1,48.0,30.30,West,277,2.0,4.0,52,0.00,,---,0.00,VWS V14.01,2013-05-18 12:53:00,
2013-05-18 08:54:00,66.3,48.2,30.30,West,277,0.0,4.0,52,0.00,,---,0.00,VWS V14.01,2013-05-18 12:54:00,
2013-05-18 08:55:00,66.4,48.3,30.30,West,277,4.0,4.0,52,0.00,,---,0.00,VWS V14.01,2013-05-18 12:55:00,
2013-05-18 08:56:00,66.4,48.3,30.30,West,277,2.0,3.0,52,0.00,,---,0.00,VWS V14.01,2013-05-18 12:56:00,
2013-05-18 08:57:00,66.6,47.9,30.30,West,277,0.0,3.0,51,0.00,,---,0.00,VWS V14.01,2013-05-18 12:57:00,
2013-05-18 08:58:00,66.8,48.1,30.30,West,277,0.0,3.0,51,0.00,,---,0.00,VWS V14.01,2013-05-18 12:58:00,
2013-05-18 08:59:00,66.8,47.6,30.30,West,277,2.0,3.0,50,0.00,,---,0.00,VWS V14.01,2013-05-18 12:59:00,
2013-05-18 09:00:00,66.8,47.0,30.30,West,277,0.0,3.0,49,0.00,,---,0.00,VWS V14.01,2013-05-18 13:00:00,
2013-05-18 09:01:00,66.8,46.5,30.30,West,277,0.0,0.0,48,0.00,,---,0.00,VWS V14.01,2013-05-18 13:01:00,
2013-05-18 09:02:00,66.9,47.7,30.30,West,277,1.0,1.0,50,0.00,,---,0.00,VWS V14.01,2013-05-18 13:02:00,
2013-05-18 09:03:00,67.1,47.3,30.30,West,277,0.0,1.0,49,0.00,,---,0.00,VWS V14.01,2013-05-18 13:03:00,
2013-05-18 09:04:00,67.3,47.0,30.30,West,277,0.0,1.0,48,0.00,,---,0.00,VWS V14.01,2013-05-18 13:04:00,
2013-05-18 09:05:00,67.3,46.4,30.30,West,277,0.0,4.0,47,0.00,,---,0.00,VWS V14.01,2013-05-18 13:05:00,
2013-05-18 09:06:00,67.4,46.5,30.30,West,277,0.0,1.0,47,0.00,,---,0.00,VWS V14.01,2013-05-18 13:06:00,
2013-05-18 09:07:00,67.6,46.7,30.30,West,277,0.0,1.0,47,0.00,,---,0.00,VWS V14.01,2013-05-18 13:07:00,
2013-05-18 09:08:00,67.6,47.2,30.30,West,277,0.0,1.0,48,0.00,,---,0.00,VWS V14.01,2013-05-18 13:08:00,
2013-05-18 09:09:00,67.8,46.9,30.30,West,277,0.0,1.0,47,0.00,,---,0.00,VWS V14.01,2013-05-18 13:09:00,
2013-05-18 09:10:00,67.8,46.3,30.30,West,277,0.0,4.0,46,0.00,,---,0.00,VWS V14.01,2013-05-18 13:10:00,
2013-05-18 09:11:00,67.9,45.2,30.30,SE,140,0.0,1.0,44,0.00,,---,0.00,VWS V14.01,2013-05-18 13:11:00,
2013-05-18 09:12:00,68.1,45.4,30.30,SE,140,0.0,1.0,44,0.00,,---,0.00,VWS V14.01,2013-05-18 13:12:00,
2013-05-18 09:13:00,68.3,46.2,30.30,SE,140,0.0,1.0,45,0.00,,---,0.00,VWS V14.01,2013-05-18 13:13:00,
2013-05-18 09:14:00,68.4,46.8,30.30,SE,140,0.0,1.0,46,0.00,,---,0.00,VWS V14.01,2013-05-18 13:14:00,
2013-05-18 09:15:00,68.6,45.2,30.30,SE,140,0.0,1.0,43,0.00,,---,0.00,VWS V14.01,2013-05-18 13:15:00,
2013-05-18 09:16:00,68.6,44.6,30.30,West,281,5.0,6.0,42,0.00,,---,0.00,VWS V14.01,2013-05-18 13:16:00,
2013-05-18 09:17:00,68.6,43.3,30.30,West,278,5.0,6.0,40,0.00,,---,0.00,VWS V14.01,2013-05-18 13:17:00,
2013-05-18 09:18:00,68.6,43.3,30.30,West,278,0.0,6.0,40,0.00,,---,0.00,VWS V14.01,2013-05-18 13:18:00,
2013-05-18 09:19:00,68.6,43.3,30.30,West,277,4.0,6.0,40,0.00,,---,0.00,VWS V14.01,2013-05-18 13:19:00,
2013-05-18 09:20:00,68.4,43.8,30.30,West,277,1.0,6.0,41,0.00,,---,0.00,VWS V14.01,2013-05-18 13:20:00,
2013-05-18 09:21:00,68.4,45.0,30.30,WNW,284,0.0,4.0,43,0.00,,---,0.00,VWS V14.01,2013-05-18 13:21:00,
2013-05-18 09:22:00,68.4,45.7,30.30,West,271,5.0,7.0,44,0.00,,---,0.00,VWS V14.01,2013-05-18 13:22:00,
2013-05-18 09:23:00,68.3,45.6,30.30,West,271,3.0,7.0,44,0.00,,---,0.00,VWS V14.01,2013-05-18 13:23:00,
2013-05-18 09:24:00,68.3,45.6,30.30,West,271,0.0,7.0,44,0.00,,---,0.00,VWS V14.01,2013-05-18 13:24:00,
2013-05-18 09:25:00,68.3,45.0,30.30,West,271,0.0,7.0,43,0.00,,---,0.00,VWS V14.01,2013-05-18 13:25:00,
2013-05-18 09:26:00,68.1,45.4,30.30,West,271,3.0,3.0,44,0.00,,---,0.00,VWS V14.01,2013-05-18 13:26:00,
2013-05-18 09:27:00,68.1,45.4,30.30,West,266,0.0,3.0,44,0.00,,---,0.00,VWS V14.01,2013-05-18 13:27:00,
2013-05-18 09:28:00,68.1,44.2,30.30,West,266,0.0,3.0,42,0.00,,---,0.00,VWS V14.01,2013-05-18 13:28:00,
2013-05-18 09:29:00,68.1,44.2,30.30,West,275,4.0,4.0,42,0.00,,---,0.00,VWS V14.01,2013-05-18 13:29:00,
2013-05-18 09:30:00,67.9,44.0,30.29,WNW,287,2.0,6.0,42,0.00,,---,0.00,VWS V14.01,2013-05-18 13:30:00,
2013-05-18 09:31:00,67.9,43.4,30.29,NW,304,0.0,4.0,41,0.00,,---,0.00,VWS V14.01,2013-05-18 13:31:00,
2013-05-18 09:32:00,67.9,42.7,30.29,West,278,4.0,4.0,40,0.00,,---,0.00,VWS V14.01,2013-05-18 13:32:00,
2013-05-18 09:33:00,67.8,42.0,30.29,WNW,286,3.0,6.0,39,0.00,,---,0.00,VWS V14.01,2013-05-18 13:33:00,
2013-05-18 09:34:00,67.8,41.3,30.29,West,276,1.0,6.0,38,0.00,,---,0.00,VWS V14.01,2013-05-18 13:34:00,
2013-05-18 09:35:00,67.8,42.6,30.29,WNW,287,0.0,6.0,40,0.00,,---,0.00,VWS V14.01,2013-05-18 13:35:00,
2013-05-18 09:36:00,67.8,42.0,30.29,WNW,282,1.0,6.0,39,0.00,,---,0.00,VWS V14.01,2013-05-18 13:36:00,
2013-05-18 09:37:00,67.8,42.6,30.29,WNW,282,0.0,6.0,40,0.00,,---,0.00,VWS V14.01,2013-05-18 13:37:00,
2013-05-18 09:38:00,67.8,43.3,30.29,West,275,2.0,6.0,41,0.00,,---,0.00,VWS V14.01,2013-05-18 13:38:00,
2013-05-18 09:39:00,67.8,43.9,30.29,West,275,1.0,6.0,42,0.00,,---,0.00,VWS V14.01,2013-05-18 13:39:00,
2013-05-18 09:40:00,67.8,43.3,30.29,West,275,1.0,6.0,41,0.00,,---,0.00,VWS V14.01,2013-05-18 13:40:00,
2013-05-18 09:41:00,67.8,43.9,30.29,West,275,0.0,1.0,42,0.00,,---,0.00,VWS V14.01,2013-05-18 13:41:00,
2013-05-18 09:42:00,67.8,43.9,30.29,West,275,0.0,1.0,42,0.00,,---,0.00,VWS V14.01,2013-05-18 13:42:00,
2013-05-18 09:43:00,67.8,44.5,30.29,West,275,0.0,1.0,43,0.00,,---,0.00,VWS V14.01,2013-05-18 13:43:00,
2013-05-18 09:44:00,68.1,44.8,30.29,West,275,0.0,1.0,43,0.00,,---,0.00,VWS V14.01,2013-05-18 13:44:00,
2013-05-18 09:45:00,68.3,45.0,30.29,West,275,1.0,2.0,43,0.00,,---,0.00,VWS V14.01,2013-05-18 13:45:00,
2013-05-18 09:46:00,68.4,44.4,30.29,West,275,0.0,1.0,42,0.00,,---,0.00,VWS V14.01,2013-05-18 13:46:00,
2013-05-18 09:47:00,68.6,44.6,30.29,West,275,3.0,3.0,42,0.00,,---,0.00,VWS V14.01,2013-05-18 13:47:00,
2013-05-18 09:48:00,68.6,42.7,30.29,West,275,0.0,7.0,39,0.00,,---,0.00,VWS V14.01,2013-05-18 13:48:00,
2013-05-18 09:49:00,68.6,42.0,30.29,West,275,0.0,7.0,38,0.00,,---,0.00,VWS V14.01,2013-05-18 13:49:00,
2013-05-18 09:50:00,68.8,42.2,30.29,West,275,1.0,7.0,38,0.00,,---,0.00,VWS V14.01,2013-05-18 13:50:00,
2013-05-18 09:51:00,68.8,40.8,30.29,West,272,1.0,2.0,36,0.00,,---,0.00,VWS V14.01,2013-05-18 13:51:00,
2013-05-18 09:52:00,68.9,40.2,30.29,West,272,0.0,2.0,35,0.00,,---,0.00,VWS V14.01,2013-05-18 13:52:00,
2013-05-18 09:53:00,68.9,40.9,30.29,West,272,0.0,2.0,36,0.00,,---,0.00,VWS V14.01,2013-05-18 13:53:00,
2013-05-18 09:54:00,69.1,41.0,30.29,West,272,1.0,2.0,36,0.00,,---,0.00,VWS V14.01,2013-05-18 13:54:00,
2013-05-18 09:55:00,69.3,41.9,30.29,WNW,287,5.0,6.0,37,0.00,,---,0.00,VWS V14.01,2013-05-18 13:55:00,
2013-05-18 09:56:00,69.3,41.2,30.29,West,275,3.0,7.0,36,0.00,,---,0.00,VWS V14.01,2013-05-18 13:56:00,
2013-05-18 09:57:00,69.3,41.2,30.29,West,276,0.0,7.0,36,0.00,,---,0.00,VWS V14.01,2013-05-18 13:57:00,
2013-05-18 09:58:00,69.3,42.6,30.29,ESE,120,0.0,7.0,38,0.00,,---,0.00,VWS V14.01,2013-05-18 13:58:00,
2013-05-18 09:59:00,69.4,41.3,30.29,ESE,120,0.0,7.0,36,0.00,,---,0.00,VWS V14.01,2013-05-18 13:59:00,
2013-05-18 10:00:00,69.6,42.2,30.29,North,360,0.0,7.0,37,0.00,,---,0.00,VWS V14.01,2013-05-18 14:00:00,
2013-05-18 10:01:00,69.8,41.7,30.29,West,277,3.0,5.0,36,0.00,,---,0.00,VWS V14.01,2013-05-18 14:01:00,
2013-05-18 10:02:00,69.8,40.9,30.29,West,277,6.0,9.0,35,0.00,,---,0.00,VWS V14.01,2013-05-18 14:02:00,
2013-05-18 10:03:00,69.6,39.2,30.29,WNW,283,1.0,9.0,33,0.00,,---,0.00,VWS V14.01,2013-05-18 14:03:00,
2013-05-18 10:04:00,69.4,38.3,30.29,WNW,283,0.0,9.0,32,0.00,,---,0.00,VWS V14.01,2013-05-18 14:04:00,
2013-05-18 10:05:00,69.6,39.2,30.29,WNW,283,0.0,9.0,33,0.00,,---,0.00,VWS V14.01,2013-05-18 14:05:00,
2013-05-18 10:06:00,69.6,40.0,30.29,WNW,283,0.0,1.0,34,0.00,,---,0.00,VWS V14.01,2013-05-18 14:06:00,
2013-05-18 10:07:00,69.6,40.8,30.29,WNW,283,0.0,1.0,35,0.00,,---,0.00,VWS V14.01,2013-05-18 14:07:00,
2013-05-18 10:08:00,69.6,40.8,30.29,WNW,283,0.0,1.0,35,0.00,,---,0.00,VWS V14.01,2013-05-18 14:08:00,
2013-05-18 10:09:00,69.6,40.8,30.29,WNW,283,0.0,1.0,35,0.00,,---,0.00,VWS V14.01,2013-05-18 14:09:00,
2013-05-18 10:10:00,69.8,40.2,30.29,WNW,283,0.0,1.0,34,0.00,,---,0.00,VWS V14.01,2013-05-18 14:10:00,
2013-05-18 10:11:00,69.8,40.2,30.29,WNW,283,0.0,0.0,34,0.00,,---,0.00,VWS V14.01,2013-05-18 14:11:00,
2013-05-18 10:12:00,69.9,41.8,30.29,WNW,283,0.0,0.0,36,0.00,,---,0.00,VWS V14.01,2013-05-18 14:12:00,
2013-05-18 10:13:00,70.1,40.5,30.29,WNW,283,0.0,1.0,34,0.00,,---,0.00,VWS V14.01,2013-05-18 14:13:00,
2013-05-18 10:14:00,70.3,40.6,30.29,WNW,283,0.0,1.0,34,0.00,,---,0.00,VWS V14.01,2013-05-18 14:14:00,
2013-05-18 10:15:00,70.3,41.4,30.29,WNW,286,3.0,4.0,35,0.00,,---,0.00,VWS V14.01,2013-05-18 14:15:00,
2013-05-18 10:16:00,70.3,41.4,30.29,WNW,286,0.0,3.0,35,0.00,,---,0.00,VWS V14.01,2013-05-18 14:16:00,
2013-05-18 10:17:00,70.4,42.9,30.29,WNW,286,1.0,3.0,37,0.00,,---,0.00,VWS V14.01,2013-05-18 14:17:00,
2013-05-18 10:18:00,70.4,42.9,30.29,WNW,286,0.0,3.0,37,0.00,,---,0.00,VWS V14.01,2013-05-18 14:18:00,
2013-05-18 10:19:00,70.6,41.7,30.29,WNW,285,4.0,7.0,35,0.00,,---,0.00,VWS V14.01,2013-05-18 14:19:00,
2013-05-18 10:20:00,70.6,43.1,30.29,West,280,2.0,7.0,37,0.00,,---,0.00,VWS V14.01,2013-05-18 14:20:00,
2013-05-18 10:21:00,70.6,41.7,30.29,West,280,2.0,2.0,35,0.00,,---,0.00,VWS V14.01,2013-05-18 14:21:00,
2013-05-18 10:22:00,70.6,41.7,30.29,West,280,0.0,2.0,35,0.00,,---,0.00,VWS V14.01,2013-05-18 14:22:00,
2013-05-18 10:23:00,70.6,41.7,30.29,West,280,0.0,2.0,35,0.00,,---,0.00,VWS V14.01,2013-05-18 14:23:00,
2013-05-18 10:24:00,70.6,41.7,30.29,West,280,0.0,2.0,35,0.00,,---,0.00,VWS V14.01,2013-05-18 14:24:00,
2013-05-18 10:25:00,70.6,40.9,30.29,South,184,2.0,2.0,34,0.00,,---,0.00,VWS V14.01,2013-05-18 14:25:00,
2013-05-18 10:26:00,70.8,41.1,30.29,South,184,0.0,3.0,34,0.00,,---,0.00,VWS V14.01,2013-05-18 14:26:00,
2013-05-18 10:27:00,70.8,41.8,30.29,South,184,1.0,3.0,35,0.00,,---,0.00,VWS V14.01,2013-05-18 14:27:00,
2013-05-18 10:28:00,70.8,41.8,30.29,WSW,249,0.0,3.0,35,0.00,,---,0.00,VWS V14.01,2013-05-18 14:28:00,
2013-05-18 10:29:00,70.8,41.8,30.29,WSW,249,1.0,3.0,35,0.00,,---,0.00,VWS V14.01,2013-05-18 14:29:00,
2013-05-18 10:30:00,70.9,41.9,30.29,WSW,249,0.0,3.0,35,0.00,,---,0.00,VWS V14.01,2013-05-18 14:30:00,
2013-05-18 10:31:00,70.9,41.2,30.29,WSW,249,0.0,0.0,34,0.00,,---,0.00,VWS V14.01,2013-05-18 14:31:00,
2013-05-18 10:32:00,71.1,41.3,30.29,SSW,200,0.0,0.0,34,0.00,,---,0.00,VWS V14.01,2013-05-18 14:32:00,
2013-05-18 10:33:00,71.1,40.6,30.29,SSW,200,0.0,1.0,33,0.00,,---,0.00,VWS V14.01,2013-05-18 14:33:00,
2013-05-18 10:34:00,71.1,41.3,30.29,South,179,0.0,4.0,34,0.00,,---,0.00,VWS V14.01,2013-05-18 14:34:00,
2013-05-18 10:35:00,71.1,40.6,30.29,South,179,0.0,4.0,33,0.00,,---,0.00,VWS V14.01,2013-05-18 14:35:00,
2013-05-18 10:36:00,71.1,40.6,30.29,South,179,0.0,0.0,33,0.00,,---,0.00,VWS V14.01,2013-05-18 14:36:00,
2013-05-18 10:37:00,71.3,41.5,30.29,South,179,0.0,0.0,34,0.00,,---,0.00,VWS V14.01,2013-05-18 14:37:00,
2013-05-18 10:38:00,71.3,41.5,30.29,West,266,4.0,4.0,34,0.00,,---,0.00,VWS V14.01,2013-05-18 14:38:00,
2013-05-18 10:39:00,71.3,41.5,30.29,WNW,283,3.0,6.0,34,0.00,,---,0.00,VWS V14.01,2013-05-18 14:39:00,
2013-05-18 10:40:00,71.1,41.3,30.29,NE,44,5.0,6.0,34,0.00,,---,0.00,VWS V14.01,2013-05-18 14:40:00,
2013-05-18 10:41:00,70.9,41.2,30.29,SE,125,6.0,7.0,34,0.00,,---,0.00,VWS V14.01,2013-05-18 14:41:00,
2013-05-18 10:42:00,70.4,41.5,30.29,ESE,123,1.0,7.0,35,0.00,,---,0.00,VWS V14.01,2013-05-18 14:42:00,
2013-05-18 10:43:00,70.3,41.4,30.29,East,79,0.0,7.0,35,0.00,,---,0.00,VWS V14.01,2013-05-18 14:43:00,
2013-05-18 10:44:00,70.3,41.4,30.29,East,79,0.0,7.0,35,0.00,,---,0.00,VWS V14.01,2013-05-18 14:44:00,
2013-05-18 10:45:00,70.1,40.5,30.28,NE,50,1.0,7.0,34,0.00,,---,0.00,VWS V14.01,2013-05-18 14:45:00,
2013-05-18 10:46:00,69.9,41.0,30.28,ESE,119,1.0,4.0,35,0.00,,---,0.00,VWS V14.01,2013-05-18 14:46:00,
2013-05-18 10:47:00,69.8,40.9,30.28,ESE,119,0.0,4.0,35,0.00,,---,0.00,VWS V14.01,2013-05-18 14:47:00,
2013-05-18 10:48:00,69.6,40.8,30.28,ESE,119,1.0,4.0,35,0.00,,---,0.00,VWS V14.01,2013-05-18 14:48:00,
2013-05-18 10:49:00,69.6,40.8,30.28,SSW,209,0.0,4.0,35,0.00,,---,0.00,VWS V14.01,2013-05-18 14:49:00,
2013-05-18 10:50:00,69.6,41.5,30.28,SSW,209,0.0,4.0,36,0.00,,---,0.00,VWS V14.01,2013-05-18 14:50:00,
2013-05-18 10:51:00,69.6,40.8,30.28,SSW,209,1.0,1.0,35,0.00,,---,0.00,VWS V14.01,2013-05-18 14:51:00,
2013-05-18 10:52:00,69.6,40.8,30.28,SW,220,1.0,2.0,35,0.00,,---,0.00,VWS V14.01,2013-05-18 14:52:00,
2013-05-18 10:53:00,69.8,41.7,30.28,SW,220,0.0,2.0,36,0.00,,---,0.00,VWS V14.01,2013-05-18 14:53:00,
2013-05-18 10:54:00,69.8,41.7,30.28,SW,220,0.0,2.0,36,0.00,,---,0.00,VWS V14.01,2013-05-18 14:54:00,
2013-05-18 10:55:00,69.9,41.8,30.28,SW,219,0.0,3.0,36,0.00,,---,0.00,VWS V14.01,2013-05-18 14:55:00,
2013-05-18 10:56:00,69.9,41.8,30.28,SSW,203,0.0,2.0,36,0.00,,---,0.00,VWS V14.01,2013-05-18 14:56:00,
2013-05-18 10:57:00,70.1,41.2,30.28,SSW,202,0.0,2.0,35,0.00,,---,0.00,VWS V14.01,2013-05-18 14:57:00,
2013-05-18 10:58:00,70.1,41.2,30.28,SSW,202,0.0,2.0,35,0.00,,---,0.00,VWS V14.01,2013-05-18 14:58:00,
2013-05-18 10:59:00,70.1,40.5,30.28,SSW,211,0.0,2.0,34,0.00,,---,0.00,VWS V14.01,2013-05-18 14:59:00,
2013-05-18 11:00:00,70.3,41.4,30.28,SSW,211,0.0,2.0,35,0.00,,---,0.00,VWS V14.01,2013-05-18 15:00:00,
2013-05-18 11:01:00,70.3,41.4,30.28,West,277,4.0,5.0,35,0.00,,---,0.00,VWS V14.01,2013-05-18 15:01:00,
2013-05-18 11:02:00,70.1,40.5,30.28,WNW,283,2.0,7.0,34,0.00,,---,0.00,VWS V14.01,2013-05-18 15:02:00,
2013-05-18 11:03:00,70.1,41.2,30.28,WNW,283,0.0,7.0,35,0.00,,---,0.00,VWS V14.01,2013-05-18 15:03:00,
2013-05-18 11:04:00,70.1,40.5,30.28,WNW,283,0.0,7.0,34,0.00,,---,0.00,VWS V14.01,2013-05-18 15:04:00,
2013-05-18 11:05:00,70.1,40.5,30.28,WNW,283,0.0,7.0,34,0.00,,---,0.00,VWS V14.01,2013-05-18 15:05:00,
2013-05-18 11:06:00,70.1,40.5,30.28,WNW,283,0.0,1.0,34,0.00,,---,0.00,VWS V14.01,2013-05-18 15:06:00,
2013-05-18 11:07:00,70.1,41.2,30.28,WNW,283,0.0,1.0,35,0.00,,---,0.00,VWS V14.01,2013-05-18 15:07:00,
2013-05-18 11:08:00,70.1,40.5,30.28,WNW,283,0.0,1.0,34,0.00,,---,0.00,VWS V14.01,2013-05-18 15:08:00,
2013-05-18 11:09:00,70.1,41.2,30.28,WNW,283,0.0,1.0,35,0.00,,---,0.00,VWS V14.01,2013-05-18 15:09:00,
2013-05-18 11:10:00,70.3,40.6,30.28,WNW,283,0.0,1.0,34,0.00,,---,0.00,VWS V14.01,2013-05-18 15:10:00,
2013-05-18 11:11:00,70.3,40.6,30.28,WNW,283,0.0,0.0,34,0.00,,---,0.00,VWS V14.01,2013-05-18 15:11:00,
2013-05-18 11:12:00,70.3,40.6,30.28,WNW,283,0.0,0.0,34,0.00,,---,0.00,VWS V14.01,2013-05-18 15:12:00,
2013-05-18 11:13:00,70.4,41.5,30.28,West,274,2.0,4.0,35,0.00,,---,0.00,VWS V14.01,2013-05-18 15:13:00,
2013-05-18 11:14:00,70.4,40.7,30.28,West,274,0.0,4.0,34,0.00,,---,0.00,VWS V14.01,2013-05-18 15:14:00,
2013-05-18 11:15:00,70.4,41.5,30.27,West,274,0.0,4.0,35,0.00,,---,0.00,VWS V14.01,2013-05-18 15:15:00,
2013-05-18 11:16:00,70.4,40.7,30.27,West,274,0.0,0.0,34,0.00,,---,0.00,VWS V14.01,2013-05-18 15:16:00,
2013-05-18 11:17:00,70.6,41.7,30.27,West,274,0.0,0.0,35,0.00,,---,0.00,VWS V14.01,2013-05-18 15:17:00,
2013-05-18 11:18:00,70.8,40.3,30.27,West,265,0.0,4.0,33,0.00,,---,0.00,VWS V14.01,2013-05-18 15:18:00,
2013-05-18 11:19:00,70.8,40.3,30.27,NW,305,0.0,4.0,33,0.00,,---,0.00,VWS V14.01,2013-05-18 15:19:00,
2013-05-18 11:20:00,70.8,40.3,30.27,NW,305,0.0,4.0,33,0.00,,---,0.00,VWS V14.01,2013-05-18 15:20:00,
2013-05-18 11:21:00,70.8,39.5,30.27,NW,305,0.0,1.0,32,0.00,,---,0.00,VWS V14.01,2013-05-18 15:21:00,
2013-05-18 11:22:00,70.8,39.5,30.27,West,277,2.0,6.0,32,0.00,,---,0.00,VWS V14.01,2013-05-18 15:22:00,
2013-05-18 11:23:00,70.8,39.5,30.27,West,277,0.0,6.0,32,0.00,,---,0.00,VWS V14.01,2013-05-18 15:23:00,
2013-05-18 11:24:00,70.9,39.6,30.27,West,277,2.0,6.0,32,0.00,,---,0.00,VWS V14.01,2013-05-18 15:24:00,
2013-05-18 11:25:00,70.9,39.6,30.27,NW,306,0.0,6.0,32,0.00,,---,0.00,VWS V14.01,2013-05-18 15:25:00,
2013-05-18 11:26:00,71.1,39.8,30.27,NW,306,0.0,0.0,32,0.00,,---,0.00,VWS V14.01,2013-05-18 15:26:00,
2013-05-18 11:27:00,71.1,39.8,30.27,WNW,300,4.0,4.0,32,0.00,,---,0.00,VWS V14.01,2013-05-18 15:27:00,
2013-05-18 11:28:00,71.1,39.0,30.27,WNW,300,0.0,4.0,31,0.00,,---,0.00,VWS V14.01,2013-05-18 15:28:00,
2013-05-18 11:29:00,71.3,40.0,30.27,WNW,300,0.0,4.0,32,0.00,,---,0.00,VWS V14.01,2013-05-18 15:29:00,
2013-05-18 11:30:00,71.3,39.1,30.27,NW,306,0.0,4.0,31,0.00,,---,0.00,VWS V14.01,2013-05-18 15:30:00,
2013-05-18 11:31:00,71.3,39.1,30.27,West,279,4.0,6.0,31,0.00,,---,0.00,VWS V14.01,2013-05-18 15:31:00,
2013-05-18 11:32:00,71.3,39.1,30.27,West,279,0.0,6.0,31,0.00,,---,0.00,VWS V14.01,2013-05-18 15:32:00,
2013-05-18 11:33:00,71.3,39.1,30.27,West,279,0.0,6.0,31,0.00,,---,0.00,VWS V14.01,2013-05-18 15:33:00,
2013-05-18 11:34:00,71.3,39.1,30.27,West,279,0.0,6.0,31,0.00,,---,0.00,VWS V14.01,2013-05-18 15:34:00,
2013-05-18 11:35:00,71.3,39.1,30.27,West,279,0.0,6.0,31,0.00,,---,0.00,VWS V14.01,2013-05-18 15:35:00,
2013-05-18 11:36:00,71.3,39.1,30.27,West,279,0.0,0.0,31,0.00,,---,0.00,VWS V14.01,2013-05-18 15:36:00,
2013-05-18 11:37:00,71.3,40.0,30.27,West,279,0.0,0.0,32,0.00,,---,0.00,VWS V14.01,2013-05-18 15:37:00,
2013-05-18 11:38:00,71.3,39.1,30.27,West,279,0.0,0.0,31,0.00,,---,0.00,VWS V14.01,2013-05-18 15:38:00,
2013-05-18 11:39:00,71.3,39.1,30.27,West,279,0.0,0.0,31,0.00,,---,0.00,VWS V14.01,2013-05-18 15:39:00,
2013-05-18 11:40:00,71.3,39.1,30.27,SSE,156,0.0,1.0,31,0.00,,---,0.00,VWS V14.01,2013-05-18 15:40:00,
2013-05-18 11:41:00,71.3,40.0,30.27,SSE,156,0.0,0.0,32,0.00,,---,0.00,VWS V14.01,2013-05-18 15:41:00,
2013-05-18 11:42:00,71.5,40.1,30.27,SSE,156,0.0,0.0,32,0.00,,---,0.00,VWS V14.01,2013-05-18 15:42:00,
2013-05-18 11:43:00,71.5,40.1,30.27,SSE,156,1.0,1.0,32,0.00,,---,0.00,VWS V14.01,2013-05-18 15:43:00,
2013-05-18 11:44:00,71.5,40.9,30.27,South,179,0.0,1.0,33,0.00,,---,0.00,VWS V14.01,2013-05-18 15:44:00,
2013-05-18 11:45:00,71.5,40.1,30.27,South,179,0.0,1.0,32,0.00,,---,0.00,VWS V14.01,2013-05-18 15:45:00,
2013-05-18 11:46:00,71.5,40.9,30.27,SW,234,1.0,3.0,33,0.00,,---,0.00,VWS V14.01,2013-05-18 15:46:00,
2013-05-18 11:47:00,71.6,40.2,30.27,SW,234,0.0,3.0,32,0.00,,---,0.00,VWS V14.01,2013-05-18 15:47:00,
2013-05-18 11:48:00,71.6,40.2,30.27,SW,234,0.0,3.0,32,0.00,,---,0.00,VWS V14.01,2013-05-18 15:48:00,
2013-05-18 11:49:00,71.6,40.2,30.27,SW,234,0.0,3.0,32,0.00,,---,0.00,VWS V14.01,2013-05-18 15:49:00,
2013-05-18 11:50:00,71.6,40.2,30.27,SW,234,0.0,3.0,32,0.00,,---,0.00,VWS V14.01,2013-05-18 15:50:00,
2013-05-18 11:51:00,71.6,41.0,30.27,SW,234,0.0,1.0,33,0.00,,---,0.00,VWS V14.01,2013-05-18 15:51:00,
2013-05-18 11:52:00,71.6,41.0,30.27,SW,234,0.0,1.0,33,0.00,,---,0.00,VWS V14.01,2013-05-18 15:52:00,
2013-05-18 11:53:00,71.8,40.4,30.27,West,275,0.0,4.0,32,0.00,,---,0.00,VWS V14.01,2013-05-18 15:53:00,
2013-05-18 11:54:00,71.8,40.4,30.27,West,275,4.0,4.0,32,0.00,,---,0.00,VWS V14.01,2013-05-18 15:54:00,
2013-05-18 11:55:00,71.6,39.4,30.27,West,276,2.0,5.0,31,0.00,,---,0.00,VWS V14.01,2013-05-18 15:55:00,
2013-05-18 11:56:00,71.6,39.4,30.27,West,277,7.0,7.0,31,0.00,,---,0.00,VWS V14.01,2013-05-18 15:56:00,
2013-05-18 11:57:00,71.6,39.4,30.27,West,279,1.0,8.0,31,0.00,,---,0.00,VWS V14.01,2013-05-18 15:57:00,
2013-05-18 11:58:00,71.5,39.3,30.27,WNW,299,4.0,8.0,31,0.00,,---,0.00,VWS V14.01,2013-05-18 15:58:00,
2013-05-18 11:59:00,71.5,39.3,30.27,WNW,285,2.0,8.0,31,0.00,,---,0.00,VWS V14.01,2013-05-18 15:59:00,
2013-05-18 12:00:00,71.3,39.1,30.27,WNW,285,0.0,8.0,31,0.00,,---,0.00,VWS V14.01,2013-05-18 16:00:00,
2013-05-18 12:01:00,71.3,39.1,30.27,WNW,285,0.0,0.0,31,0.00,,---,0.00,VWS V14.01,2013-05-18 16:01:00,
2013-05-18 12:02:00,71.3,39.1,30.27,WNW,285,0.0,0.0,31,0.00,,---,0.00,VWS V14.01,2013-05-18 16:02:00,
2013-05-18 12:03:00,71.3,40.0,30.27,WNW,282,3.0,3.0,32,0.00,,---,0.00,VWS V14.01,2013-05-18 16:03:00,
2013-05-18 12:04:00,71.3,39.1,30.27,WNW,286,1.0,5.0,31,0.00,,---,0.00,VWS V14.01,2013-05-18 16:04:00,
2013-05-18 12:05:00,71.1,39.8,30.27,WNW,286,0.0,5.0,32,0.00,,---,0.00,VWS V14.01,2013-05-18 16:05:00,
2013-05-18 12:06:00,71.1,39.8,30.27,WNW,286,0.0,0.0,32,0.00,,---,0.00,VWS V14.01,2013-05-18 16:06:00,
2013-05-18 12:07:00,71.3,40.7,30.27,WNW,286,0.0,1.0,33,0.00,,---,0.00,VWS V14.01,2013-05-18 16:07:00,
2013-05-18 12:08:00,71.3,40.7,30.27,South,176,1.0,3.0,33,0.00,,---,0.00,VWS V14.01,2013-05-18 16:08:00,
2013-05-18 12:09:00,71.3,39.1,30.27,South,178,4.0,4.0,31,0.00,,---,0.00,VWS V14.01,2013-05-18 16:09:00,
2013-05-18 12:10:00,71.3,38.3,30.27,South,186,4.0,5.0,30,0.00,,---,0.00,VWS V14.01,2013-05-18 16:10:00,
2013-05-18 12:11:00,71.3,38.3,30.27,South,176,4.0,4.0,30,0.00,,---,0.00,VWS V14.01,2013-05-18 16:11:00,
2013-05-18 12:12:00,71.3,38.3,30.27,South,190,1.0,5.0,30,0.00,,---,0.00,VWS V14.01,2013-05-18 16:12:00,
2013-05-18 12:13:00,71.3,39.1,30.27,South,190,1.0,5.0,31,0.00,,---,0.00,VWS V14.01,2013-05-18 16:13:00,
2013-05-18 12:14:00,71.5,39.3,30.27,WSW,257,1.0,5.0,31,0.00,,---,0.00,VWS V14.01,2013-05-18 16:14:00,
2013-05-18 12:15:00,71.5,39.3,30.26,WSW,258,0.0,5.0,31,0.00,,---,0.00,VWS V14.01,2013-05-18 16:15:00,
2013-05-18 12:16:00,71.5,39.3,30.26,WSW,258,0.0,1.0,31,0.00,,---,0.00,VWS V14.01,2013-05-18 16:16:00,
2013-05-18 12:17:00,71.5,39.3,30.26,WSW,258,0.0,1.0,31,0.00,,---,0.00,VWS V14.01,2013-05-18 16:17:00,
2013-05-18 12:18:00,71.5,41.7,30.26,ENE,71,1.0,3.0,34,0.00,,---,0.00,VWS V14.01,2013-05-18 16:18:00,
2013-05-18 12:19:00,71.5,42.4,30.26,ENE,71,1.0,3.0,35,0.00,,---,0.00,VWS V14.01,2013-05-18 16:19:00,
2013-05-18 12:20:00,71.5,43.9,30.26,ENE,71,0.0,3.0,37,0.00,,---,0.00,VWS V14.01,2013-05-18 16:20:00,
2013-05-18 12:21:00,71.5,44.6,30.26,ENE,71,0.0,1.0,38,0.00,,---,0.00,VWS V14.01,2013-05-18 16:21:00,
2013-05-18 12:22:00,71.5,45.3,30.26,SSW,198,1.0,4.0,39,0.00,,---,0.00,VWS V14.01,2013-05-18 16:22:00,
2013-05-18 12:23:00,71.3,45.1,30.26,South,172,0.0,4.0,39,0.00,,---,0.00,VWS V14.01,2013-05-18 16:23:00,
2013-05-18 12:24:00,71.3,45.1,30.26,SSW,200,0.0,4.0,39,0.00,,---,0.00,VWS V14.01,2013-05-18 16:24:00,
2013-05-18 12:25:00,71.1,45.6,30.26,SE,138,4.0,5.0,40,0.00,,---,0.00,VWS V14.01,2013-05-18 16:25:00,
2013-05-18 12:26:00,71.1,45.6,30.26,ENE,77,2.0,2.0,40,0.00,,---,0.00,VWS V14.01,2013-05-18 16:26:00,
2013-05-18 12:27:00,70.9,46.7,30.26,ESE,102,0.0,5.0,42,0.00,,---,0.00,VWS V14.01,2013-05-18 16:27:00,
2013-05-18 12:28:00,70.6,46.4,30.26,ESE,107,5.0,6.0,42,0.00,,---,0.00,VWS V14.01,2013-05-18 16:28:00,
2013-05-18 12:29:00,70.4,46.9,30.26,ESE,107,4.0,6.0,43,0.00,,---,0.00,VWS V14.01,2013-05-18 16:29:00,
2013-05-18 12:30:00,70.4,47.5,30.26,ESE,117,4.0,6.0,44,0.00,,---,0.00,VWS V14.01,2013-05-18 16:30:00,
2013-05-18 12:31:00,70.4,47.5,30.26,SE,130,5.0,6.0,44,0.00,,---,0.00,VWS V14.01,2013-05-18 16:31:00,
2013-05-18 12:32:00,70.3,46.8,30.26,ESE,106,2.0,11.0,43,0.00,,---,0.00,VWS V14.01,2013-05-18 16:32:00,
2013-05-18 12:33:00,70.3,46.8,30.26,SE,140,6.0,11.0,43,0.00,,---,0.00,VWS V14.01,2013-05-18 16:33:00,
2013-05-18 12:34:00,70.3,46.2,30.26,SSE,151,6.0,11.0,42,0.00,,---,0.00,VWS V14.01,2013-05-18 16:34:00,
2013-05-18 12:35:00,70.1,46.0,30.26,East,101,5.0,11.0,42,0.00,,---,0.00,VWS V14.01,2013-05-18 16:35:00,
2013-05-18 12:36:00,70.1,46.0,30.26,SE,140,6.0,8.0,42,0.00,,---,0.00,VWS V14.01,2013-05-18 16:36:00,
2013-05-18 12:37:00,69.9,45.8,30.26,SSW,208,4.0,8.0,42,0.00,,---,0.00,VWS V14.01,2013-05-18 16:37:00,
2013-05-18 12:38:00,69.9,45.8,30.26,SSE,150,7.0,9.0,42,0.00,,---,0.00,VWS V14.01,2013-05-18 16:38:00,
2013-05-18 12:39:00,69.9,45.2,30.26,SSW,197,4.0,9.0,41,0.00,,---,0.00,VWS V14.01,2013-05-18 16:39:00,
2013-05-18 12:40:00,69.9,46.4,30.26,SE,140,1.0,9.0,43,0.00,,---,0.00,VWS V14.01,2013-05-18 16:40:00,
2013-05-18 12:41:00,69.9,45.8,30.26,SE,145,6.0,6.0,42,0.00,,---,0.00,VWS V14.01,2013-05-18 16:41:00,
2013-05-18 12:42:00,69.9,45.8,30.26,SE,135,4.0,6.0,42,0.00,,---,0.00,VWS V14.01,2013-05-18 16:42:00,
2013-05-18 12:43:00,69.9,45.2,30.26,SSW,195,0.0,6.0,41,0.00,,---,0.00,VWS V14.01,2013-05-18 16:43:00,
2013-05-18 12:44:00,69.9,45.2,30.26,SE,134,0.0,7.0,41,0.00,,---,0.00,VWS V14.01,2013-05-18 16:44:00,
2013-05-18 12:45:00,69.9,45.8,30.26,SE,134,1.0,7.0,42,0.00,,---,0.00,VWS V14.01,2013-05-18 16:45:00,
2013-05-18 12:46:00,69.9,45.8,30.26,ESE,121,5.0,6.0,42,0.00,,---,0.00,VWS V14.01,2013-05-18 16:46:00,
2013-05-18 12:47:00,69.9,45.8,30.26,ESE,121,1.0,6.0,42,0.00,,---,0.00,VWS V14.01,2013-05-18 16:47:00,
2013-05-18 12:48:00,69.9,45.8,30.26,SE,141,4.0,7.0,42,0.00,,---,0.00,VWS V14.01,2013-05-18 16:48:00,
2013-05-18 12:49:00,69.9,45.2,30.26,South,185,3.0,8.0,41,0.00,,---,0.00,VWS V14.01,2013-05-18 16:49:00,
2013-05-18 12:50:00,69.9,45.2,30.26,SSE,153,4.0,8.0,41,0.00,,---,0.00,VWS V14.01,2013-05-18 16:50:00,
2013-05-18 12:51:00,69.9,45.2,30.26,SSE,163,0.0,7.0,41,0.00,,---,0.00,VWS V14.01,2013-05-18 16:51:00,
2013-05-18 12:52:00,69.9,45.2,30.26,SSE,154,5.0,7.0,41,0.00,,---,0.00,VWS V14.01,2013-05-18 16:52:00,
2013-05-18 12:53:00,69.9,44.5,30.26,SSE,154,1.0,7.0,40,0.00,,---,0.00,VWS V14.01,2013-05-18 16:53:00,
2013-05-18 12:54:00,69.9,45.2,30.26,SE,142,2.0,8.0,41,0.00,,---,0.00,VWS V14.01,2013-05-18 16:54:00,
2013-05-18 12:55:00,69.9,43.8,30.26,South,187,2.0,8.0,39,0.00,,---,0.00,VWS V14.01,2013-05-18 16:55:00,
2013-05-18 12:56:00,69.9,43.2,30.26,SW,215,6.0,11.0,38,0.00,,---,0.00,VWS V14.01,2013-05-18 16:56:00,
2013-05-18 12:57:00,69.8,43.8,30.26,South,171,0.0,11.0,39,0.00,,---,0.00,VWS V14.01,2013-05-18 16:57:00,
2013-05-18 12:58:00,69.8,43.8,30.26,SSE,150,1.0,11.0,39,0.00,,---,0.00,VWS V14.01,2013-05-18 16:58:00,
2013-05-18 12:59:00,69.8,43.8,30.26,ESE,107,1.0,11.0,39,0.00,,---,0.00,VWS V14.01,2013-05-18 16:59:00,
2013-05-18 13:00:00,69.8,45.1,30.26,ESE,107,1.0,11.0,41,0.00,,---,0.00,VWS V14.01,2013-05-18 17:00:00,
2013-05-18 13:01:00,69.8,45.1,30.26,SSW,198,6.0,8.0,41,0.00,,---,0.00,VWS V14.01,2013-05-18 17:01:00,
2013-05-18 13:02:00,69.8,44.4,30.26,SE,127,6.0,11.0,40,0.00,,---,0.00,VWS V14.01,2013-05-18 17:02:00,
2013-05-18 13:03:00,69.6,43.6,30.26,South,176,2.0,11.0,39,0.00,,---,0.00,VWS V14.01,2013-05-18 17:03:00,
2013-05-18 13:04:00,69.6,43.6,30.26,SSW,202,5.0,11.0,39,0.00,,---,0.00,VWS V14.01,2013-05-18 17:04:00,
2013-05-18 13:05:00,69.4,43.4,30.26,SSW,198,5.0,11.0,39,0.00,,---,0.00,VWS V14.01,2013-05-18 17:05:00,
2013-05-18 13:06:00,69.4,43.4,30.26,SSW,192,4.0,8.0,39,0.00,,---,0.00,VWS V14.01,2013-05-18 17:06:00,
2013-05-18 13:07:00,69.4,43.4,30.26,SSW,207,5.0,9.0,39,0.00,,---,0.00,VWS V14.01,2013-05-18 17:07:00,
2013-05-18 13:08:00,69.4,43.4,30.26,SE,144,4.0,12.0,39,0.00,,---,0.00,VWS V14.01,2013-05-18 17:08:00,
2013-05-18 13:09:00,69.3,43.3,30.26,SE,145,4.0,12.0,39,0.00,,---,0.00,VWS V14.01,2013-05-18 17:09:00,
2013-05-18 13:10:00,69.3,44.0,30.26,South,179,2.0,12.0,40,0.00,,---,0.00,VWS V14.01,2013-05-18 17:10:00,
2013-05-18 13:11:00,69.3,44.0,30.26,South,176,6.0,7.0,40,0.00,,---,0.00,VWS V14.01,2013-05-18 17:11:00,
2013-05-18 13:12:00,69.3,44.0,30.26,SSE,153,1.0,7.0,40,0.00,,---,0.00,VWS V14.01,2013-05-18 17:12:00,
2013-05-18 13:13:00,69.3,44.0,30.26,SE,128,7.0,7.0,40,0.00,,---,0.00,VWS V14.01,2013-05-18 17:13:00,
2013-05-18 13:14:00,69.3,43.3,30.26,SSE,155,5.0,7.0,39,0.00,,---,0.00,VWS V14.01,2013-05-18 17:14:00,
2013-05-18 13:15:00,69.1,43.8,30.25,South,169,1.0,7.0,40,0.00,,---,0.00,VWS V14.01,2013-05-18 17:15:00,
2013-05-18 13:16:00,69.1,43.1,30.25,SSW,196,1.0,11.0,39,0.00,,---,0.00,VWS V14.01,2013-05-18 17:16:00,
2013-05-18 13:17:00,69.1,43.1,30.25,SSE,165,2.0,11.0,39,0.00,,---,0.00,VWS V14.01,2013-05-18 17:17:00,
2013-05-18 13:18:00,69.1,43.8,30.25,South,189,4.0,11.0,40,0.00,,---,0.00,VWS V14.01,2013-05-18 17:18:00,
2013-05-18 13:19:00,69.1,43.8,30.25,SSW,202,3.0,11.0,40,0.00,,---,0.00,VWS V14.01,2013-05-18 17:19:00,
2013-05-18 13:20:00,69.1,43.8,30.25,SSW,204,1.0,11.0,40,0.00,,---,0.00,VWS V14.01,2013-05-18 17:20:00,
2013-05-18 13:21:00,69.1,43.8,30.25,SSW,198,5.0,7.0,40,0.00,,---,0.00,VWS V14.01,2013-05-18 17:21:00,
2013-05-18 13:22:00,69.1,43.8,30.25,SSW,200,6.0,9.0,40,0.00,,---,0.00,VWS V14.01,2013-05-18 17:22:00,
2013-05-18 13:23:00,69.1,43.8,30.25,SE,142,5.0,9.0,40,0.00,,---,0.00,VWS V14.01,2013-05-18 17:23:00,
2013-05-18 13:24:00,69.1,43.8,30.25,South,191,7.0,9.0,40,0.00,,---,0.00,VWS V14.01,2013-05-18 17:24:00,
2013-05-18 13:25:00,69.1,43.8,30.25,South,183,5.0,10.0,40,0.00,,---,0.00,VWS V14.01,2013-05-18 17:25:00,
2013-05-18 13:26:00,69.1,43.8,30.25,South,187,4.0,8.0,40,0.00,,---,0.00,VWS V14.01,2013-05-18 17:26:00,
2013-05-18 13:27:00,69.1,43.8,30.25,SSW,206,2.0,8.0,40,0.00,,---,0.00,VWS V14.01,2013-05-18 17:27:00,
2013-05-18 13:28:00,69.1,43.8,30.25,SSW,194,10.0,10.0,40,0.00,,---,0.00,VWS V14.01,2013-05-18 17:28:00,
2013-05-18 13:29:00,69.1,43.1,30.25,SSW,195,4.0,10.0,39,0.00,,---,0.00,VWS V14.01,2013-05-18 17:29:00,
2013-05-18 13:30:00,69.1,43.1,30.25,SSW,199,5.0,10.0,39,0.00,,---,0.00,VWS V14.01,2013-05-18 17:30:00,
2013-05-18 13:31:00,68.9,43.0,30.25,SSW,201,1.0,5.0,39,0.00,,---,0.00,VWS V14.01,2013-05-18 17:31:00,
2013-05-18 13:32:00,68.9,43.6,30.25,SSW,193,1.0,7.0,40,0.00,,---,0.00,VWS V14.01,2013-05-18 17:32:00,
2013-05-18 13:33:00,68.9,43.6,30.25,SSW,193,3.0,7.0,40,0.00,,---,0.00,VWS V14.01,2013-05-18 17:33:00,
2013-05-18 13:34:00,68.9,43.6,30.25,South,182,3.0,7.0,40,0.00,,---,0.00,VWS V14.01,2013-05-18 17:34:00,
2013-05-18 13:35:00,69.1,43.8,30.25,SSW,192,5.0,7.0,40,0.00,,---,0.00,VWS V14.01,2013-05-18 17:35:00,
2013-05-18 13:36:00,69.1,44.4,30.25,SSW,192,2.0,4.0,41,0.00,,---,0.00,VWS V14.01,2013-05-18 17:36:00,
2013-05-18 13:37:00,69.1,44.4,30.25,South,186,3.0,4.0,41,0.00,,---,0.00,VWS V14.01,2013-05-18 17:37:00,
2013-05-18 13:38:00,69.1,43.8,30.25,SSW,192,7.0,7.0,40,0.00,,---,0.00,VWS V14.01,2013-05-18 17:38:00,
2013-05-18 13:39:00,69.1,43.8,30.25,South,191,1.0,7.0,40,0.00,,---,0.00,VWS V14.01,2013-05-18 17:39:00,
2013-05-18 13:40:00,69.1,43.8,30.25,SSW,195,0.0,7.0,40,0.00,,---,0.00,VWS V14.01,2013-05-18 17:40:00,
2013-05-18 13:41:00,69.1,44.4,30.25,SSW,196,4.0,5.0,41,0.00,,---,0.00,VWS V14.01,2013-05-18 17:41:00,
2013-05-18 13:42:00,69.3,44.6,30.25,South,191,2.0,5.0,41,0.00,,---,0.00,VWS V14.01,2013-05-18 17:42:00,
2013-05-18 13:43:00,69.3,44.6,30.25,South,171,4.0,5.0,41,0.00,,---,0.00,VWS V14.01,2013-05-18 17:43:00,
2013-05-18 13:44:00,69.4,44.1,30.25,South,181,5.0,9.0,40,0.00,,---,0.00,VWS V14.01,2013-05-18 17:44:00,
2013-05-18 13:45:00,69.3,44.0,30.25,SSW,202,2.0,9.0,40,0.00,,---,0.00,VWS V14.01,2013-05-18 17:45:00,
2013-05-18 13:46:00,69.4,44.1,30.25,SW,214,4.0,4.0,40,0.00,,---,0.00,VWS V14.01,2013-05-18 17:46:00,
2013-05-18 13:47:00,69.4,44.1,30.25,SSW,209,5.0,7.0,40,0.00,,---,0.00,VWS V14.01,2013-05-18 17:47:00,
2013-05-18 13:48:00,69.3,44.0,30.25,SW,215,4.0,7.0,40,0.00,,---,0.00,VWS V14.01,2013-05-18 17:48:00,
2013-05-18 13:49:00,69.3,44.0,30.25,SW,219,2.0,7.0,40,0.00,,---,0.00,VWS V14.01,2013-05-18 17:49:00,
2013-05-18 13:50:00,69.3,44.0,30.25,SW,232,3.0,7.0,40,0.00,,---,0.00,VWS V14.01,2013-05-18 17:50:00,
2013-05-18 13:51:00,69.3,44.0,30.25,WSW,239,4.0,5.0,40,0.00,,---,0.00,VWS V14.01,2013-05-18 17:51:00,
2013-05-18 13:52:00,69.3,44.0,30.25,SSW,192,5.0,5.0,40,0.00,,---,0.00,VWS V14.01,2013-05-18 17:52:00,
2013-05-18 13:53:00,69.3,44.0,30.25,SSW,211,0.0,5.0,40,0.00,,---,0.00,VWS V14.01,2013-05-18 17:53:00,
2013-05-18 13:54:00,69.3,44.0,30.25,SW,234,0.0,5.0,40,0.00,,---,0.00,VWS V14.01,2013-05-18 17:54:00,
2013-05-18 13:55:00,69.3,44.6,30.25,SW,234,3.0,5.0,41,0.00,,---,0.00,VWS V14.01,2013-05-18 17:55:00,
2013-05-18 13:56:00,69.3,44.6,30.25,SW,234,0.0,2.0,41,0.00,,---,0.00,VWS V14.01,2013-05-18 17:56:00,
2013-05-18 13:57:00,69.3,44.6,30.25,SSW,212,2.0,8.0,41,0.00,,---,0.00,VWS V14.01,2013-05-18 17:57:00,
2013-05-18 13:58:00,69.3,44.0,30.25,SSW,198,3.0,8.0,40,0.00,,---,0.00,VWS V14.01,2013-05-18 17:58:00,
2013-05-18 13:59:00,69.3,44.0,30.25,SSW,192,8.0,8.0,40,0.00,,---,0.00,VWS V14.01,2013-05-18 17:59:00,
2013-05-18 14:00:00,69.3,44.6,30.24,SSW,212,3.0,8.0,41,0.00,,---,0.00,VWS V14.01,2013-05-18 18:00:00,
2013-05-18 14:01:00,69.3,44.0,30.24,SSW,207,0.0,5.0,40,0.00,,---,0.00,VWS V14.01,2013-05-18 18:01:00,
2013-05-18 14:02:00,69.1,43.1,30.24,SSW,199,3.0,9.0,39,0.00,,---,0.00,VWS V14.01,2013-05-18 18:02:00,
2013-05-18 14:03:00,69.1,43.8,30.24,SW,221,1.0,9.0,40,0.00,,---,0.00,VWS V14.01,2013-05-18 18:03:00,
2013-05-18 14:04:00,69.1,44.4,30.24,SW,221,0.0,9.0,41,0.00,,---,0.00,VWS V14.01,2013-05-18 18:04:00,
2013-05-18 14:05:00,69.1,44.4,30.24,WSW,252,1.0,9.0,41,0.00,,---,0.00,VWS V14.01,2013-05-18 18:05:00,
2013-05-18 14:06:00,69.3,44.6,30.24,South,176,5.0,7.0,41,0.00,,---,0.00,VWS V14.01,2013-05-18 18:06:00,
2013-05-18 14:07:00,69.3,45.2,30.24,SSW,192,0.0,7.0,42,0.00,,---,0.00,VWS V14.01,2013-05-18 18:07:00,
2013-05-18 14:08:00,69.3,45.2,30.24,SSW,192,0.0,7.0,42,0.00,,---,0.00,VWS V14.01,2013-05-18 18:08:00,
2013-05-18 14:09:00,69.3,44.6,30.24,SSW,199,2.0,7.0,41,0.00,,---,0.00,VWS V14.01,2013-05-18 18:09:00,
2013-05-18 14:10:00,69.3,45.2,30.24,South,182,8.0,8.0,42,0.00,,---,0.00,VWS V14.01,2013-05-18 18:10:00,
2013-05-18 14:11:00,69.3,44.0,30.24,SW,222,2.0,7.0,40,0.00,,---,0.00,VWS V14.01,2013-05-18 18:11:00,
2013-05-18 14:12:00,69.3,44.6,30.24,SSW,211,3.0,7.0,41,0.00,,---,0.00,VWS V14.01,2013-05-18 18:12:00,
2013-05-18 14:13:00,69.3,44.6,30.24,SSW,205,3.0,7.0,41,0.00,,---,0.00,VWS V14.01,2013-05-18 18:13:00,
2013-05-18 14:14:00,69.3,44.6,30.24,SSW,200,3.0,7.0,41,0.00,,---,0.00,VWS V14.01,2013-05-18 18:14:00,
2013-05-18 14:15:00,69.3,45.2,30.24,SSW,205,2.0,7.0,42,0.00,,---,0.00,VWS V14.01,2013-05-18 18:15:00,
2013-05-18 14:16:00,69.3,45.2,30.24,SSW,198,1.0,7.0,42,0.00,,---,0.00,VWS V14.01,2013-05-18 18:16:00,
2013-05-18 14:17:00,69.3,44.6,30.24,SSW,195,4.0,8.0,41,0.00,,---,0.00,VWS V14.01,2013-05-18 18:17:00,
2013-05-18 14:18:00,69.3,44.6,30.24,South,191,2.0,8.0,41,0.00,,---,0.00,VWS V14.01,2013-05-18 18:18:00,
2013-05-18 14:19:00,69.3,45.9,30.24,SSW,212,3.0,8.0,43,0.00,,---,0.00,VWS V14.01,2013-05-18 18:19:00,
2013-05-18 14:20:00,69.3,45.9,30.24,SSW,212,3.0,8.0,43,0.00,,---,0.00,VWS V14.01,2013-05-18 18:20:00,
2013-05-18 14:21:00,69.3,45.2,30.24,SSW,194,3.0,9.0,42,0.00,,---,0.00,VWS V14.01,2013-05-18 18:21:00,
2013-05-18 14:22:00,69.3,44.6,30.24,SSW,210,3.0,9.0,41,0.00,,---,0.00,VWS V14.01,2013-05-18 18:22:00,
2013-05-18 14:23:00,69.3,45.2,30.24,SSW,197,2.0,9.0,42,0.00,,---,0.00,VWS V14.01,2013-05-18 18:23:00,
2013-05-18 14:24:00,69.3,45.9,30.24,South,175,1.0,9.0,43,0.00,,---,0.00,VWS V14.01,2013-05-18 18:24:00,
2013-05-18 14:25:00,69.3,45.9,30.24,SSW,210,4.0,9.0,43,0.00,,---,0.00,VWS V14.01,2013-05-18 18:25:00,
2013-05-18 14:26:00,69.3,46.5,30.24,SSW,213,2.0,4.0,44,0.00,,---,0.00,VWS V14.01,2013-05-18 18:26:00,
2013-05-18 14:27:00,69.3,45.9,30.24,South,191,5.0,6.0,43,0.00,,---,0.00,VWS V14.01,2013-05-18 18:27:00,
2013-05-18 14:28:00,69.3,45.9,30.24,South,182,1.0,6.0,43,0.00,,---,0.00,VWS V14.01,2013-05-18 18:28:00,
2013-05-18 14:29:00,69.3,45.2,30.24,SSW,195,0.0,6.0,42,0.00,,---,0.00,VWS V14.01,2013-05-18 18:29:00,
2013-05-18 14:30:00,69.3,45.2,30.24,SSW,209,3.0,6.0,42,0.00,,---,0.00,VWS V14.01,2013-05-18 18:30:00,
2013-05-18 14:31:00,69.3,45.2,30.24,South,185,5.0,5.0,42,0.00,,---,0.00,VWS V14.01,2013-05-18 18:31:00,
2013-05-18 14:32:00,69.3,45.2,30.24,South,175,0.0,8.0,42,0.00,,---,0.00,VWS V14.01,2013-05-18 18:32:00,
2013-05-18 14:33:00,69.3,45.2,30.24,South,185,4.0,8.0,42,0.00,,---,0.00,VWS V14.01,2013-05-18 18:33:00,
2013-05-18 14:34:00,69.3,45.2,30.24,SSW,211,3.0,8.0,42,0.00,,---,0.00,VWS V14.01,2013-05-18 18:34:00,
2013-05-18 14:35:00,69.3,45.2,30.24,SSW,201,4.0,8.0,42,0.00,,---,0.00,VWS V14.01,2013-05-18 18:35:00,
2013-05-18 14:36:00,69.3,45.9,30.24,SSW,203,2.0,4.0,43,0.00,,---,0.00,VWS V14.01,2013-05-18 18:36:00,
2013-05-18 14:37:00,69.3,45.9,30.24,SSW,199,3.0,5.0,43,0.00,,---,0.00,VWS V14.01,2013-05-18 18:37:00,
2013-05-18 14:38:00,69.3,45.9,30.24,South,191,3.0,5.0,43,0.00,,---,0.00,VWS V14.01,2013-05-18 18:38:00,
2013-05-18 14:39:00,69.3,45.9,30.24,SSW,197,0.0,5.0,43,0.00,,---,0.00,VWS V14.01,2013-05-18 18:39:00,
2013-05-18 14:40:00,69.3,46.5,30.24,SSW,197,0.0,5.0,44,0.00,,---,0.00,VWS V14.01,2013-05-18 18:40:00,
2013-05-18 14:41:00,69.3,46.5,30.24,SSW,200,4.0,7.0,44,0.00,,---,0.00,VWS V14.01,2013-05-18 18:41:00,
2013-05-18 14:42:00,69.3,46.5,30.24,SSW,192,2.0,7.0,44,0.00,,---,0.00,VWS V14.01,2013-05-18 18:42:00,
2013-05-18 14:43:00,69.1,45.7,30.24,SSW,194,5.0,8.0,43,0.00,,---,0.00,VWS V14.01,2013-05-18 18:43:00,
2013-05-18 14:44:00,69.1,45.7,30.24,SSW,192,5.0,8.0,43,0.00,,---,0.00,VWS V14.01,2013-05-18 18:44:00,
2013-05-18 14:45:00,69.1,45.7,30.24,SSW,209,5.0,8.0,43,0.00,,---,0.00,VWS V14.01,2013-05-18 18:45:00,
2013-05-18 14:46:00,69.1,45.7,30.24,SSW,209,3.0,8.0,43,0.00,,---,0.00,VWS V14.01,2013-05-18 18:46:00,
2013-05-18 14:47:00,69.1,45.1,30.24,SSW,194,5.0,8.0,42,0.00,,---,0.00,VWS V14.01,2013-05-18 18:47:00,
2013-05-18 14:48:00,69.1,45.1,30.24,SW,214,7.0,8.0,42,0.00,,---,0.00,VWS V14.01,2013-05-18 18:48:00,
2013-05-18 14:49:00,68.9,44.9,30.24,SSW,198,4.0,8.0,42,0.00,,---,0.00,VWS V14.01,2013-05-18 18:49:00,
2013-05-18 14:50:00,68.9,44.9,30.24,SSW,194,3.0,8.0,42,0.00,,---,0.00,VWS V14.01,2013-05-18 18:50:00,
2013-05-18 14:51:00,68.9,44.9,30.24,SSW,202,4.0,7.0,42,0.00,,---,0.00,VWS V14.01,2013-05-18 18:51:00,
2013-05-18 14:52:00,68.9,45.5,30.24,SW,214,3.0,7.0,43,0.00,,---,0.00,VWS V14.01,2013-05-18 18:52:00,
2013-05-18 14:53:00,68.9,44.9,30.24,SSW,198,4.0,7.0,42,0.00,,---,0.00,VWS V14.01,2013-05-18 18:53:00,
2013-05-18 14:54:00,68.9,45.5,30.24,SSW,202,4.0,7.0,43,0.00,,---,0.00,VWS V14.01,2013-05-18 18:54:00,
2013-05-18 14:55:00,68.9,45.5,30.24,SSW,200,1.0,7.0,43,0.00,,---,0.00,VWS V14.01,2013-05-18 18:55:00,
2013-05-18 14:56:00,68.8,45.4,30.24,SSW,213,5.0,6.0,43,0.00,,---,0.00,VWS V14.01,2013-05-18 18:56:00,
2013-05-18 14:57:00,68.8,44.8,30.24,SSW,200,1.0,6.0,42,0.00,,---,0.00,VWS V14.01,2013-05-18 18:57:00,
2013-05-18 14:58:00,68.8,45.4,30.24,SSW,194,6.0,6.0,43,0.00,,---,0.00,VWS V14.01,2013-05-18 18:58:00,
2013-05-18 14:59:00,68.8,44.8,30.24,SSW,198,4.0,6.0,42,0.00,,---,0.00,VWS V14.01,2013-05-18 18:59:00,
2013-05-18 15:00:00,68.8,44.8,30.24,SSW,197,1.0,6.0,42,0.00,,---,0.00,VWS V14.01,2013-05-18 19:00:00,
2013-05-18 15:01:00,68.8,45.4,30.24,SSW,202,2.0,4.0,43,0.00,,---,0.00,VWS V14.01,2013-05-18 19:01:00,
2013-05-18 15:02:00,68.8,45.4,30.24,SSW,200,3.0,6.0,43,0.00,,---,0.00,VWS V14.01,2013-05-18 19:02:00,
2013-05-18 15:03:00,68.8,45.4,30.24,SSW,203,3.0,6.0,43,0.00,,---,0.00,VWS V14.01,2013-05-18 19:03:00,
2013-05-18 15:04:00,68.8,45.4,30.24,South,178,2.0,6.0,43,0.00,,---,0.00,VWS V14.01,2013-05-18 19:04:00,
2013-05-18 15:05:00,68.8,45.4,30.24,South,178,0.0,6.0,43,0.00,,---,0.00,VWS V14.01,2013-05-18 19:05:00,
2013-05-18 15:06:00,68.8,45.4,30.24,South,188,3.0,4.0,43,0.00,,---,0.00,VWS V14.01,2013-05-18 19:06:00,
2013-05-18 15:07:00,68.8,44.8,30.24,SSW,205,0.0,5.0,42,0.00,,---,0.00,VWS V14.01,2013-05-18 19:07:00,
2013-05-18 15:08:00,68.8,46.0,30.24,SSW,197,1.0,5.0,44,0.00,,---,0.00,VWS V14.01,2013-05-18 19:08:00,
2013-05-18 15:09:00,68.8,46.0,30.24,SSW,206,2.0,5.0,44,0.00,,---,0.00,VWS V14.01,2013-05-18 19:09:00,
2013-05-18 15:10:00,68.8,45.4,30.24,SW,218,3.0,5.0,43,0.00,,---,0.00,VWS V14.01,2013-05-18 19:10:00,
2013-05-18 15:11:00,68.8,45.4,30.24,WSW,254,2.0,6.0,43,0.00,,---,0.00,VWS V14.01,2013-05-18 19:11:00,
2013-05-18 15:12:00,68.8,45.4,30.24,WSW,244,3.0,6.0,43,0.00,,---,0.00,VWS V14.01,2013-05-18 19:12:00,
2013-05-18 15:13:00,68.6,44.6,30.24,SW,227,0.0,6.0,42,0.00,,---,0.00,VWS V14.01,2013-05-18 19:13:00,
2013-05-18 15:14:00,68.6,44.6,30.24,WSW,238,3.0,6.0,42,0.00,,---,0.00,VWS V14.01,2013-05-18 19:14:00,
2013-05-18 15:15:00,68.6,44.6,30.24,SW,218,2.0,7.0,42,0.00,,---,0.00,VWS V14.01,2013-05-18 19:15:00,
2013-05-18 15:16:00,68.6,44.6,30.24,West,266,3.0,6.0,42,0.00,,---,0.00,VWS V14.01,2013-05-18 19:16:00,
2013-05-18 15:17:00,68.6,44.6,30.24,South,173,2.0,6.0,42,0.00,,---,0.00,VWS V14.01,2013-05-18 19:17:00,
2013-05-18 15:18:00,68.6,44.6,30.24,SSW,211,2.0,6.0,42,0.00,,---,0.00,VWS V14.01,2013-05-18 19:18:00,
2013-05-18 15:19:00,68.6,44.6,30.24,SW,236,1.0,6.0,42,0.00,,---,0.00,VWS V14.01,2013-05-18 19:19:00,
2013-05-18 15:20:00,68.6,44.6,30.24,SW,218,1.0,6.0,42,0.00,,---,0.00,VWS V14.01,2013-05-18 19:20:00,
2013-05-18 15:21:00,68.6,44.6,30.24,SSW,202,6.0,7.0,42,0.00,,---,0.00,VWS V14.01,2013-05-18 19:21:00,
2013-05-18 15:22:00,68.4,44.4,30.24,SSW,209,4.0,7.0,42,0.00,,---,0.00,VWS V14.01,2013-05-18 19:22:00,
2013-05-18 15:23:00,68.4,45.0,30.24,SSW,207,5.0,7.0,43,0.00,,---,0.00,VWS V14.01,2013-05-18 19:23:00,
2013-05-18 15:24:00,68.4,44.4,30.24,SW,236,3.0,7.0,42,0.00,,---,0.00,VWS V14.01,2013-05-18 19:24:00,
2013-05-18 15:25:00,68.4,45.0,30.24,SW,230,3.0,7.0,43,0.00,,---,0.00,VWS V14.01,2013-05-18 19:25:00,
2013-05-18 15:26:00,68.4,45.0,30.24,SW,223,2.0,3.0,43,0.00,,---,0.00,VWS V14.01,2013-05-18 19:26:00,
2013-05-18 15:27:00,68.4,45.0,30.24,SW,215,4.0,6.0,43,0.00,,---,0.00,VWS V14.01,2013-05-18 19:27:00,
2013-05-18 15:28:00,68.4,45.0,30.24,SW,214,1.0,7.0,43,0.00,,---,0.00,VWS V14.01,2013-05-18 19:28:00,
2013-05-18 15:29:00,68.4,45.7,30.24,WSW,242,5.0,7.0,44,0.00,,---,0.00,VWS V14.01,2013-05-18 19:29:00,
2013-05-18 15:30:00,68.4,45.0,30.24,SW,221,1.0,7.0,43,0.00,,---,0.00,VWS V14.01,2013-05-18 19:30:00,
2013-05-18 15:31:00,68.4,45.0,30.24,SW,232,5.0,7.0,43,0.00,,---,0.00,VWS V14.01,2013-05-18 19:31:00,
2013-05-18 15:32:00,68.4,45.0,30.24,WSW,237,4.0,7.0,43,0.00,,---,0.00,VWS V14.01,2013-05-18 19:32:00,
2013-05-18 15:33:00,68.4,45.0,30.24,SW,235,3.0,7.0,43,0.00,,---,0.00,VWS V14.01,2013-05-18 19:33:00,
2013-05-18 15:34:00,68.4,45.0,30.24,SW,236,3.0,7.0,43,0.00,,---,0.00,VWS V14.01,2013-05-18 19:34:00,
2013-05-18 15:35:00,68.4,45.0,30.24,South,187,5.0,7.0,43,0.00,,---,0.00,VWS V14.01,2013-05-18 19:35:00,
2013-05-18 15:36:00,68.4,45.0,30.24,SW,219,3.0,6.0,43,0.00,,---,0.00,VWS V14.01,2013-05-18 19:36:00,
2013-05-18 15:37:00,68.3,45.0,30.24,SW,217,2.0,6.0,43,0.00,,---,0.00,VWS V14.01,2013-05-18 19:37:00,
2013-05-18 15:38:00,68.3,45.0,30.24,WSW,242,3.0,6.0,43,0.00,,---,0.00,VWS V14.01,2013-05-18 19:38:00,
2013-05-18 15:39:00,68.3,45.0,30.24,WSW,255,4.0,6.0,43,0.00,,---,0.00,VWS V14.01,2013-05-18 19:39:00,
2013-05-18 15:40:00,68.3,45.0,30.24,SW,231,5.0,7.0,43,0.00,,---,0.00,VWS V14.01,2013-05-18 19:40:00,
2013-05-18 15:41:00,68.3,44.3,30.24,SW,222,0.0,5.0,42,0.00,,---,0.00,VWS V14.01,2013-05-18 19:41:00,
2013-05-18 15:42:00,68.3,45.0,30.24,SW,222,2.0,5.0,43,0.00,,---,0.00,VWS V14.01,2013-05-18 19:42:00,
2013-05-18 15:43:00,68.3,45.0,30.24,SW,222,0.0,5.0,43,0.00,,---,0.00,VWS V14.01,2013-05-18 19:43:00,
2013-05-18 15:44:00,68.3,45.6,30.24,SW,222,1.0,5.0,44,0.00,,---,0.00,VWS V14.01,2013-05-18 19:44:00,
2013-05-18 15:45:00,68.3,45.6,30.24,SW,222,0.0,5.0,44,0.00,,---,0.00,VWS V14.01,2013-05-18 19:45:00,
2013-05-18 15:46:00,68.3,45.6,30.24,WSW,244,4.0,4.0,44,0.00,,---,0.00,VWS V14.01,2013-05-18 19:46:00,
2013-05-18 15:47:00,68.4,45.7,30.24,West,259,5.0,5.0,44,0.00,,---,0.00,VWS V14.01,2013-05-18 19:47:00,
2013-05-18 15:48:00,68.4,45.7,30.24,WSW,251,3.0,5.0,44,0.00,,---,0.00,VWS V14.01,2013-05-18 19:48:00,
2013-05-18 15:49:00,68.4,45.7,30.24,WSW,252,3.0,5.0,44,0.00,,---,0.00,VWS V14.01,2013-05-18 19:49:00,
2013-05-18 15:50:00,68.4,45.7,30.24,WSW,252,4.0,5.0,44,0.00,,---,0.00,VWS V14.01,2013-05-18 19:50:00,
2013-05-18 15:51:00,68.4,45.7,30.24,WSW,252,0.0,3.0,44,0.00,,---,0.00,VWS V14.01,2013-05-18 19:51:00,
2013-05-18 15:52:00,68.4,46.2,30.24,WSW,252,0.0,3.0,45,0.00,,---,0.00,VWS V14.01,2013-05-18 19:52:00,
2013-05-18 15:53:00,68.4,46.8,30.24,SW,221,2.0,4.0,46,0.00,,---,0.00,VWS V14.01,2013-05-18 19:53:00,
2013-05-18 15:54:00,68.4,46.8,30.24,SW,221,0.0,4.0,46,0.00,,---,0.00,VWS V14.01,2013-05-18 19:54:00,
2013-05-18 15:55:00,68.4,46.8,30.24,SSW,204,3.0,4.0,46,0.00,,---,0.00,VWS V14.01,2013-05-18 19:55:00,
2013-05-18 15:56:00,68.4,46.8,30.24,SW,232,3.0,5.0,46,0.00,,---,0.00,VWS V14.01,2013-05-18 19:56:00,
2013-05-18 15:57:00,68.4,47.4,30.24,WSW,242,4.0,6.0,47,0.00,,---,0.00,VWS V14.01,2013-05-18 19:57:00,
2013-05-18 15:58:00,68.4,46.2,30.24,WSW,246,5.0,6.0,45,0.00,,---,0.00,VWS V14.01,2013-05-18 19:58:00,
2013-05-18 15:59:00,68.4,46.2,30.24,WSW,243,3.0,6.0,45,0.00,,---,0.00,VWS V14.01,2013-05-18 19:59:00,
2013-05-18 16:00:00,68.4,46.2,30.24,WSW,252,8.0,8.0,45,0.00,,---,0.00,VWS V14.01,2013-05-18 20:00:00,
2013-05-18 16:01:00,68.3,46.2,30.24,SW,236,5.0,8.0,45,0.00,,---,0.00,VWS V14.01,2013-05-18 20:01:00,
2013-05-18 16:02:00,68.3,46.2,30.24,WSW,242,5.0,8.0,45,0.00,,---,0.00,VWS V14.01,2013-05-18 20:02:00,
2013-05-18 16:03:00,68.3,45.6,30.24,WSW,237,6.0,8.0,44,0.00,,---,0.00,VWS V14.01,2013-05-18 20:03:00,
2013-05-18 16:04:00,68.1,45.4,30.24,WSW,238,4.0,8.0,44,0.00,,---,0.00,VWS V14.01,2013-05-18 20:04:00,
2013-05-18 16:05:00,68.1,46.0,30.24,WSW,252,3.0,8.0,45,0.00,,---,0.00,VWS V14.01,2013-05-18 20:05:00,
2013-05-18 16:06:00,68.1,46.0,30.24,SW,230,4.0,9.0,45,0.00,,---,0.00,VWS V14.01,2013-05-18 20:06:00,
2013-05-18 16:07:00,68.1,45.4,30.24,SW,236,3.0,9.0,44,0.00,,---,0.00,VWS V14.01,2013-05-18 20:07:00,
2013-05-18 16:08:00,67.9,45.2,30.24,SW,236,7.0,9.0,44,0.00,,---,0.00,VWS V14.01,2013-05-18 20:08:00,
2013-05-18 16:09:00,67.9,45.8,30.24,WSW,245,3.0,9.0,45,0.00,,---,0.00,VWS V14.01,2013-05-18 20:09:00,
2013-05-18 16:10:00,67.9,45.8,30.24,WSW,238,4.0,9.0,45,0.00,,---,0.00,VWS V14.01,2013-05-18 20:10:00,
2013-05-18 16:11:00,67.9,45.8,30.24,SSW,213,2.0,6.0,45,0.00,,---,0.00,VWS V14.01,2013-05-18 20:11:00,
2013-05-18 16:12:00,67.8,45.7,30.24,WSW,253,4.0,6.0,45,0.00,,---,0.00,VWS V14.01,2013-05-18 20:12:00,
2013-05-18 16:13:00,67.8,45.7,30.24,WSW,240,2.0,6.0,45,0.00,,---,0.00,VWS V14.01,2013-05-18 20:13:00,
2013-05-18 16:14:00,67.8,45.1,30.24,WSW,240,0.0,6.0,44,0.00,,---,0.00,VWS V14.01,2013-05-18 20:14:00,
2013-05-18 16:15:00,67.8,45.7,30.25,WSW,244,0.0,6.0,45,0.00,,---,0.00,VWS V14.01,2013-05-18 20:15:00,
2013-05-18 16:16:00,67.8,45.7,30.25,WSW,255,1.0,3.0,45,0.00,,---,0.00,VWS V14.01,2013-05-18 20:16:00,
2013-05-18 16:17:00,67.8,45.7,30.25,WSW,251,2.0,3.0,45,0.00,,---,0.00,VWS V14.01,2013-05-18 20:17:00,
2013-05-18 16:18:00,67.8,45.7,30.25,WSW,249,3.0,5.0,45,0.00,,---,0.00,VWS V14.01,2013-05-18 20:18:00,
2013-05-18 16:19:00,67.8,45.7,30.25,WSW,246,2.0,5.0,45,0.00,,---,0.00,VWS V14.01,2013-05-18 20:19:00,
2013-05-18 16:20:00,67.8,45.7,30.25,WSW,251,0.0,5.0,45,0.00,,---,0.00,VWS V14.01,2013-05-18 20:20:00,
2013-05-18 16:21:00,67.8,45.7,30.25,WSW,244,4.0,4.0,45,0.00,,---,0.00,VWS V14.01,2013-05-18 20:21:00,
2013-05-18 16:22:00,67.8,45.1,30.25,WSW,244,2.0,5.0,44,0.00,,---,0.00,VWS V14.01,2013-05-18 20:22:00,
2013-05-18 16:23:00,67.6,45.5,30.25,WSW,240,4.0,5.0,45,0.00,,---,0.00,VWS V14.01,2013-05-18 20:23:00,
2013-05-18 16:24:00,67.6,44.3,30.25,SW,229,3.0,7.0,43,0.00,,---,0.00,VWS V14.01,2013-05-18 20:24:00,
2013-05-18 16:25:00,67.6,44.3,30.25,SW,229,3.0,7.0,43,0.00,,---,0.00,VWS V14.01,2013-05-18 20:25:00,
2013-05-18 16:26:00,67.6,44.9,30.25,SW,236,4.0,6.0,44,0.00,,---,0.00,VWS V14.01,2013-05-18 20:26:00,
2013-05-18 16:27:00,67.6,44.3,30.25,WSW,244,4.0,6.0,43,0.00,,---,0.00,VWS V14.01,2013-05-18 20:27:00,
2013-05-18 16:28:00,67.6,44.3,30.25,SW,232,2.0,6.0,43,0.00,,---,0.00,VWS V14.01,2013-05-18 20:28:00,
2013-05-18 16:29:00,67.6,44.9,30.25,WSW,257,2.0,6.0,44,0.00,,---,0.00,VWS V14.01,2013-05-18 20:29:00,
2013-05-18 16:30:00,67.6,44.3,30.25,SW,221,3.0,6.0,43,0.00,,---,0.00,VWS V14.01,2013-05-18 20:30:00,
2013-05-18 16:31:00,67.6,44.3,30.25,WSW,238,6.0,7.0,43,0.00,,---,0.00,VWS V14.01,2013-05-18 20:31:00,
2013-05-18 16:32:00,67.4,44.8,30.25,SW,234,4.0,7.0,44,0.00,,---,0.00,VWS V14.01,2013-05-18 20:32:00,
2013-05-18 16:33:00,67.4,45.3,30.25,WSW,242,5.0,7.0,45,0.00,,---,0.00,VWS V14.01,2013-05-18 20:33:00,
2013-05-18 16:34:00,67.4,45.3,30.25,SW,234,3.0,7.0,45,0.00,,---,0.00,VWS V14.01,2013-05-18 20:34:00,
2013-05-18 16:35:00,67.4,45.3,30.25,WSW,246,2.0,7.0,45,0.00,,---,0.00,VWS V14.01,2013-05-18 20:35:00,
2013-05-18 16:36:00,67.4,45.9,30.25,WSW,240,5.0,5.0,46,0.00,,---,0.00,VWS V14.01,2013-05-18 20:36:00,
2013-05-18 16:37:00,67.4,45.9,30.25,WSW,243,3.0,5.0,46,0.00,,---,0.00,VWS V14.01,2013-05-18 20:37:00,
2013-05-18 16:38:00,67.4,45.9,30.25,WSW,257,2.0,5.0,46,0.00,,---,0.00,VWS V14.01,2013-05-18 20:38:00,
2013-05-18 16:39:00,67.3,45.8,30.25,WSW,258,2.0,5.0,46,0.00,,---,0.00,VWS V14.01,2013-05-18 20:39:00,
2013-05-18 16:40:00,67.3,45.8,30.25,WSW,239,6.0,6.0,46,0.00,,---,0.00,VWS V14.01,2013-05-18 20:40:00,
2013-05-18 16:41:00,67.3,45.8,30.25,WSW,247,4.0,7.0,46,0.00,,---,0.00,VWS V14.01,2013-05-18 20:41:00,
2013-05-18 16:42:00,67.3,46.4,30.25,SW,218,4.0,7.0,47,0.00,,---,0.00,VWS V14.01,2013-05-18 20:42:00,
2013-05-18 16:43:00,67.3,46.4,30.25,SW,234,2.0,7.0,47,0.00,,---,0.00,VWS V14.01,2013-05-18 20:43:00,
2013-05-18 16:44:00,67.3,46.4,30.25,WSW,250,3.0,7.0,47,0.00,,---,0.00,VWS V14.01,2013-05-18 20:44:00,
2013-05-18 16:45:00,67.3,47.0,30.25,WSW,250,2.0,7.0,48,0.00,,---,0.00,VWS V14.01,2013-05-18 20:45:00,
2013-05-18 16:46:00,67.3,47.0,30.25,WSW,250,1.0,3.0,48,0.00,,---,0.00,VWS V14.01,2013-05-18 20:46:00,
2013-05-18 16:47:00,67.3,47.5,30.25,WSW,250,0.0,3.0,49,0.00,,---,0.00,VWS V14.01,2013-05-18 20:47:00,
2013-05-18 16:48:00,67.1,47.3,30.25,WSW,250,0.0,3.0,49,0.00,,---,0.00,VWS V14.01,2013-05-18 20:48:00,
2013-05-18 16:49:00,67.1,47.3,30.25,WSW,250,1.0,3.0,49,0.00,,---,0.00,VWS V14.01,2013-05-18 20:49:00,
2013-05-18 16:50:00,67.1,47.3,30.25,WSW,257,1.0,5.0,49,0.00,,---,0.00,VWS V14.01,2013-05-18 20:50:00,
2013-05-18 16:51:00,67.1,47.3,30.25,WSW,244,5.0,5.0,49,0.00,,---,0.00,VWS V14.01,2013-05-18 20:51:00,
2013-05-18 16:52:00,67.1,47.3,30.25,WSW,252,4.0,6.0,49,0.00,,---,0.00,VWS V14.01,2013-05-18 20:52:00,
2013-05-18 16:53:00,67.1,47.3,30.25,SW,236,2.0,6.0,49,0.00,,---,0.00,VWS V14.01,2013-05-18 20:53:00,
2013-05-18 16:54:00,67.1,47.9,30.25,SW,236,0.0,6.0,50,0.00,,---,0.00,VWS V14.01,2013-05-18 20:54:00,
2013-05-18 16:55:00,67.1,47.9,30.25,SW,236,0.0,6.0,50,0.00,,---,0.00,VWS V14.01,2013-05-18 20:55:00,
2013-05-18 16:56:00,67.1,47.9,30.25,SW,236,1.0,2.0,50,0.00,,---,0.00,VWS V14.01,2013-05-18 20:56:00,
2013-05-18 16:57:00,67.1,48.4,30.25,WSW,246,3.0,4.0,51,0.00,,---,0.00,VWS V14.01,2013-05-18 20:57:00,
2013-05-18 16:58:00,66.9,48.2,30.25,SW,219,3.0,4.0,51,0.00,,---,0.00,VWS V14.01,2013-05-18 20:58:00,
2013-05-18 16:59:00,66.9,48.2,30.25,SSW,206,1.0,5.0,51,0.00,,---,0.00,VWS V14.01,2013-05-18 20:59:00,
2013-05-18 17:00:00,66.9,48.2,30.25,WSW,252,2.0,5.0,51,0.00,,---,0.00,VWS V14.01,2013-05-18 21:00:00,
2013-05-18 17:01:00,66.9,48.2,30.25,WSW,252,2.0,3.0,51,0.00,,---,0.00,VWS V14.01,2013-05-18 21:01:00,
2013-05-18 17:02:00,66.9,48.7,30.25,WSW,252,3.0,3.0,52,0.00,,---,0.00,VWS V14.01,2013-05-18 21:02:00,
2013-05-18 17:03:00,66.9,48.7,30.25,WSW,252,1.0,3.0,52,0.00,,---,0.00,VWS V14.01,2013-05-18 21:03:00,
2013-05-18 17:04:00,66.8,48.6,30.25,WSW,252,3.0,4.0,52,0.00,,---,0.00,VWS V14.01,2013-05-18 21:04:00,
2013-05-18 17:05:00,66.8,48.6,30.25,WSW,248,1.0,5.0,52,0.00,,---,0.00,VWS V14.01,2013-05-18 21:05:00,
2013-05-18 17:06:00,66.8,49.1,30.25,West,270,6.0,6.0,53,0.00,,---,0.00,VWS V14.01,2013-05-18 21:06:00,
2013-05-18 17:07:00,66.8,49.1,30.25,WNW,302,2.0,6.0,53,0.00,,---,0.00,VWS V14.01,2013-05-18 21:07:00,
2013-05-18 17:08:00,66.8,49.1,30.25,WNW,302,0.0,6.0,53,0.00,,---,0.00,VWS V14.01,2013-05-18 21:08:00,
2013-05-18 17:09:00,66.8,49.1,30.25,WSW,238,6.0,9.0,53,0.00,,---,0.00,VWS V14.01,2013-05-18 21:09:00,
2013-05-18 17:10:00,66.6,49.0,30.25,SW,232,2.0,9.0,53,0.00,,---,0.00,VWS V14.01,2013-05-18 21:10:00,
2013-05-18 17:11:00,66.6,49.0,30.25,SW,232,3.0,3.0,53,0.00,,---,0.00,VWS V14.01,2013-05-18 21:11:00,
2013-05-18 17:12:00,66.6,49.0,30.25,WSW,248,2.0,4.0,53,0.00,,---,0.00,VWS V14.01,2013-05-18 21:12:00,
2013-05-18 17:13:00,66.6,49.0,30.25,WSW,248,1.0,4.0,53,0.00,,---,0.00,VWS V14.01,2013-05-18 21:13:00,
2013-05-18 17:14:00,66.6,49.5,30.25,WSW,248,3.0,4.0,54,0.00,,---,0.00,VWS V14.01,2013-05-18 21:14:00,
2013-05-18 17:15:00,66.6,49.5,30.25,WSW,241,5.0,5.0,54,0.00,,---,0.00,VWS V14.01,2013-05-18 21:15:00,
2013-05-18 17:16:00,66.4,49.3,30.25,WSW,243,3.0,5.0,54,0.00,,---,0.00,VWS V14.01,2013-05-18 21:16:00,
2013-05-18 17:17:00,66.4,49.3,30.25,WSW,244,2.0,5.0,54,0.00,,---,0.00,VWS V14.01,2013-05-18 21:17:00,
2013-05-18 17:18:00,66.4,49.3,30.25,WSW,244,1.0,5.0,54,0.00,,---,0.00,VWS V14.01,2013-05-18 21:18:00,
2013-05-18 17:19:00,66.4,49.8,30.25,WSW,244,2.0,5.0,55,0.00,,---,0.00,VWS V14.01,2013-05-18 21:19:00,
2013-05-18 17:20:00,66.4,49.8,30.25,WSW,244,0.0,5.0,55,0.00,,---,0.00,VWS V14.01,2013-05-18 21:20:00,
2013-05-18 17:21:00,66.4,49.8,30.25,WSW,244,1.0,3.0,55,0.00,,---,0.00,VWS V14.01,2013-05-18 21:21:00,
2013-05-18 17:22:00,66.4,49.8,30.25,SSW,205,3.0,3.0,55,0.00,,---,0.00,VWS V14.01,2013-05-18 21:22:00,
2013-05-18 17:23:00,66.3,49.7,30.25,WSW,239,5.0,5.0,55,0.00,,---,0.00,VWS V14.01,2013-05-18 21:23:00,
2013-05-18 17:24:00,66.3,49.7,30.25,WSW,245,1.0,7.0,55,0.00,,---,0.00,VWS V14.01,2013-05-18 21:24:00,
2013-05-18 17:25:00,66.3,49.7,30.25,WSW,244,4.0,7.0,55,0.00,,---,0.00,VWS V14.01,2013-05-18 21:25:00,
2013-05-18 17:26:00,66.3,49.7,30.25,WSW,239,2.0,5.0,55,0.00,,---,0.00,VWS V14.01,2013-05-18 21:26:00,
2013-05-18 17:27:00,66.1,49.5,30.25,WSW,238,2.0,7.0,55,0.00,,---,0.00,VWS V14.01,2013-05-18 21:27:00,
2013-05-18 17:28:00,66.1,49.5,30.25,West,273,2.0,7.0,55,0.00,,---,0.00,VWS V14.01,2013-05-18 21:28:00,
2013-05-18 17:29:00,66.1,49.5,30.25,WSW,254,3.0,7.0,55,0.00,,---,0.00,VWS V14.01,2013-05-18 21:29:00,
2013-05-18 17:30:00,66.1,49.5,30.26,West,279,1.0,7.0,55,0.00,,---,0.00,VWS V14.01,2013-05-18 21:30:00,
2013-05-18 17:31:00,66.0,49.4,30.26,WSW,239,0.0,4.0,55,0.00,,---,0.00,VWS V14.01,2013-05-18 21:31:00,
2013-05-18 17:32:00,66.0,49.9,30.26,WSW,240,2.0,4.0,56,0.00,,---,0.00,VWS V14.01,2013-05-18 21:32:00,
2013-05-18 17:33:00,66.0,49.9,30.26,WSW,238,3.0,4.0,56,0.00,,---,0.00,VWS V14.01,2013-05-18 21:33:00,
2013-05-18 17:34:00,66.0,49.9,30.26,WSW,238,4.0,4.0,56,0.00,,---,0.00,VWS V14.01,2013-05-18 21:34:00,
2013-05-18 17:35:00,66.0,49.9,30.26,WSW,238,1.0,4.0,56,0.00,,---,0.00,VWS V14.01,2013-05-18 21:35:00,
2013-05-18 17:36:00,66.0,49.9,30.26,SW,236,1.0,4.0,56,0.00,,---,0.00,VWS V14.01,2013-05-18 21:36:00,
2013-05-18 17:37:00,65.8,49.7,30.26,WSW,237,2.0,4.0,56,0.00,,---,0.00,VWS V14.01,2013-05-18 21:37:00,
2013-05-18 17:38:00,65.8,49.7,30.26,WSW,255,8.0,9.0,56,0.00,,---,0.00,VWS V14.01,2013-05-18 21:38:00,
2013-05-18 17:39:00,65.8,49.7,30.26,West,272,2.0,9.0,56,0.00,,---,0.00,VWS V14.01,2013-05-18 21:39:00,
2013-05-18 17:40:00,65.8,49.7,30.26,West,272,0.0,9.0,56,0.00,,---,0.00,VWS V14.01,2013-05-18 21:40:00,
2013-05-18 17:41:00,65.8,49.7,30.26,West,271,2.0,4.0,56,0.00,,---,0.00,VWS V14.01,2013-05-18 21:41:00,
2013-05-18 17:42:00,65.8,49.7,30.26,SW,234,2.0,4.0,56,0.00,,---,0.00,VWS V14.01,2013-05-18 21:42:00,
2013-05-18 17:43:00,65.6,49.5,30.26,WSW,244,4.0,5.0,56,0.00,,---,0.00,VWS V14.01,2013-05-18 21:43:00,
2013-05-18 17:44:00,65.6,49.5,30.26,WSW,246,3.0,5.0,56,0.00,,---,0.00,VWS V14.01,2013-05-18 21:44:00,
2013-05-18 17:45:00,65.6,49.5,30.26,WSW,246,2.0,5.0,56,0.00,,---,0.00,VWS V14.01,2013-05-18 21:45:00,
2013-05-18 17:46:00,65.6,49.5,30.26,WSW,246,1.0,2.0,56,0.00,,---,0.00,VWS V14.01,2013-05-18 21:46:00,
2013-05-18 17:47:00,65.6,49.5,30.26,WSW,246,2.0,4.0,56,0.00,,---,0.00,VWS V14.01,2013-05-18 21:47:00,
2013-05-18 17:48:00,65.6,49.5,30.26,WSW,246,3.0,4.0,56,0.00,,---,0.00,VWS V14.01,2013-05-18 21:48:00,
2013-05-18 17:49:00,65.5,49.4,30.26,WSW,246,1.0,4.0,56,0.00,,---,0.00,VWS V14.01,2013-05-18 21:49:00,
2013-05-18 17:50:00,65.5,49.9,30.26,WSW,244,2.0,4.0,57,0.00,,---,0.00,VWS V14.01,2013-05-18 21:50:00,
2013-05-18 17:51:00,65.5,49.9,30.26,WSW,244,1.0,3.0,57,0.00,,---,0.00,VWS V14.01,2013-05-18 21:51:00,
2013-05-18 17:52:00,65.5,49.9,30.26,WSW,244,0.0,3.0,57,0.00,,---,0.00,VWS V14.01,2013-05-18 21:52:00,
2013-05-18 17:53:00,65.5,49.9,30.26,WSW,244,0.0,3.0,57,0.00,,---,0.00,VWS V14.01,2013-05-18 21:53:00,
2013-05-18 17:54:00,65.5,49.9,30.26,WSW,244,1.0,3.0,57,0.00,,---,0.00,VWS V14.01,2013-05-18 21:54:00,
2013-05-18 17:55:00,65.5,49.9,30.26,WSW,242,1.0,4.0,57,0.00,,---,0.00,VWS V14.01,2013-05-18 21:55:00,
2013-05-18 17:56:00,65.5,49.9,30.26,WSW,242,0.0,4.0,57,0.00,,---,0.00,VWS V14.01,2013-05-18 21:56:00,
2013-05-18 17:57:00,65.5,49.9,30.26,WSW,240,3.0,4.0,57,0.00,,---,0.00,VWS V14.01,2013-05-18 21:57:00,
2013-05-18 17:58:00,65.3,49.7,30.26,WSW,241,2.0,4.0,57,0.00,,---,0.00,VWS V14.01,2013-05-18 21:58:00,
2013-05-18 17:59:00,65.3,49.7,30.26,WSW,238,4.0,4.0,57,0.00,,---,0.00,VWS V14.01,2013-05-18 21:59:00,
2013-05-18 18:00:00,65.3,49.7,30.26,WSW,253,4.0,6.0,57,0.00,,---,0.00,VWS V14.01,2013-05-18 22:00:00,
2013-05-18 18:01:00,65.3,49.7,30.26,WSW,254,3.0,4.0,57,0.00,,---,0.00,VWS V14.01,2013-05-18 22:01:00,
2013-05-18 18:02:00,65.3,49.7,30.26,WSW,254,3.0,4.0,57,0.00,,---,0.00,VWS V14.01,2013-05-18 22:02:00,
2013-05-18 18:03:00,65.3,49.7,30.26,WSW,238,0.0,7.0,57,0.00,,---,0.00,VWS V14.01,2013-05-18 22:03:00,
2013-05-18 18:04:00,65.2,49.6,30.26,WSW,250,5.0,7.0,57,0.00,,---,0.00,VWS V14.01,2013-05-18 22:04:00,
2013-05-18 18:05:00,65.2,48.6,30.26,WSW,254,4.0,7.0,55,0.00,,---,0.00,VWS V14.01,2013-05-18 22:05:00,
2013-05-18 18:06:00,65.2,50.1,30.26,WSW,240,2.0,4.0,58,0.00,,---,0.00,VWS V14.01,2013-05-18 22:06:00,
2013-05-18 18:07:00,65.2,50.1,30.26,WSW,239,3.0,4.0,58,0.00,,---,0.00,VWS V14.01,2013-05-18 22:07:00,
2013-05-18 18:08:00,65.2,50.1,30.26,WSW,238,2.0,4.0,58,0.00,,---,0.00,VWS V14.01,2013-05-18 22:08:00,
2013-05-18 18:09:00,65.0,49.9,30.26,WSW,238,2.0,4.0,58,0.00,,---,0.00,VWS V14.01,2013-05-18 22:09:00,
2013-05-18 18:10:00,65.0,49.9,30.26,SW,235,3.0,4.0,58,0.00,,---,0.00,VWS V14.01,2013-05-18 22:10:00,
2013-05-18 18:11:00,65.0,49.9,30.26,SW,236,3.0,4.0,58,0.00,,---,0.00,VWS V14.01,2013-05-18 22:11:00,
2013-05-18 18:12:00,65.0,49.9,30.26,SW,236,1.0,4.0,58,0.00,,---,0.00,VWS V14.01,2013-05-18 22:12:00,
2013-05-18 18:13:00,65.0,49.9,30.26,WSW,255,1.0,4.0,58,0.00,,---,0.00,VWS V14.01,2013-05-18 22:13:00,
2013-05-18 18:14:00,64.8,49.7,30.26,WSW,256,3.0,4.0,58,0.00,,---,0.00,VWS V14.01,2013-05-18 22:14:00,
2013-05-18 18:15:00,64.8,50.2,30.26,WSW,249,3.0,4.0,59,0.00,,---,0.00,VWS V14.01,2013-05-18 22:15:00,
2013-05-18 18:16:00,64.8,50.2,30.26,West,267,3.0,4.0,59,0.00,,---,0.00,VWS V14.01,2013-05-18 22:16:00,
2013-05-18 18:17:00,64.8,50.2,30.26,WSW,252,3.0,4.0,59,0.00,,---,0.00,VWS V14.01,2013-05-18 22:17:00,
2013-05-18 18:18:00,64.7,50.1,30.26,West,267,3.0,4.0,59,0.00,,---,0.00,VWS V14.01,2013-05-18 22:18:00,
2013-05-18 18:19:00,64.7,50.1,30.26,West,267,0.0,4.0,59,0.00,,---,0.00,VWS V14.01,2013-05-18 22:19:00,
2013-05-18 18:20:00,64.7,50.1,30.26,West,267,2.0,4.0,59,0.00,,---,0.00,VWS V14.01,2013-05-18 22:20:00,
2013-05-18 18:21:00,64.7,50.1,30.26,West,267,1.0,3.0,59,0.00,,---,0.00,VWS V14.01,2013-05-18 22:21:00,
2013-05-18 18:22:00,64.7,50.1,30.26,West,265,1.0,3.0,59,0.00,,---,0.00,VWS V14.01,2013-05-18 22:22:00,
2013-05-18 18:23:00,64.7,50.1,30.26,West,265,1.0,3.0,59,0.00,,---,0.00,VWS V14.01,2013-05-18 22:23:00,
2013-05-18 18:24:00,64.5,49.9,30.26,West,265,0.0,3.0,59,0.00,,---,0.00,VWS V14.01,2013-05-18 22:24:00,
2013-05-18 18:25:00,64.5,50.3,30.26,West,265,0.0,3.0,60,0.00,,---,0.00,VWS V14.01,2013-05-18 22:25:00,
2013-05-18 18:26:00,64.5,50.3,30.26,West,265,1.0,1.0,60,0.00,,---,0.00,VWS V14.01,2013-05-18 22:26:00,
2013-05-18 18:27:00,64.5,50.3,30.26,West,261,0.0,5.0,60,0.00,,---,0.00,VWS V14.01,2013-05-18 22:27:00,
2013-05-18 18:28:00,64.5,50.3,30.26,WSW,249,2.0,5.0,60,0.00,,---,0.00,VWS V14.01,2013-05-18 22:28:00,
2013-05-18 18:29:00,64.3,50.1,30.26,WSW,249,0.0,5.0,60,0.00,,---,0.00,VWS V14.01,2013-05-18 22:29:00,
2013-05-18 18:30:00,64.3,50.1,30.27,WSW,249,0.0,5.0,60,0.00,,---,0.00,VWS V14.01,2013-05-18 22:30:00,
2013-05-18 18:31:00,64.3,50.1,30.27,WSW,249,1.0,3.0,60,0.00,,---,0.00,VWS V14.01,2013-05-18 22:31:00,
2013-05-18 18:32:00,64.3,50.1,30.27,WSW,249,1.0,3.0,60,0.00,,---,0.00,VWS V14.01,2013-05-18 22:32:00,
2013-05-18 18:33:00,64.3,50.1,30.27,SW,217,2.0,3.0,60,0.00,,---,0.00,VWS V14.01,2013-05-18 22:33:00,
2013-05-18 18:34:00,64.2,50.0,30.27,WSW,247,2.0,3.0,60,0.00,,---,0.00,VWS V14.01,2013-05-18 22:34:00,
2013-05-18 18:35:00,64.2,50.0,30.27,WSW,248,1.0,4.0,60,0.00,,---,0.00,VWS V14.01,2013-05-18 22:35:00,
2013-05-18 18:36:00,64.2,50.0,30.27,WSW,247,2.0,3.0,60,0.00,,---,0.00,VWS V14.01,2013-05-18 22:36:00,
2013-05-18 18:37:00,64.0,49.8,30.27,WSW,248,3.0,3.0,60,0.00,,---,0.00,VWS V14.01,2013-05-18 22:37:00,
2013-05-18 18:38:00,64.0,49.8,30.27,WSW,240,3.0,4.0,60,0.00,,---,0.00,VWS V14.01,2013-05-18 22:38:00,
2013-05-18 18:39:00,64.0,49.8,30.27,WSW,244,4.0,5.0,60,0.00,,---,0.00,VWS V14.01,2013-05-18 22:39:00,
2013-05-18 18:40:00,63.9,49.8,30.27,West,281,4.0,5.0,60,0.00,,---,0.00,VWS V14.01,2013-05-18 22:40:00,
2013-05-18 18:41:00,63.9,49.8,30.27,West,263,1.0,7.0,60,0.00,,---,0.00,VWS V14.01,2013-05-18 22:41:00,
2013-05-18 18:42:00,63.9,49.8,30.27,West,263,2.0,7.0,60,0.00,,---,0.00,VWS V14.01,2013-05-18 22:42:00,
2013-05-18 18:43:00,63.9,50.2,30.27,West,263,1.0,7.0,61,0.00,,---,0.00,VWS V14.01,2013-05-18 22:43:00,
2013-05-18 18:44:00,63.9,50.2,30.27,West,263,3.0,7.0,61,0.00,,---,0.00,VWS V14.01,2013-05-18 22:44:00,
2013-05-18 18:45:00,63.7,50.0,30.27,WSW,243,4.0,7.0,61,0.00,,---,0.00,VWS V14.01,2013-05-18 22:45:00,
2013-05-18 18:46:00,63.7,50.0,30.27,WSW,250,2.0,4.0,61,0.00,,---,0.00,VWS V14.01,2013-05-18 22:46:00,
2013-05-18 18:47:00,63.7,50.0,30.27,WSW,250,2.0,4.0,61,0.00,,---,0.00,VWS V14.01,2013-05-18 22:47:00,
2013-05-18 18:48:00,63.7,50.0,30.27,West,261,3.0,5.0,61,0.00,,---,0.00,VWS V14.01,2013-05-18 22:48:00,
2013-05-18 18:49:00,63.5,49.8,30.27,West,261,3.0,5.0,61,0.00,,---,0.00,VWS V14.01,2013-05-18 22:49:00,
2013-05-18 18:50:00,63.5,49.8,30.27,WSW,252,3.0,5.0,61,0.00,,---,0.00,VWS V14.01,2013-05-18 22:50:00,
2013-05-18 18:51:00,63.5,49.8,30.27,WSW,252,2.0,4.0,61,0.00,,---,0.00,VWS V14.01,2013-05-18 22:51:00,
2013-05-18 18:52:00,63.4,49.7,30.27,West,272,5.0,5.0,61,0.00,,---,0.00,VWS V14.01,2013-05-18 22:52:00,
2013-05-18 18:53:00,63.4,49.7,30.27,West,281,4.0,5.0,61,0.00,,---,0.00,VWS V14.01,2013-05-18 22:53:00,
2013-05-18 18:54:00,63.4,49.7,30.27,WSW,240,3.0,5.0,61,0.00,,---,0.00,VWS V14.01,2013-05-18 22:54:00,
2013-05-18 18:55:00,63.4,49.7,30.27,West,263,0.0,5.0,61,0.00,,---,0.00,VWS V14.01,2013-05-18 22:55:00,
2013-05-18 18:56:00,63.2,49.5,30.27,West,268,0.0,4.0,61,0.00,,---,0.00,VWS V14.01,2013-05-18 22:56:00,
2013-05-18 18:57:00,63.2,49.5,30.27,West,268,1.0,4.0,61,0.00,,---,0.00,VWS V14.01,2013-05-18 22:57:00,
2013-05-18 18:58:00,63.2,49.5,30.27,West,268,2.0,4.0,61,0.00,,---,0.00,VWS V14.01,2013-05-18 22:58:00,
2013-05-18 18:59:00,63.2,50.0,30.27,West,268,0.0,4.0,62,0.00,,---,0.00,VWS V14.01,2013-05-18 22:59:00,
2013-05-18 19:00:00,63.2,50.0,30.27,West,268,3.0,5.0,62,0.00,,---,0.00,VWS V14.01,2013-05-18 23:00:00,
2013-05-18 19:01:00,63.1,49.9,30.27,WSW,244,3.0,5.0,62,0.00,,---,0.00,VWS V14.01,2013-05-18 23:01:00,
2013-05-18 19:02:00,63.1,49.9,30.27,WSW,254,2.0,5.0,62,0.00,,---,0.00,VWS V14.01,2013-05-18 23:02:00,
2013-05-18 19:03:00,63.1,49.9,30.27,West,277,2.0,5.0,62,0.00,,---,0.00,VWS V14.01,2013-05-18 23:03:00,
2013-05-18 19:04:00,62.9,49.7,30.27,West,278,2.0,5.0,62,0.00,,---,0.00,VWS V14.01,2013-05-18 23:04:00,
2013-05-18 19:05:00,62.9,49.7,30.27,West,278,3.0,5.0,62,0.00,,---,0.00,VWS V14.01,2013-05-18 23:05:00,
2013-05-18 19:06:00,62.9,49.7,30.27,WSW,243,3.0,4.0,62,0.00,,---,0.00,VWS V14.01,2013-05-18 23:06:00,
2013-05-18 19:07:00,62.9,49.7,30.27,WSW,251,2.0,4.0,62,0.00,,---,0.00,VWS V14.01,2013-05-18 23:07:00,
2013-05-18 19:08:00,62.7,49.5,30.27,WSW,243,4.0,4.0,62,0.00,,---,0.00,VWS V14.01,2013-05-18 23:08:00,
2013-05-18 19:09:00,62.7,49.5,30.27,WNW,284,1.0,5.0,62,0.00,,---,0.00,VWS V14.01,2013-05-18 23:09:00,
2013-05-18 19:10:00,62.7,49.5,30.27,WNW,284,3.0,5.0,62,0.00,,---,0.00,VWS V14.01,2013-05-18 23:10:00,
2013-05-18 19:11:00,62.6,49.8,30.27,West,263,3.0,4.0,63,0.00,,---,0.00,VWS V14.01,2013-05-18 23:11:00,
2013-05-18 19:12:00,62.6,49.8,30.27,West,263,3.0,4.0,63,0.00,,---,0.00,VWS V14.01,2013-05-18 23:12:00,
2013-05-18 19:13:00,62.6,49.8,30.27,West,263,3.0,4.0,63,0.00,,---,0.00,VWS V14.01,2013-05-18 23:13:00,
2013-05-18 19:14:00,62.4,49.7,30.27,West,263,2.0,4.0,63,0.00,,---,0.00,VWS V14.01,2013-05-18 23:14:00,
2013-05-18 19:15:00,62.4,49.7,30.27,West,263,2.0,4.0,63,0.00,,---,0.00,VWS V14.01,2013-05-18 23:15:00,
2013-05-18 19:16:00,62.4,49.7,30.27,West,263,1.0,3.0,63,0.00,,---,0.00,VWS V14.01,2013-05-18 23:16:00,
2013-05-18 19:17:00,62.4,49.7,30.27,West,273,2.0,7.0,63,0.00,,---,0.00,VWS V14.01,2013-05-18 23:17:00,
2013-05-18 19:18:00,62.3,49.6,30.27,West,272,2.0,7.0,63,0.00,,---,0.00,VWS V14.01,2013-05-18 23:18:00,
2013-05-18 19:19:00,62.3,49.6,30.27,West,279,3.0,7.0,63,0.00,,---,0.00,VWS V14.01,2013-05-18 23:19:00,
2013-05-18 19:20:00,62.3,49.6,30.27,West,279,0.0,7.0,63,0.00,,---,0.00,VWS V14.01,2013-05-18 23:20:00,
2013-05-18 19:21:00,62.3,50.0,30.27,West,279,0.0,1.0,64,0.00,,---,0.00,VWS V14.01,2013-05-18 23:21:00,
2013-05-18 19:22:00,62.3,50.0,30.27,West,279,1.0,1.0,64,0.00,,---,0.00,VWS V14.01,2013-05-18 23:22:00,
2013-05-18 19:23:00,62.1,49.8,30.27,West,279,1.0,2.0,64,0.00,,---,0.00,VWS V14.01,2013-05-18 23:23:00,
2013-05-18 19:24:00,62.1,49.8,30.27,West,279,2.0,3.0,64,0.00,,---,0.00,VWS V14.01,2013-05-18 23:24:00,
2013-05-18 19:25:00,62.1,49.8,30.27,West,279,0.0,3.0,64,0.00,,---,0.00,VWS V14.01,2013-05-18 23:25:00,
2013-05-18 19:26:00,62.1,49.8,30.27,West,279,0.0,1.0,64,0.00,,---,0.00,VWS V14.01,2013-05-18 23:26:00,
2013-05-18 19:27:00,62.1,49.8,30.27,West,279,1.0,2.0,64,0.00,,---,0.00,VWS V14.01,2013-05-18 23:27:00,
2013-05-18 19:28:00,62.0,49.7,30.27,West,279,0.0,2.0,64,0.00,,---,0.00,VWS V14.01,2013-05-18 23:28:00,
2013-05-18 19:29:00,62.0,49.7,30.27,West,279,2.0,3.0,64,0.00,,---,0.00,VWS V14.01,2013-05-18 23:29:00,
2013-05-18 19:30:00,62.0,49.7,30.27,NW,317,5.0,5.0,64,0.00,,---,0.00,VWS V14.01,2013-05-18 23:30:00,
2013-05-18 19:31:00,62.0,49.7,30.27,NNW,332,2.0,5.0,64,0.00,,---,0.00,VWS V14.01,2013-05-18 23:31:00,
2013-05-18 19:32:00,61.8,49.5,30.27,WSW,257,3.0,5.0,64,0.00,,---,0.00,VWS V14.01,2013-05-18 23:32:00,
2013-05-18 19:33:00,61.8,49.5,30.27,WSW,245,0.0,6.0,64,0.00,,---,0.00,VWS V14.01,2013-05-18 23:33:00,
2013-05-18 19:34:00,61.8,49.5,30.27,WNW,295,2.0,6.0,64,0.00,,---,0.00,VWS V14.01,2013-05-18 23:34:00,
2013-05-18 19:35:00,61.8,49.5,30.27,WSW,254,0.0,7.0,64,0.00,,---,0.00,VWS V14.01,2013-05-18 23:35:00,
2013-05-18 19:36:00,61.6,49.3,30.27,WSW,254,0.0,1.0,64,0.00,,---,0.00,VWS V14.01,2013-05-18 23:36:00,
2013-05-18 19:37:00,61.6,49.3,30.27,WSW,254,1.0,3.0,64,0.00,,---,0.00,VWS V14.01,2013-05-18 23:37:00,
2013-05-18 19:38:00,61.6,49.3,30.27,West,277,6.0,7.0,64,0.00,,---,0.00,VWS V14.01,2013-05-18 23:38:00,
2013-05-18 19:39:00,61.5,49.2,30.27,West,271,0.0,7.0,64,0.00,,---,0.00,VWS V14.01,2013-05-18 23:39:00,
2013-05-18 19:40:00,61.5,49.2,30.27,West,271,0.0,7.0,64,0.00,,---,0.00,VWS V14.01,2013-05-18 23:40:00,
2013-05-18 19:41:00,61.5,49.2,30.27,West,269,3.0,3.0,64,0.00,,---,0.00,VWS V14.01,2013-05-18 23:41:00,
2013-05-18 19:42:00,61.5,49.2,30.27,WSW,249,2.0,5.0,64,0.00,,---,0.00,VWS V14.01,2013-05-18 23:42:00,
2013-05-18 19:43:00,61.3,49.0,30.27,West,266,5.0,5.0,64,0.00,,---,0.00,VWS V14.01,2013-05-18 23:43:00,
2013-05-18 19:44:00,61.3,49.0,30.27,WSW,257,1.0,5.0,64,0.00,,---,0.00,VWS V14.01,2013-05-18 23:44:00,
2013-05-18 19:45:00,61.3,49.0,30.28,WSW,247,3.0,5.0,64,0.00,,---,0.00,VWS V14.01,2013-05-18 23:45:00,
2013-05-18 19:46:00,61.3,49.0,30.28,WSW,240,3.0,5.0,64,0.00,,---,0.00,VWS V14.01,2013-05-18 23:46:00,
2013-05-18 19:47:00,61.3,49.0,30.28,WSW,240,3.0,5.0,64,0.00,,---,0.00,VWS V14.01,2013-05-18 23:47:00,
2013-05-18 19:48:00,61.2,48.9,30.28,WSW,240,1.0,5.0,64,0.00,,---,0.00,VWS V14.01,2013-05-18 23:48:00,
2013-05-18 19:49:00,61.2,48.9,30.28,WSW,240,1.0,5.0,64,0.00,,---,0.00,VWS V14.01,2013-05-18 23:49:00,
2013-05-18 19:50:00,61.2,48.9,30.28,WSW,241,0.0,5.0,64,0.00,,---,0.00,VWS V14.01,2013-05-18 23:50:00,
2013-05-18 19:51:00,61.2,48.9,30.28,WSW,241,0.0,1.0,64,0.00,,---,0.00,VWS V14.01,2013-05-18 23:51:00,
2013-05-18 19:52:00,61.2,49.3,30.28,WSW,240,0.0,3.0,65,0.00,,---,0.00,VWS V14.01,2013-05-18 23:52:00,
2013-05-18 19:53:00,61.2,49.3,30.28,WNW,301,1.0,3.0,65,0.00,,---,0.00,VWS V14.01,2013-05-18 23:53:00,
2013-05-18 19:54:00,61.0,49.2,30.28,SW,232,0.0,3.0,65,0.00,,---,0.00,VWS V14.01,2013-05-18 23:54:00,
2013-05-18 19:55:00,61.0,48.8,30.28,SW,224,2.0,3.0,64,0.00,,---,0.00,VWS V14.01,2013-05-18 23:55:00,
2013-05-18 19:56:00,61.0,48.8,30.28,SW,224,0.0,2.0,64,0.00,,---,0.00,VWS V14.01,2013-05-18 23:56:00,
2013-05-18 19:57:00,61.0,48.8,30.28,SW,224,0.0,2.0,64,0.00,,---,0.00,VWS V14.01,2013-05-18 23:57:00,
2013-05-18 19:58:00,61.0,48.8,30.28,SW,224,0.0,2.0,64,0.00,,---,0.00,VWS V14.01,2013-05-18 23:58:00,
2013-05-18 19:59:00,60.9,48.7,30.28,SW,224,0.0,2.0,64,0.00,,---,0.00,VWS V14.01,2013-05-18 23:59:00,
2013-05-18 20:00:00,60.9,48.7,30.29,SW,224,0.0,2.0,64,0.00,,---,0.00,VWS V14.01,2013-05-19 00:00:00,
2013-05-18 20:01:00,60.9,48.7,30.29,SW,231,2.0,3.0,64,0.00,,---,0.00,VWS V14.01,2013-05-19 00:01:00,
2013-05-18 20:02:00,60.9,48.7,30.29,West,275,2.0,5.0,64,0.00,,---,0.00,VWS V14.01,2013-05-19 00:02:00,
2013-05-18 20:03:00,60.7,48.5,30.29,West,275,2.0,5.0,64,0.00,,---,0.00,VWS V14.01,2013-05-19 00:03:00,
2013-05-18 20:04:00,60.7,48.5,30.29,West,275,2.0,5.0,64,0.00,,---,0.00,VWS V14.01,2013-05-19 00:04:00,
2013-05-18 20:05:00,60.7,48.5,30.29,West,275,0.0,5.0,64,0.00,,---,0.00,VWS V14.01,2013-05-19 00:05:00,
2013-05-18 20:06:00,60.7,48.5,30.29,West,275,2.0,3.0,64,0.00,,---,0.00,VWS V14.01,2013-05-19 00:06:00,
2013-05-18 20:07:00,60.5,47.9,30.29,West,275,0.0,3.0,63,0.00,,---,0.00,VWS V14.01,2013-05-19 00:07:00,
2013-05-18 20:08:00,60.5,47.9,30.29,West,275,0.0,3.0,63,0.00,,---,0.00,VWS V14.01,2013-05-19 00:08:00,
2013-05-18 20:09:00,60.5,47.9,30.29,West,275,0.0,3.0,63,0.00,,---,0.00,VWS V14.01,2013-05-19 00:09:00,
2013-05-18 20:10:00,60.5,47.9,30.29,West,275,3.0,3.0,63,0.00,,---,0.00,VWS V14.01,2013-05-19 00:10:00,
2013-05-18 20:11:00,60.5,47.9,30.29,West,275,0.0,3.0,63,0.00,,---,0.00,VWS V14.01,2013-05-19 00:11:00,
2013-05-18 20:12:00,60.5,47.9,30.29,West,275,1.0,3.0,63,0.00,,---,0.00,VWS V14.01,2013-05-19 00:12:00,
2013-05-18 20:13:00,60.4,47.8,30.29,West,275,0.0,4.0,63,0.00,,---,0.00,VWS V14.01,2013-05-19 00:13:00,
2013-05-18 20:14:00,60.4,47.8,30.29,West,275,0.0,4.0,63,0.00,,---,0.00,VWS V14.01,2013-05-19 00:14:00,
2013-05-18 20:15:00,60.4,47.8,30.29,WSW,252,0.0,4.0,63,0.00,,---,0.00,VWS V14.01,2013-05-19 00:15:00,
2013-05-18 20:16:00,60.4,47.8,30.29,WSW,252,0.0,1.0,63,0.00,,---,0.00,VWS V14.01,2013-05-19 00:16:00,
2013-05-18 20:17:00,60.4,47.8,30.29,WSW,252,1.0,2.0,63,0.00,,---,0.00,VWS V14.01,2013-05-19 00:17:00,
2013-05-18 20:18:00,60.4,47.8,30.29,WSW,252,0.0,3.0,63,0.00,,---,0.00,VWS V14.01,2013-05-19 00:18:00,
2013-05-18 20:19:00,60.4,47.8,30.29,WSW,252,0.0,3.0,63,0.00,,---,0.00,VWS V14.01,2013-05-19 00:19:00,
2013-05-18 20:20:00,60.2,47.6,30.29,WSW,252,2.0,3.0,63,0.00,,---,0.00,VWS V14.01,2013-05-19 00:20:00,
2013-05-18 20:21:00,60.2,47.6,30.29,WSW,252,2.0,3.0,63,0.00,,---,0.00,VWS V14.01,2013-05-19 00:21:00,
2013-05-18 20:22:00,60.2,47.6,30.29,WSW,252,1.0,3.0,63,0.00,,---,0.00,VWS V14.01,2013-05-19 00:22:00,
2013-05-18 20:23:00,60.2,47.6,30.29,WSW,252,3.0,3.0,63,0.00,,---,0.00,VWS V14.01,2013-05-19 00:23:00,
2013-05-18 20:24:00,60.2,47.6,30.29,WSW,252,1.0,3.0,63,0.00,,---,0.00,VWS V14.01,2013-05-19 00:24:00,
2013-05-18 20:25:00,60.2,47.6,30.29,WSW,252,0.0,3.0,63,0.00,,---,0.00,VWS V14.01,2013-05-19 00:25:00,
2013-05-18 20:26:00,60.1,47.5,30.29,WSW,252,2.0,2.0,63,0.00,,---,0.00,VWS V14.01,2013-05-19 00:26:00,
2013-05-18 20:27:00,60.1,47.5,30.29,WSW,252,1.0,2.0,63,0.00,,---,0.00,VWS V14.01,2013-05-19 00:27:00,
2013-05-18 20:28:00,60.1,47.5,30.29,WSW,252,0.0,2.0,63,0.00,,---,0.00,VWS V14.01,2013-05-19 00:28:00,
2013-05-18 20:29:00,60.1,47.5,30.29,WSW,252,0.0,2.0,63,0.00,,---,0.00,VWS V14.01,2013-05-19 00:29:00,
2013-05-18 20:30:00,60.1,47.9,30.29,WSW,252,0.0,2.0,64,0.00,,---,0.00,VWS V14.01,2013-05-19 00:30:00,
2013-05-18 20:31:00,60.1,47.9,30.29,WSW,238,1.0,3.0,64,0.00,,---,0.00,VWS V14.01,2013-05-19 00:31:00,
2013-05-18 20:32:00,60.1,47.9,30.29,WSW,238,1.0,3.0,64,0.00,,---,0.00,VWS V14.01,2013-05-19 00:32:00,
2013-05-18 20:33:00,59.9,47.7,30.29,WSW,239,2.0,3.0,64,0.00,,---,0.00,VWS V14.01,2013-05-19 00:33:00,
2013-05-18 20:34:00,59.9,47.7,30.29,WSW,239,2.0,3.0,64,0.00,,---,0.00,VWS V14.01,2013-05-19 00:34:00,
2013-05-18 20:35:00,59.9,47.7,30.29,WSW,248,2.0,4.0,64,0.00,,---,0.00,VWS V14.01,2013-05-19 00:35:00,
2013-05-18 20:36:00,59.9,47.7,30.29,WSW,248,0.0,2.0,64,0.00,,---,0.00,VWS V14.01,2013-05-19 00:36:00,
2013-05-18 20:37:00,59.9,47.7,30.29,WSW,248,0.0,3.0,64,0.00,,---,0.00,VWS V14.01,2013-05-19 00:37:00,
2013-05-18 20:38:00,59.9,47.7,30.29,WSW,248,0.0,3.0,64,0.00,,---,0.00,VWS V14.01,2013-05-19 00:38:00,
2013-05-18 20:39:00,59.9,47.7,30.29,WSW,248,0.0,3.0,64,0.00,,---,0.00,VWS V14.01,2013-05-19 00:39:00,
2013-05-18 20:40:00,59.9,47.7,30.29,WSW,248,0.0,3.0,64,0.00,,---,0.00,VWS V14.01,2013-05-19 00:40:00,
2013-05-18 20:41:00,59.8,47.6,30.29,WSW,248,1.0,2.0,64,0.00,,---,0.00,VWS V14.01,2013-05-19 00:41:00,
2013-05-18 20:42:00,59.8,47.6,30.29,WSW,248,1.0,2.0,64,0.00,,---,0.00,VWS V14.01,2013-05-19 00:42:00,
2013-05-18 20:43:00,59.8,47.6,30.29,WSW,248,0.0,2.0,64,0.00,,---,0.00,VWS V14.01,2013-05-19 00:43:00,
2013-05-18 20:44:00,59.8,47.6,30.29,WSW,248,0.0,2.0,64,0.00,,---,0.00,VWS V14.01,2013-05-19 00:44:00,
2013-05-18 20:45:00,59.8,47.6,30.29,WSW,248,0.0,2.0,64,0.00,,---,0.00,VWS V14.01,2013-05-19 00:45:00,
2013-05-18 20:46:00,59.8,47.6,30.29,WSW,248,0.0,1.0,64,0.00,,---,0.00,VWS V14.01,2013-05-19 00:46:00,
2013-05-18 20:47:00,59.8,47.6,30.29,WSW,248,0.0,2.0,64,0.00,,---,0.00,VWS V14.01,2013-05-19 00:47:00,
2013-05-18 20:48:00,59.6,47.4,30.29,SW,215,0.0,2.0,64,0.00,,---,0.00,VWS V14.01,2013-05-19 00:48:00,
2013-05-18 20:49:00,59.6,47.4,30.29,SW,215,0.0,2.0,64,0.00,,---,0.00,VWS V14.01,2013-05-19 00:49:00,
2013-05-18 20:50:00,59.6,47.4,30.29,WSW,240,1.0,4.0,64,0.00,,---,0.00,VWS V14.01,2013-05-19 00:50:00,
2013-05-18 20:51:00,59.6,47.4,30.29,WSW,250,2.0,4.0,64,0.00,,---,0.00,VWS V14.01,2013-05-19 00:51:00,
2013-05-18 20:52:00,59.6,47.4,30.29,WSW,250,2.0,4.0,64,0.00,,---,0.00,VWS V14.01,2013-05-19 00:52:00,
2013-05-18 20:53:00,59.6,47.8,30.29,WSW,250,0.0,4.0,65,0.00,,---,0.00,VWS V14.01,2013-05-19 00:53:00,
2013-05-18 20:54:00,59.5,47.7,30.29,WSW,250,0.0,4.0,65,0.00,,---,0.00,VWS V14.01,2013-05-19 00:54:00,
2013-05-18 20:55:00,59.5,47.7,30.29,WSW,250,0.0,4.0,65,0.00,,---,0.00,VWS V14.01,2013-05-19 00:55:00,
2013-05-18 20:56:00,59.5,47.7,30.29,WSW,250,2.0,2.0,65,0.00,,---,0.00,VWS V14.01,2013-05-19 00:56:00,
2013-05-18 20:57:00,59.5,47.7,30.29,WSW,250,0.0,2.0,65,0.00,,---,0.00,VWS V14.01,2013-05-19 00:57:00,
2013-05-18 20:58:00,59.5,47.7,30.29,WSW,250,1.0,3.0,65,0.00,,---,0.00,VWS V14.01,2013-05-19 00:58:00,
2013-05-18 20:59:00,59.5,47.7,30.29,WSW,250,0.0,3.0,65,0.00,,---,0.00,VWS V14.01,2013-05-19 00:59:00,
2013-05-18 21:00:00,59.5,47.7,30.29,WSW,250,0.0,3.0,65,0.00,,---,0.00,VWS V14.01,2013-05-19 01:00:00,
2013-05-18 21:01:00,59.3,47.5,30.29,WSW,250,0.0,2.0,65,0.00,,---,0.00,VWS V14.01,2013-05-19 01:01:00,
2013-05-18 21:02:00,59.3,48.0,30.29,WSW,250,0.0,2.0,66,0.00,,---,0.00,VWS V14.01,2013-05-19 01:02:00,
2013-05-18 21:03:00,59.3,48.0,30.29,WSW,250,0.0,2.0,66,0.00,,---,0.00,VWS V14.01,2013-05-19 01:03:00,
2013-05-18 21:04:00,59.3,48.0,30.29,WSW,250,0.0,2.0,66,0.00,,---,0.00,VWS V14.01,2013-05-19 01:04:00,
2013-05-18 21:05:00,59.3,48.0,30.29,WSW,250,0.0,2.0,66,0.00,,---,0.00,VWS V14.01,2013-05-19 01:05:00,
2013-05-18 21:06:00,59.3,48.0,30.29,WSW,250,1.0,2.0,66,0.00,,---,0.00,VWS V14.01,2013-05-19 01:06:00,
2013-05-18 21:07:00,59.3,48.0,30.29,WSW,250,1.0,2.0,66,0.00,,---,0.00,VWS V14.01,2013-05-19 01:07:00,
2013-05-18 21:08:00,59.3,48.0,30.29,WSW,250,1.0,3.0,66,0.00,,---,0.00,VWS V14.01,2013-05-19 01:08:00,
2013-05-18 21:09:00,59.2,47.9,30.29,WSW,250,1.0,3.0,66,0.00,,---,0.00,VWS V14.01,2013-05-19 01:09:00,
2013-05-18 21:10:00,59.2,47.9,30.29,WSW,250,2.0,3.0,66,0.00,,---,0.00,VWS V14.01,2013-05-19 01:10:00,
2013-05-18 21:11:00,59.2,48.3,30.29,WSW,254,2.0,3.0,67,0.00,,---,0.00,VWS V14.01,2013-05-19 01:11:00,
2013-05-18 21:12:00,59.2,48.3,30.29,WSW,254,2.0,3.0,67,0.00,,---,0.00,VWS V14.01,2013-05-19 01:12:00,
2013-05-18 21:13:00,59.2,48.3,30.29,WSW,254,0.0,3.0,67,0.00,,---,0.00,VWS V14.01,2013-05-19 01:13:00,
2013-05-18 21:14:00,59.2,48.3,30.29,WSW,254,2.0,3.0,67,0.00,,---,0.00,VWS V14.01,2013-05-19 01:14:00,
2013-05-18 21:15:00,59.0,48.1,30.29,WSW,254,1.0,3.0,67,0.00,,---,0.00,VWS V14.01,2013-05-19 01:15:00,
2013-05-18 21:16:00,59.0,48.1,30.29,WSW,254,3.0,4.0,67,0.00,,---,0.00,VWS V14.01,2013-05-19 01:16:00,
2013-05-18 21:17:00,59.0,48.5,30.29,WSW,254,1.0,4.0,68,0.00,,---,0.00,VWS V14.01,2013-05-19 01:17:00,
2013-05-18 21:18:00,59.0,48.5,30.29,WSW,254,2.0,4.0,68,0.00,,---,0.00,VWS V14.01,2013-05-19 01:18:00,
2013-05-18 21:19:00,59.0,48.5,30.29,WSW,254,1.0,4.0,68,0.00,,---,0.00,VWS V14.01,2013-05-19 01:19:00,
2013-05-18 21:20:00,58.9,48.4,30.29,WSW,254,2.0,4.0,68,0.00,,---,0.00,VWS V14.01,2013-05-19 01:20:00,
2013-05-18 21:21:00,58.9,48.4,30.29,WSW,254,0.0,3.0,68,0.00,,---,0.00,VWS V14.01,2013-05-19 01:21:00,
2013-05-18 21:22:00,58.9,48.4,30.29,WSW,254,1.0,3.0,68,0.00,,---,0.00,VWS V14.01,2013-05-19 01:22:00,
2013-05-18 21:23:00,58.9,48.4,30.29,WSW,254,0.0,3.0,68,0.00,,---,0.00,VWS V14.01,2013-05-19 01:23:00,
2013-05-18 21:24:00,58.9,48.4,30.29,WSW,254,0.0,3.0,68,0.00,,---,0.00,VWS V14.01,2013-05-19 01:24:00,
2013-05-18 21:25:00,58.9,48.4,30.29,WSW,254,2.0,3.0,68,0.00,,---,0.00,VWS V14.01,2013-05-19 01:25:00,
2013-05-18 21:26:00,58.7,48.6,30.29,WSW,254,2.0,2.0,69,0.00,,---,0.00,VWS V14.01,2013-05-19 01:26:00,
2013-05-18 21:27:00,58.7,48.6,30.29,WSW,258,1.0,3.0,69,0.00,,---,0.00,VWS V14.01,2013-05-19 01:27:00,
2013-05-18 21:28:00,58.7,48.6,30.29,WSW,258,2.0,3.0,69,0.00,,---,0.00,VWS V14.01,2013-05-19 01:28:00,
2013-05-18 21:29:00,58.7,48.6,30.29,WSW,258,0.0,3.0,69,0.00,,---,0.00,VWS V14.01,2013-05-19 01:29:00,
2013-05-18 21:30:00,58.7,48.6,30.29,WSW,258,2.0,3.0,69,0.00,,---,0.00,VWS V14.01,2013-05-19 01:30:00,
2013-05-18 21:31:00,58.6,48.5,30.29,WSW,258,2.0,3.0,69,0.00,,---,0.00,VWS V14.01,2013-05-19 01:31:00,
2013-05-18 21:32:00,58.6,48.5,30.29,WSW,258,0.0,3.0,69,0.00,,---,0.00,VWS V14.01,2013-05-19 01:32:00,
2013-05-18 21:33:00,58.6,48.5,30.29,WSW,258,0.0,3.0,69,0.00,,---,0.00,VWS V14.01,2013-05-19 01:33:00,
2013-05-18 21:34:00,58.6,48.5,30.29,WSW,258,0.0,3.0,69,0.00,,---,0.00,VWS V14.01,2013-05-19 01:34:00,
2013-05-18 21:35:00,58.6,48.5,30.29,WSW,258,0.0,3.0,69,0.00,,---,0.00,VWS V14.01,2013-05-19 01:35:00,
2013-05-18 21:36:00,58.6,48.9,30.29,WSW,258,0.0,1.0,70,0.00,,---,0.00,VWS V14.01,2013-05-19 01:36:00,
2013-05-18 21:37:00,58.4,48.7,30.29,WSW,258,0.0,1.0,70,0.00,,---,0.00,VWS V14.01,2013-05-19 01:37:00,
2013-05-18 21:38:00,58.4,48.7,30.29,WSW,258,0.0,2.0,70,0.00,,---,0.00,VWS V14.01,2013-05-19 01:38:00,
2013-05-18 21:39:00,58.4,48.7,30.29,WSW,258,1.0,2.0,70,0.00,,---,0.00,VWS V14.01,2013-05-19 01:39:00,
2013-05-18 21:40:00,58.4,48.7,30.29,WSW,258,0.0,2.0,70,0.00,,---,0.00,VWS V14.01,2013-05-19 01:40:00,
2013-05-18 21:41:00,58.4,48.7,30.29,WSW,258,0.0,1.0,70,0.00,,---,0.00,VWS V14.01,2013-05-19 01:41:00,
2013-05-18 21:42:00,58.3,48.6,30.29,West,259,1.0,2.0,70,0.00,,---,0.00,VWS V14.01,2013-05-19 01:42:00,
2013-05-18 21:43:00,58.3,48.6,30.29,West,260,0.0,2.0,70,0.00,,---,0.00,VWS V14.01,2013-05-19 01:43:00,
2013-05-18 21:44:00,58.3,48.6,30.29,West,260,1.0,3.0,70,0.00,,---,0.00,VWS V14.01,2013-05-19 01:44:00,
2013-05-18 21:45:00,58.3,49.0,30.29,West,260,0.0,3.0,71,0.00,,---,0.00,VWS V14.01,2013-05-19 01:45:00,
2013-05-18 21:46:00,58.3,49.0,30.29,West,260,0.0,0.0,71,0.00,,---,0.00,VWS V14.01,2013-05-19 01:46:00,
2013-05-18 21:47:00,58.1,48.8,30.29,West,260,1.0,2.0,71,0.00,,---,0.00,VWS V14.01,2013-05-19 01:47:00,
2013-05-18 21:48:00,58.1,48.8,30.29,West,259,0.0,2.0,71,0.00,,---,0.00,VWS V14.01,2013-05-19 01:48:00,
2013-05-18 21:49:00,58.1,48.8,30.29,West,260,0.0,2.0,71,0.00,,---,0.00,VWS V14.01,2013-05-19 01:49:00,
2013-05-18 21:50:00,58.1,48.8,30.29,West,260,0.0,2.0,71,0.00,,---,0.00,VWS V14.01,2013-05-19 01:50:00,
2013-05-18 21:51:00,58.1,48.8,30.29,West,260,0.0,0.0,71,0.00,,---,0.00,VWS V14.01,2013-05-19 01:51:00,
2013-05-18 21:52:00,58.0,48.7,30.29,West,259,0.0,0.0,71,0.00,,---,0.00,VWS V14.01,2013-05-19 01:52:00,
2013-05-18 21:53:00,58.0,48.7,30.29,West,260,0.0,1.0,71,0.00,,---,0.00,VWS V14.01,2013-05-19 01:53:00,
2013-05-18 21:54:00,58.0,48.7,30.29,West,260,0.0,1.0,71,0.00,,---,0.00,VWS V14.01,2013-05-19 01:54:00,
2013-05-18 21:55:00,58.0,49.0,30.29,West,260,0.0,1.0,72,0.00,,---,0.00,VWS V14.01,2013-05-19 01:55:00,
2013-05-18 21:56:00,58.0,49.0,30.29,West,259,0.0,0.0,72,0.00,,---,0.00,VWS V14.01,2013-05-19 01:56:00,
2013-05-18 21:57:00,57.8,48.8,30.29,West,260,0.0,0.0,72,0.00,,---,0.00,VWS V14.01,2013-05-19 01:57:00,
2013-05-18 21:58:00,57.8,48.8,30.29,West,260,0.0,0.0,72,0.00,,---,0.00,VWS V14.01,2013-05-19 01:58:00,
2013-05-18 21:59:00,57.8,48.8,30.29,West,260,0.0,0.0,72,0.00,,---,0.00,VWS V14.01,2013-05-19 01:59:00,
2013-05-18 22:00:00,57.8,48.8,30.30,West,259,0.0,0.0,72,0.00,,---,0.00,VWS V14.01,2013-05-19 02:00:00,
2013-05-18 22:01:00,57.8,48.8,30.30,West,259,0.0,0.0,72,0.00,,---,0.00,VWS V14.01,2013-05-19 02:01:00,
2013-05-18 22:02:00,57.8,48.8,30.30,West,260,0.0,1.0,72,0.00,,---,0.00,VWS V14.01,2013-05-19 02:02:00,
2013-05-18 22:03:00,57.6,48.7,30.30,West,259,0.0,1.0,72,0.00,,---,0.00,VWS V14.01,2013-05-19 02:03:00,
2013-05-18 22:04:00,57.6,48.7,30.30,West,259,0.0,1.0,72,0.00,,---,0.00,VWS V14.01,2013-05-19 02:04:00,
2013-05-18 22:05:00,57.6,49.0,30.30,West,259,0.0,1.0,73,0.00,,---,0.00,VWS V14.01,2013-05-19 02:05:00,
2013-05-18 22:06:00,57.6,49.0,30.30,West,260,0.0,0.0,73,0.00,,---,0.00,VWS V14.01,2013-05-19 02:06:00,
2013-05-18 22:07:00,57.6,49.0,30.30,West,260,0.0,0.0,73,0.00,,---,0.00,VWS V14.01,2013-05-19 02:07:00,
2013-05-18 22:08:00,57.5,48.9,30.30,West,260,0.0,0.0,73,0.00,,---,0.00,VWS V14.01,2013-05-19 02:08:00,
2013-05-18 22:09:00,57.5,48.9,30.30,West,260,0.0,0.0,73,0.00,,---,0.00,VWS V14.01,2013-05-19 02:09:00,
2013-05-18 22:10:00,57.5,48.9,30.30,SSW,209,1.0,2.0,73,0.00,,---,0.00,VWS V14.01,2013-05-19 02:10:00,
2013-05-18 22:11:00,57.5,48.9,30.30,SSW,209,0.0,1.0,73,0.00,,---,0.00,VWS V14.01,2013-05-19 02:11:00,
2013-05-18 22:12:00,57.5,48.9,30.30,SSW,209,0.0,1.0,73,0.00,,---,0.00,VWS V14.01,2013-05-19 02:12:00,
2013-05-18 22:13:00,57.3,48.7,30.30,SSW,209,0.0,1.0,73,0.00,,---,0.00,VWS V14.01,2013-05-19 02:13:00,
2013-05-18 22:14:00,57.3,48.7,30.30,SSW,209,0.0,1.0,73,0.00,,---,0.00,VWS V14.01,2013-05-19 02:14:00,
2013-05-18 22:15:00,57.3,49.1,30.30,SSW,209,0.0,1.0,74,0.00,,---,0.00,VWS V14.01,2013-05-19 02:15:00,
2013-05-18 22:16:00,57.3,49.1,30.30,SSW,209,0.0,0.0,74,0.00,,---,0.00,VWS V14.01,2013-05-19 02:16:00,
2013-05-18 22:17:00,57.3,49.1,30.30,SSW,209,0.0,1.0,74,0.00,,---,0.00,VWS V14.01,2013-05-19 02:17:00,
2013-05-18 22:18:00,57.2,49.0,30.30,SSW,209,0.0,1.0,74,0.00,,---,0.00,VWS V14.01,2013-05-19 02:18:00,
2013-05-18 22:19:00,57.2,49.0,30.30,SSW,209,0.0,1.0,74,0.00,,---,0.00,VWS V14.01,2013-05-19 02:19:00,
2013-05-18 22:20:00,57.2,49.0,30.30,SSW,209,0.0,1.0,74,0.00,,---,0.00,VWS V14.01,2013-05-19 02:20:00,
2013-05-18 22:21:00,57.2,49.0,30.30,SSW,209,0.0,0.0,74,0.00,,---,0.00,VWS V14.01,2013-05-19 02:21:00,
2013-05-18 22:22:00,57.2,49.4,30.30,SSW,209,0.0,0.0,75,0.00,,---,0.00,VWS V14.01,2013-05-19 02:22:00,
2013-05-18 22:23:00,57.2,49.4,30.30,SSW,209,0.0,0.0,75,0.00,,---,0.00,VWS V14.01,2013-05-19 02:23:00,
2013-05-18 22:24:00,57.2,49.4,30.30,SSW,209,0.0,0.0,75,0.00,,---,0.00,VWS V14.01,2013-05-19 02:24:00,
2013-05-18 22:25:00,57.0,49.2,30.30,SSW,209,0.0,0.0,75,0.00,,---,0.00,VWS V14.01,2013-05-19 02:25:00,
2013-05-18 22:26:00,57.0,49.2,30.30,SSW,209,0.0,2.0,75,0.00,,---,0.00,VWS V14.01,2013-05-19 02:26:00,
2013-05-18 22:27:00,57.0,49.2,30.30,SSW,209,0.0,2.0,75,0.00,,---,0.00,VWS V14.01,2013-05-19 02:27:00,
2013-05-18 22:28:00,57.0,49.2,30.30,SSW,209,0.0,2.0,75,0.00,,---,0.00,VWS V14.01,2013-05-19 02:28:00,
2013-05-18 22:29:00,57.0,49.2,30.30,SSW,209,0.0,2.0,75,0.00,,---,0.00,VWS V14.01,2013-05-19 02:29:00,
2013-05-18 22:30:00,57.0,49.5,30.30,SSW,209,0.0,2.0,76,0.00,,---,0.00,VWS V14.01,2013-05-19 02:30:00,
2013-05-18 22:31:00,57.0,49.5,30.30,SSW,209,0.0,0.0,76,0.00,,---,0.00,VWS V14.01,2013-05-19 02:31:00,
2013-05-18 22:32:00,57.0,49.5,30.30,SSW,209,0.0,0.0,76,0.00,,---,0.00,VWS V14.01,2013-05-19 02:32:00,
2013-05-18 22:33:00,56.9,49.4,30.30,SSW,209,0.0,0.0,76,0.00,,---,0.00,VWS V14.01,2013-05-19 02:33:00,
2013-05-18 22:34:00,56.9,49.4,30.30,SSW,209,0.0,0.0,76,0.00,,---,0.00,VWS V14.01,2013-05-19 02:34:00,
2013-05-18 22:35:00,56.9,49.4,30.30,SSW,209,0.0,0.0,76,0.00,,---,0.00,VWS V14.01,2013-05-19 02:35:00,
2013-05-18 22:36:00,56.9,49.4,30.30,SSW,209,0.0,0.0,76,0.00,,---,0.00,VWS V14.01,2013-05-19 02:36:00,
2013-05-18 22:37:00,56.9,49.4,30.30,SSW,209,0.0,0.0,76,0.00,,---,0.00,VWS V14.01,2013-05-19 02:37:00,
2013-05-18 22:38:00,56.9,49.4,30.30,SSW,209,0.0,0.0,76,0.00,,---,0.00,VWS V14.01,2013-05-19 02:38:00,
2013-05-18 22:39:00,56.9,49.4,30.30,SSW,209,0.0,0.0,76,0.00,,---,0.00,VWS V14.01,2013-05-19 02:39:00,
2013-05-18 22:40:00,56.7,49.2,30.30,SSW,209,0.0,0.0,76,0.00,,---,0.00,VWS V14.01,2013-05-19 02:40:00,
2013-05-18 22:41:00,56.7,49.2,30.30,SSW,209,0.0,0.0,76,0.00,,---,0.00,VWS V14.01,2013-05-19 02:41:00,
2013-05-18 22:42:00,56.7,49.6,30.30,SSW,209,0.0,0.0,77,0.00,,---,0.00,VWS V14.01,2013-05-19 02:42:00,
2013-05-18 22:43:00,56.7,49.6,30.30,SSW,209,0.0,0.0,77,0.00,,---,0.00,VWS V14.01,2013-05-19 02:43:00,
2013-05-18 22:44:00,56.7,49.6,30.30,SSW,209,0.0,0.0,77,0.00,,---,0.00,VWS V14.01,2013-05-19 02:44:00,
2013-05-18 22:45:00,56.7,49.6,30.30,SSW,209,0.0,0.0,77,0.00,,---,0.00,VWS V14.01,2013-05-19 02:45:00,
2013-05-18 22:46:00,56.6,49.5,30.30,SSW,209,0.0,0.0,77,0.00,,---,0.00,VWS V14.01,2013-05-19 02:46:00,
2013-05-18 22:47:00,56.6,49.5,30.30,SSW,209,0.0,0.0,77,0.00,,---,0.00,VWS V14.01,2013-05-19 02:47:00,
2013-05-18 22:48:00,56.6,49.5,30.30,SSW,209,0.0,0.0,77,0.00,,---,0.00,VWS V14.01,2013-05-19 02:48:00,
2013-05-18 22:49:00,56.6,49.5,30.30,SSW,209,0.0,0.0,77,0.00,,---,0.00,VWS V14.01,2013-05-19 02:49:00,
2013-05-18 22:50:00,56.6,49.5,30.30,SSW,209,0.0,0.0,77,0.00,,---,0.00,VWS V14.01,2013-05-19 02:50:00,
2013-05-18 22:51:00,56.6,49.5,30.30,SSW,209,0.0,0.0,77,0.00,,---,0.00,VWS V14.01,2013-05-19 02:51:00,
2013-05-18 22:52:00,56.5,49.4,30.30,SSW,209,0.0,0.0,77,0.00,,---,0.00,VWS V14.01,2013-05-19 02:52:00,
2013-05-18 22:53:00,56.5,49.4,30.30,SSW,209,0.0,0.0,77,0.00,,---,0.00,VWS V14.01,2013-05-19 02:53:00,
2013-05-18 22:54:00,56.5,49.7,30.30,SSW,209,0.0,0.0,78,0.00,,---,0.00,VWS V14.01,2013-05-19 02:54:00,
2013-05-18 22:55:00,56.5,49.7,30.30,SSW,209,0.0,0.0,78,0.00,,---,0.00,VWS V14.01,2013-05-19 02:55:00,
2013-05-18 22:56:00,56.5,49.7,30.30,SSW,209,0.0,0.0,78,0.00,,---,0.00,VWS V14.01,2013-05-19 02:56:00,
2013-05-18 22:57:00,56.5,49.7,30.30,SSW,209,0.0,0.0,78,0.00,,---,0.00,VWS V14.01,2013-05-19 02:57:00,
2013-05-18 22:58:00,56.3,49.5,30.30,SSW,209,0.0,1.0,78,0.00,,---,0.00,VWS V14.01,2013-05-19 02:58:00,
2013-05-18 22:59:00,56.3,49.5,30.30,SSW,209,0.0,1.0,78,0.00,,---,0.00,VWS V14.01,2013-05-19 02:59:00,
2013-05-18 23:00:00,56.3,49.5,30.30,SSW,209,0.0,1.0,78,0.00,,---,0.00,VWS V14.01,2013-05-19 03:00:00,
2013-05-18 23:01:00,56.3,49.5,30.30,SSW,209,0.0,0.0,78,0.00,,---,0.00,VWS V14.01,2013-05-19 03:01:00,
2013-05-18 23:02:00,56.3,49.9,30.30,SSW,209,0.0,0.0,79,0.00,,---,0.00,VWS V14.01,2013-05-19 03:02:00,
2013-05-18 23:03:00,56.2,49.8,30.30,SSW,209,0.0,1.0,79,0.00,,---,0.00,VWS V14.01,2013-05-19 03:03:00,
2013-05-18 23:04:00,56.2,49.8,30.30,SSW,209,0.0,1.0,79,0.00,,---,0.00,VWS V14.01,2013-05-19 03:04:00,
2013-05-18 23:05:00,56.2,49.8,30.30,SSW,209,0.0,1.0,79,0.00,,---,0.00,VWS V14.01,2013-05-19 03:05:00,
2013-05-18 23:06:00,56.2,49.8,30.30,SSW,209,0.0,0.0,79,0.00,,---,0.00,VWS V14.01,2013-05-19 03:06:00,
2013-05-18 23:07:00,56.2,49.8,30.30,SSW,209,0.0,0.0,79,0.00,,---,0.00,VWS V14.01,2013-05-19 03:07:00,
2013-05-18 23:08:00,56.0,49.6,30.30,SSW,209,0.0,0.0,79,0.00,,---,0.00,VWS V14.01,2013-05-19 03:08:00,
2013-05-18 23:09:00,56.0,49.6,30.30,SSW,209,0.0,0.0,79,0.00,,---,0.00,VWS V14.01,2013-05-19 03:09:00,
2013-05-18 23:10:00,56.0,49.6,30.30,SSW,209,0.0,0.0,79,0.00,,---,0.00,VWS V14.01,2013-05-19 03:10:00,
2013-05-18 23:11:00,56.0,49.9,30.30,SSW,209,0.0,0.0,80,0.00,,---,0.00,VWS V14.01,2013-05-19 03:11:00,
2013-05-18 23:12:00,56.0,49.9,30.30,SSW,209,0.0,0.0,80,0.00,,---,0.00,VWS V14.01,2013-05-19 03:12:00,
2013-05-18 23:13:00,56.0,49.9,30.30,SSW,209,0.0,0.0,80,0.00,,---,0.00,VWS V14.01,2013-05-19 03:13:00,
2013-05-18 23:14:00,55.9,49.8,30.30,SSW,209,0.0,0.0,80,0.00,,---,0.00,VWS V14.01,2013-05-19 03:14:00,
2013-05-18 23:15:00,55.9,49.8,30.30,SSW,209,0.0,0.0,80,0.00,,---,0.00,VWS V14.01,2013-05-19 03:15:00,
2013-05-18 23:16:00,55.9,49.8,30.30,SSW,209,0.0,0.0,80,0.00,,---,0.00,VWS V14.01,2013-05-19 03:16:00,
2013-05-18 23:17:00,55.9,49.8,30.30,SSW,209,0.0,0.0,80,0.00,,---,0.00,VWS V14.01,2013-05-19 03:17:00,
2013-05-18 23:18:00,55.9,49.8,30.30,SSW,209,0.0,0.0,80,0.00,,---,0.00,VWS V14.01,2013-05-19 03:18:00,
2013-05-18 23:19:00,55.7,49.6,30.30,SSW,209,0.0,0.0,80,0.00,,---,0.00,VWS V14.01,2013-05-19 03:19:00,
2013-05-18 23:20:00,55.7,50.0,30.30,SSW,209,0.0,0.0,81,0.00,,---,0.00,VWS V14.01,2013-05-19 03:20:00,
2013-05-18 23:21:00,55.7,50.0,30.30,SSW,209,0.0,0.0,81,0.00,,---,0.00,VWS V14.01,2013-05-19 03:21:00,
2013-05-18 23:22:00,55.7,50.0,30.30,SSW,209,0.0,0.0,81,0.00,,---,0.00,VWS V14.01,2013-05-19 03:22:00,
2013-05-18 23:23:00,55.7,50.0,30.30,SSW,209,0.0,0.0,81,0.00,,---,0.00,VWS V14.01,2013-05-19 03:23:00,
2013-05-18 23:24:00,55.6,49.9,30.30,SSW,209,0.0,0.0,81,0.00,,---,0.00,VWS V14.01,2013-05-19 03:24:00,
2013-05-18 23:25:00,55.6,49.9,30.30,SSW,209,0.0,0.0,81,0.00,,---,0.00,VWS V14.01,2013-05-19 03:25:00,
2013-05-18 23:26:00,55.6,49.9,30.30,SSW,209,0.0,0.0,81,0.00,,---,0.00,VWS V14.01,2013-05-19 03:26:00,
2013-05-18 23:27:00,55.6,49.9,30.30,SSW,209,0.0,0.0,81,0.00,,---,0.00,VWS V14.01,2013-05-19 03:27:00,
2013-05-18 23:28:00,55.6,49.9,30.30,SSW,209,0.0,0.0,81,0.00,,---,0.00,VWS V14.01,2013-05-19 03:28:00,
2013-05-18 23:29:00,55.4,49.7,30.30,SSW,209,0.0,0.0,81,0.00,,---,0.00,VWS V14.01,2013-05-19 03:29:00,
2013-05-18 23:30:00,55.4,49.7,30.30,SSW,209,0.0,0.0,81,0.00,,---,0.00,VWS V14.01,2013-05-19 03:30:00,
2013-05-18 23:31:00,55.4,49.7,30.30,SSW,209,0.0,0.0,81,0.00,,---,0.00,VWS V14.01,2013-05-19 03:31:00,
2013-05-18 23:32:00,55.4,49.7,30.30,SSW,209,0.0,0.0,81,0.00,,---,0.00,VWS V14.01,2013-05-19 03:32:00,
2013-05-18 23:33:00,55.4,49.7,30.30,SSW,209,0.0,0.0,81,0.00,,---,0.00,VWS V14.01,2013-05-19 03:33:00,
2013-05-18 23:34:00,55.3,49.6,30.30,SSW,209,0.0,0.0,81,0.00,,---,0.00,VWS V14.01,2013-05-19 03:34:00,
2013-05-18 23:35:00,55.3,49.6,30.30,SSW,209,0.0,0.0,81,0.00,,---,0.00,VWS V14.01,2013-05-19 03:35:00,
2013-05-18 23:36:00,55.3,49.6,30.30,SSW,209,0.0,0.0,81,0.00,,---,0.00,VWS V14.01,2013-05-19 03:36:00,
2013-05-18 23:37:00,55.3,49.6,30.30,SSW,209,0.0,0.0,81,0.00,,---,0.00,VWS V14.01,2013-05-19 03:37:00,
2013-05-18 23:38:00,55.1,49.7,30.30,SSW,209,0.0,0.0,82,0.00,,---,0.00,VWS V14.01,2013-05-19 03:38:00,
2013-05-18 23:39:00,55.1,49.7,30.30,SSW,209,0.0,0.0,82,0.00,,---,0.00,VWS V14.01,2013-05-19 03:39:00,
2013-05-18 23:40:00,55.1,49.7,30.30,SSW,209,0.0,0.0,82,0.00,,---,0.00,VWS V14.01,2013-05-19 03:40:00,
2013-05-18 23:41:00,55.1,49.7,30.30,SSW,209,0.0,0.0,82,0.00,,---,0.00,VWS V14.01,2013-05-19 03:41:00,
2013-05-18 23:42:00,55.1,49.7,30.30,SSW,209,0.0,0.0,82,0.00,,---,0.00,VWS V14.01,2013-05-19 03:42:00,
2013-05-18 23:43:00,55.1,49.7,30.30,SSW,209,0.0,0.0,82,0.00,,---,0.00,VWS V14.01,2013-05-19 03:43:00,
2013-05-18 23:44:00,55.0,49.6,30.30,SSW,209,0.0,0.0,82,0.00,,---,0.00,VWS V14.01,2013-05-19 03:44:00,
2013-05-18 23:45:00,55.0,49.6,30.30,SSW,209,0.0,0.0,82,0.00,,---,0.00,VWS V14.01,2013-05-19 03:45:00,
2013-05-18 23:46:00,55.0,49.6,30.30,SSW,209,0.0,0.0,82,0.00,,---,0.00,VWS V14.01,2013-05-19 03:46:00,
2013-05-18 23:47:00,55.0,49.6,30.30,SSW,209,0.0,0.0,82,0.00,,---,0.00,VWS V14.01,2013-05-19 03:47:00,
2013-05-18 23:48:00,55.0,49.6,30.30,SSW,209,0.0,0.0,82,0.00,,---,0.00,VWS V14.01,2013-05-19 03:48:00,
2013-05-18 23:49:00,55.0,49.6,30.30,SSW,209,0.0,0.0,82,0.00,,---,0.00,VWS V14.01,2013-05-19 03:49:00,
2013-05-18 23:50:00,54.8,49.4,30.30,SSW,209,0.0,0.0,82,0.00,,---,0.00,VWS V14.01,2013-05-19 03:50:00,
2013-05-18 23:51:00,54.8,49.4,30.30,SSW,209,0.0,0.0,82,0.00,,---,0.00,VWS V14.01,2013-05-19 03:51:00,
2013-05-18 23:52:00,54.8,49.4,30.30,SSW,209,0.0,0.0,82,0.00,,---,0.00,VWS V14.01,2013-05-19 03:52:00,
2013-05-18 23:53:00,54.8,49.4,30.30,SSW,209,0.0,0.0,82,0.00,,---,0.00,VWS V14.01,2013-05-19 03:53:00,
2013-05-18 23:54:00,54.8,49.4,30.30,SSW,209,0.0,0.0,82,0.00,,---,0.00,VWS V14.01,2013-05-19 03:54:00,
2013-05-18 23:55:00,54.8,49.4,30.30,SSW,209,0.0,0.0,82,0.00,,---,0.00,VWS V14.01,2013-05-19 03:55:00,
2013-05-18 23:56:00,54.7,49.3,30.30,SSW,209,0.0,0.0,82,0.00,,---,0.00,VWS V14.01,2013-05-19 03:56:00,
2013-05-18 23:57:00,54.7,49.3,30.30,SSW,209,0.0,0.0,82,0.00,,---,0.00,VWS V14.01,2013-05-19 03:57:00,
2013-05-18 23:58:00,54.7,49.3,30.30,SSW,209,0.0,0.0,82,0.00,,---,0.00,VWS V14.01,2013-05-19 03:58:00,
2013-05-18 23:59:00,54.7,49.3,30.30,SSW,209,0.0,0.0,82,0.00,,---,0.00,VWS V14.01,2013-05-19 03:59:00,